[[{"header":{"parameterUnit":"m.s-1","parameterCategory":1,"la1":30.6,"la2":28.766,"lo1":-90.7593,"lo2":-88.6598,"dy":0.0162,"dx":0.0183,"nx":116,"ny":114,"refTime":"2023-08-12T06:00:00:Z","depth":0,"parameterNumber":2,"parameterNumberName":"U-component_of_WINDS"},"data":[0.0,0.0,0.0,0.0,0.0,0.0,0.0,0.0,0.0,0.0,0.0,0.0,0.0,0.0,0.0,0.0,0.0,0.0,0.0,0.0,0.0,0.0,0.0,0.0,0.0,0.0,0.0,0.0,0.0,0.0,0.0,0.0,0.0,0.0,0.0,0.0,0.0,0.0,0.0,0.0,0.0,0.0,0.0,0.0,0.0,0.0,0.0,0.0,0.0,0.0,0.0,0.0,0.0,0.0,0.0,0.0,0.0,0.0,0.0,0.0,0.0,0.0,0.0,0.0,0.0,0.0,0.0,0.0,0.0,0.0,0.0,0.0,0.0,0.0,0.0,0.0,0.0,0.0,0.0,0.0,0.0,0.0,0.0,0.0,0.0,0.0,0.0,0.0,0.0,0.0,0.0,0.0,0.0,0.0,0.0,0.0,0.0,0.0,0.0,0.0,0.0,0.0,0.0,0.0,0.0,0.0,0.0,0.0,0.0,0.0,0.0,0.0,0.0,0.0,0.0,0.0,0.0,0.0,0.0,0.0,0.0,0.0,0.0,0.0,0.0,0.0,0.0,0.0,0.0,0.0,0.0,0.0,0.0,0.0,0.0,0.0,0.0,0.0,0.0,0.0,0.0,0.0,0.0,0.0,0.0,0.0,0.0,0.0,0.0,0.0,0.0,0.0,0.0,0.0,0.0,0.0,0.0,0.0,0.0,0.0,0.0,0.0,0.0,0.0,0.0,0.0,0.0,0.0,0.0,0.0,0.0,0.0,0.0,0.0,0.0,0.0,0.0,0.0,0.0,0.0,0.0,0.0,0.0,0.0,0.0,0.0,0.0,0.0,0.0,0.0,0.0,0.0,0.0,0.0,0.0,0.0,0.0,0.0,0.0,0.0,0.0,0.0,0.0,0.0,0.0,0.0,0.0,0.0,0.0,0.0,0.0,0.0,0.0,0.0,0.0,0.0,0.0,0.0,0.0,0.0,0.0,0.0,0.0,0.0,0.0,0.0,0.0,0.0,0.0,0.0,0.0,0.0,0.0,0.0,0.0,0.0,0.0,0.0,0.0,0.0,0.0,0.0,0.0,0.0,0.0,0.0,0.0,0.0,0.0,0.0,0.0,0.0,0.0,0.0,0.0,0.0,0.0,0.0,0.0,0.0,0.0,0.0,0.0,0.0,0.0,0.0,0.0,0.0,0.0,0.0,0.0,0.0,0.0,0.0,0.0,0.0,0.0,0.0,0.0,0.0,0.0,0.0,0.0,0.0,0.0,0.0,0.0,0.0,0.0,0.0,0.0,0.0,0.0,0.0,0.0,0.0,0.0,0.0,0.0,0.0,0.0,0.0,0.0,0.0,0.0,0.0,0.0,0.0,0.0,0.0,0.0,0.0,0.0,0.0,0.0,0.0,0.0,0.0,0.0,0.0,0.0,0.0,0.0,0.0,0.0,0.0,0.0,0.0,0.0,0.0,0.0,0.0,0.0,0.0,0.0,0.0,0.0,0.0,0.0,0.0,0.0,0.0,0.0,0.0,0.0,0.0,0.0,0.0,0.0,0.0,0.0,0.0,0.0,0.0,0.0,0.0,0.0,0.0,0.0,0.0,0.0,0.0,0.0,0.0,0.0,0.0,0.0,0.0,0.0,0.0,0.0,0.0,0.0,0.0,0.0,0.0,0.0,0.0,0.0,0.0,0.0,0.0,0.0,0.0,0.0,0.0,0.0,0.0,0.0,0.0,0.0,0.0,0.0,0.0,0.0,0.0,0.0,0.0,0.0,0.0,0.0,0.0,0.0,0.0,0.0,0.0,0.0,0.0,0.0,0.0,0.0,0.0,0.0,0.0,0.0,0.0,0.0,0.0,0.0,0.0,0.0,0.0,0.0,0.0,0.0,0.0,0.0,0.0,0.0,0.0,0.0,0.0,0.0,0.0,0.0,0.0,0.0,0.0,0.0,0.0,0.0,0.0,0.0,0.0,0.0,0.0,0.0,0.0,0.0,0.0,0.0,0.0,0.0,0.0,0.0,0.0,0.0,0.0,0.0,0.0,0.0,0.0,0.0,0.0,0.0,0.0,0.0,0.0,0.0,0.0,0.0,0.0,0.0,0.0,0.0,0.0,0.0,0.0,0.0,0.0,0.0,0.0,0.0,0.0,0.0,0.0,0.0,0.0,0.0,0.0,0.0,0.0,0.0,0.0,0.0,0.0,0.0,0.0,0.0,0.0,0.0,0.0,0.0,0.0,0.0,0.0,0.0,0.0,0.0,0.0,0.0,0.0,0.0,0.0,0.0,0.0,0.0,0.0,0.0,0.0,0.0,0.0,0.0,0.0,0.0,0.0,0.0,0.0,0.0,0.0,0.0,0.0,0.0,0.0,0.0,0.0,0.0,0.0,0.0,0.0,0.0,0.0,0.0,0.0,0.0,0.0,0.0,0.0,0.0,0.0,0.0,0.0,0.0,0.0,0.0,0.0,0.0,0.0,0.0,0.0,0.0,0.0,0.0,0.0,0.0,0.0,0.0,0.0,0.0,0.0,0.0,0.0,0.0,0.0,0.0,0.0,0.0,0.0,0.0,0.0,0.0,0.0,0.0,0.0,0.0,0.0,0.0,0.0,0.0,0.0,0.0,0.0,0.0,0.0,0.0,0.0,0.0,0.0,0.0,0.0,0.0,0.0,0.0,0.0,0.0,0.0,0.0,0.0,0.0,0.0,0.0,0.0,0.0,0.0,0.0,0.0,0.0,0.0,0.0,0.0,0.0,0.0,0.0,0.0,0.0,0.0,0.0,0.0,0.0,0.0,0.0,0.0,0.0,0.0,0.0,0.0,0.0,0.0,0.0,0.0,0.0,0.0,0.0,0.0,0.0,0.0,0.0,0.0,0.0,0.0,0.0,0.0,0.0,0.0,0.0,0.0,0.0,0.0,0.0,0.0,0.0,0.0,0.0,0.0,0.0,0.0,0.0,0.0,0.0,0.0,0.0,0.0,0.0,0.0,0.0,0.0,0.0,0.0,0.0,0.0,0.0,0.0,0.0,0.0,0.0,0.0,0.0,0.0,0.0,0.0,0.0,0.0,0.0,0.0,0.0,0.0,0.0,0.0,0.0,0.0,0.0,0.0,0.0,0.0,0.0,0.0,0.0,0.0,0.0,0.0,0.0,0.0,0.0,0.0,0.0,0.0,0.0,0.0,0.0,0.0,0.0,0.0,0.0,0.0,0.0,0.0,0.0,0.0,0.0,0.0,0.0,0.0,0.0,0.0,0.0,0.0,0.0,0.0,0.0,0.0,0.0,0.0,0.0,0.0,0.0,0.0,0.0,0.0,0.0,0.0,0.0,0.0,0.0,0.0,0.0,0.0,0.0,0.0,0.0,0.0,0.0,0.0,0.0,0.0,0.0,0.0,0.0,0.0,0.0,0.0,0.0,0.0,0.0,0.0,0.0,0.0,0.0,0.0,0.0,0.0,0.0,0.0,0.0,0.0,0.0,0.0,0.0,0.0,0.0,0.0,0.0,0.0,0.0,0.0,0.0,0.0,0.0,0.0,0.0,0.0,0.0,0.0,0.0,0.0,0.0,0.0,0.0,0.0,0.0,0.0,0.0,0.0,0.0,0.0,0.0,0.0,0.0,0.0,0.0,0.0,0.0,0.0,0.0,0.0,0.0,0.0,0.0,0.0,0.0,0.0,0.0,0.0,0.0,0.0,0.0,0.0,0.0,0.0,0.0,0.0,0.0,0.0,0.0,0.0,0.0,0.0,0.0,0.0,0.0,0.0,0.0,0.0,0.0,0.0,0.0,0.0,0.0,0.0,0.0,0.0,0.0,0.0,0.0,0.0,0.0,0.0,0.0,0.0,0.0,0.0,0.0,0.0,0.0,0.0,0.0,0.0,0.0,0.0,0.0,0.0,0.0,0.0,0.0,0.0,0.0,0.0,0.0,0.0,0.0,0.0,0.0,0.0,0.0,0.0,0.0,0.0,0.0,0.0,0.0,0.0,0.0,0.0,0.0,0.0,0.0,0.0,0.0,0.0,0.0,0.0,0.0,0.0,0.0,0.0,0.0,0.0,0.0,0.0,0.0,0.0,0.0,0.0,0.0,0.0,0.0,0.0,0.0,0.0,0.0,0.0,0.0,0.0,0.0,0.0,0.0,0.0,0.0,0.0,0.0,0.0,0.0,0.0,0.0,0.0,0.0,0.0,0.0,0.0,0.0,0.0,0.0,0.0,0.0,0.0,0.0,0.0,0.0,0.0,0.0,0.0,0.0,0.0,0.0,0.0,0.0,0.0,0.0,0.0,0.0,0.0,0.0,0.0,0.0,0.0,0.0,0.0,0.0,0.0,0.0,0.0,0.0,0.0,0.0,0.0,0.0,0.0,0.0,0.0,0.0,0.0,0.0,0.0,0.0,0.0,0.0,0.0,0.0,0.0,0.0,0.0,0.0,0.0,0.0,0.0,0.0,0.0,0.0,0.0,0.0,0.0,0.0,0.0,0.0,0.0,0.0,0.0,0.0,0.0,0.0,0.0,0.0,0.0,0.0,0.0,0.0,0.0,0.0,0.0,0.0,0.0,0.0,0.0,0.0,0.0,0.0,0.0,0.0,0.0,0.0,0.0,0.0,0.0,0.0,0.0,0.0,0.0,0.0,0.0,0.0,0.0,0.0,0.0,0.0,0.0,0.0,0.0,0.0,0.0,0.0,0.0,0.0,0.0,0.0,0.0,0.0,0.0,0.0,0.0,0.0,0.0,0.0,0.0,0.0,0.0,0.0,0.0,0.0,0.0,0.0,0.0,0.0,0.0,0.0,0.0,0.0,0.0,0.0,0.0,0.0,0.0,0.0,0.0,0.0,0.0,0.0,0.0,0.0,0.0,0.0,0.0,0.0,0.0,0.0,0.0,0.0,0.0,0.0,0.0,0.0,0.0,0.0,0.0,0.0,0.0,0.0,0.0,0.0,0.0,0.0,0.0,0.0,0.0,0.0,0.0,0.0,0.0,0.0,0.0,0.0,0.0,0.0,0.0,0.0,0.0,0.0,0.0,0.0,0.0,0.0,0.0,0.0,0.0,0.0,0.0,0.0,0.0,0.0,0.0,0.0,0.0,0.0,0.0,0.0,0.0,0.0,0.0,0.0,0.0,0.0,0.0,0.0,0.0,0.0,0.0,0.0,0.0,0.0,0.0,0.0,0.0,0.0,0.0,0.0,0.0,0.0,0.0,0.0,0.0,0.0,0.0,0.0,0.0,0.0,0.0,0.0,0.0,0.0,0.0,0.0,0.0,0.0,0.0,0.0,0.0,0.0,0.0,0.0,0.0,0.0,0.0,0.0,0.0,0.0,0.0,0.0,0.0,0.0,0.0,0.0,0.0,0.0,0.0,0.0,0.0,0.0,0.0,0.0,0.0,0.0,0.0,0.0,0.0,0.0,0.0,0.0,0.0,0.0,0.0,0.0,0.0,0.0,0.0,0.0,0.0,0.0,0.0,0.0,0.0,0.0,0.0,0.0,0.0,0.0,0.0,0.0,0.0,0.0,0.0,0.0,0.0,0.0,0.0,0.0,0.0,0.0,0.0,0.0,0.0,0.0,0.0,0.0,0.0,0.0,0.0,0.0,0.0,0.0,0.0,0.0,0.0,0.0,0.0,0.0,0.0,0.0,0.0,0.0,0.0,0.0,0.0,0.0,0.0,0.0,0.0,0.0,0.0,0.0,0.0,0.0,0.0,0.0,0.0,0.0,0.0,0.0,0.0,0.0,0.0,0.0,0.0,0.0,0.0,0.0,0.0,0.0,0.0,0.0,0.0,0.0,0.0,0.0,0.0,0.0,0.0,0.0,0.0,0.0,0.0,0.0,0.0,0.0,0.0,0.0,0.0,0.0,0.0,0.0,0.0,0.0,0.0,0.0,0.0,0.0,0.0,0.0,0.0,0.0,0.0,0.0,0.0,0.0,0.0,0.0,0.0,0.0,0.0,0.0,0.0,0.0,0.0,0.0,0.0,0.0,0.0,0.0,0.0,0.0,0.0,0.0,0.0,0.0,0.0,0.0,0.0,0.0,0.0,0.0,0.0,0.0,0.0,0.0,0.0,0.0,0.0,0.0,0.0,0.0,0.0,0.0,0.0,-3.6059,0.0,0.0,0.0,0.0,0.0,0.0,0.0,0.0,0.0,0.0,0.0,0.0,0.0,0.0,0.0,0.0,0.0,0.0,0.0,0.0,0.0,0.0,0.0,0.0,0.0,0.0,0.0,0.0,0.0,0.0,0.0,0.0,0.0,0.0,0.0,0.0,0.0,0.0,0.0,0.0,0.0,0.0,0.0,0.0,0.0,0.0,0.0,0.0,0.0,0.0,0.0,0.0,0.0,0.0,0.0,0.0,0.0,0.0,0.0,0.0,0.0,0.0,0.0,0.0,0.0,0.0,0.0,0.0,0.0,0.0,0.0,0.0,0.0,0.0,0.0,0.0,0.0,0.0,0.0,0.0,0.0,0.0,0.0,0.0,0.0,0.0,0.0,0.0,0.0,0.0,0.0,0.0,0.0,0.0,0.0,0.0,0.0,0.0,0.0,0.0,0.0,0.0,0.0,0.0,0.0,0.0,0.0,0.0,0.0,0.0,0.0,0.0,0.0,0.0,0.0,0.0,-3.7703,0.0,0.0,0.0,0.0,0.0,0.0,0.0,0.0,0.0,0.0,0.0,0.0,0.0,0.0,0.0,0.0,0.0,0.0,0.0,0.0,0.0,0.0,0.0,0.0,0.0,0.0,0.0,0.0,0.0,0.0,0.0,0.0,0.0,0.0,0.0,0.0,0.0,0.0,0.0,0.0,0.0,0.0,0.0,0.0,0.0,0.0,0.0,0.0,0.0,0.0,0.0,0.0,0.0,0.0,0.0,0.0,0.0,0.0,0.0,0.0,0.0,0.0,0.0,0.0,0.0,0.0,0.0,0.0,0.0,0.0,0.0,0.0,0.0,0.0,0.0,0.0,0.0,0.0,0.0,0.0,0.0,0.0,0.0,0.0,0.0,0.0,0.0,0.0,0.0,0.0,0.0,0.0,0.0,0.0,0.0,0.0,0.0,0.0,0.0,0.0,0.0,0.0,0.0,0.0,0.0,0.0,0.0,0.0,0.0,-4.9933,-5.0471,-4.9625,-4.8837,-4.8025,-4.4739,-4.1795,-3.9383,0.0,0.0,0.0,0.0,0.0,0.0,0.0,0.0,0.0,0.0,0.0,0.0,0.0,0.0,0.0,0.0,0.0,0.0,0.0,0.0,0.0,0.0,0.0,0.0,0.0,0.0,0.0,0.0,0.0,0.0,0.0,0.0,0.0,0.0,0.0,0.0,0.0,0.0,0.0,-4.5133,-4.6817,-4.824,-4.9211,-4.5701,0.0,0.0,0.0,0.0,0.0,0.0,0.0,0.0,0.0,0.0,0.0,0.0,0.0,0.0,0.0,0.0,0.0,0.0,0.0,0.0,0.0,0.0,0.0,0.0,0.0,0.0,0.0,0.0,0.0,0.0,0.0,0.0,0.0,0.0,0.0,0.0,0.0,0.0,0.0,0.0,0.0,0.0,0.0,-3.5269,-3.6381,0.0,0.0,0.0,0.0,0.0,0.0,0.0,0.0,0.0,0.0,0.0,0.0,0.0,0.0,-4.8702,-5.1779,-5.3126,-5.2741,-5.4818,-5.5483,-5.4818,-5.401,-5.3604,-5.3452,-5.2167,0.0,-4.3938,-4.1884,0.0,0.0,0.0,0.0,0.0,0.0,0.0,0.0,0.0,0.0,0.0,0.0,0.0,0.0,0.0,0.0,0.0,0.0,0.0,0.0,0.0,0.0,0.0,0.0,0.0,0.0,0.0,0.0,0.0,0.0,0.0,0.0,0.0,0.0,0.0,0.0,-4.1662,-4.5009,-4.7778,-4.9933,-5.1625,-5.2779,-5.1356,-5.0248,-4.9365,-4.7045,0.0,0.0,0.0,0.0,0.0,0.0,0.0,0.0,0.0,0.0,0.0,0.0,0.0,0.0,0.0,0.0,0.0,0.0,0.0,0.0,0.0,0.0,0.0,0.0,0.0,0.0,0.0,0.0,0.0,0.0,0.0,0.0,0.0,0.0,0.0,0.0,0.0,0.0,0.0,-3.5514,-3.7959,-3.6355,-3.903,-4.043,0.0,0.0,0.0,0.0,0.0,0.0,0.0,0.0,0.0,-4.7817,-5.0048,-5.1972,-5.3636,-5.6088,-5.7627,-5.8204,-5.8819,-5.9177,-5.9292,-5.8434,-5.8026,-5.7974,-5.682,-5.46,-5.1405,-4.702,-4.3996,-4.1883,0.0,0.0,0.0,0.0,0.0,-3.8505,0.0,0.0,0.0,0.0,0.0,0.0,0.0,0.0,0.0,0.0,0.0,0.0,0.0,0.0,0.0,-3.9546,0.0,0.0,0.0,0.0,0.0,0.0,0.0,0.0,0.0,0.0,0.0,0.0,-4.5893,-4.8933,-5.1087,-5.3626,-5.528,-5.6165,-5.6973,-5.5432,-5.2097,-5.0339,-4.8649,0.0,0.0,0.0,0.0,0.0,0.0,0.0,0.0,0.0,0.0,0.0,0.0,0.0,0.0,0.0,0.0,0.0,0.0,0.0,0.0,0.0,0.0,0.0,0.0,0.0,0.0,0.0,0.0,0.0,0.0,0.0,0.0,0.0,0.0,0.0,0.0,0.0,0.0,-3.7681,-4.0084,-3.742,-4.1623,-4.3624,0.0,0.0,0.0,0.0,0.0,0.0,-4.7124,-4.8817,-5.0625,-5.2587,-5.4664,-5.6703,-5.8588,-5.9627,-6.0935,-6.2397,-6.132,-6.1243,-6.2062,-6.1204,-6.0746,-6.0571,-5.9431,-5.824,-5.6729,-5.1306,-4.7482,-4.4856,-4.3057,-4.1846,-4.1111,-4.1111,-4.1001,-4.1001,0.0,0.0,0.0,0.0,0.0,0.0,0.0,0.0,0.0,0.0,0.0,0.0,0.0,0.0,-4.0516,-4.3701,-4.347,-4.3085,0.0,0.0,0.0,0.0,0.0,0.0,0.0,0.0,0.0,-4.5325,-4.8826,-5.2174,-5.5434,-5.7973,-5.9665,-6.0512,-6.1408,-6.0832,-5.903,-5.4894,-5.3139,-5.2806,0.0,0.0,0.0,0.0,0.0,0.0,0.0,0.0,0.0,0.0,0.0,0.0,0.0,0.0,0.0,0.0,0.0,0.0,0.0,0.0,0.0,0.0,0.0,0.0,0.0,0.0,0.0,0.0,0.0,0.0,0.0,0.0,0.0,0.0,0.0,0.0,0.0,0.0,0.0,-4.1508,-4.597,0.0,0.0,0.0,0.0,-4.6577,-4.8894,-5.0702,-5.1538,-5.3241,-5.5318,-5.7857,-5.8781,-6.0435,-6.2962,-6.232,-6.2397,-6.3243,-6.1589,-6.1243,-6.2062,-6.1204,-6.0585,-6.0118,-5.9587,-5.8631,-5.715,-5.2994,-5.0417,-4.8967,-4.6581,-4.5186,-4.4434,-4.4434,-4.3975,-4.3441,0.0,0.0,0.0,0.0,0.0,0.0,0.0,0.0,0.0,0.0,0.0,0.0,0.0,-4.2354,-4.5124,-4.7394,-4.8817,-4.8471,-4.574,0.0,0.0,0.0,0.0,0.0,0.0,0.0,-4.5124,-4.9663,-5.251,-5.5357,-5.8165,-5.9088,-6.0242,-6.1666,-6.2512,-6.2635,-6.2004,-5.8365,-5.5947,-5.4192,-4.9785,-4.6874,0.0,0.0,0.0,0.0,0.0,0.0,0.0,0.0,0.0,0.0,0.0,0.0,0.0,0.0,0.0,0.0,0.0,0.0,0.0,0.0,0.0,0.0,0.0,0.0,0.0,0.0,0.0,0.0,0.0,0.0,0.0,0.0,0.0,0.0,0.0,0.0,0.0,-4.6719,-5.1202,0.0,0.0,-5.0279,-5.1202,-5.1741,-5.3126,-5.4741,-5.6703,-5.7896,-5.9242,-6.0704,-6.205,-6.2935,-6.3308,-6.3589,-6.3589,-6.3269,-6.2166,-6.1793,-6.2062,-6.1204,-6.0722,-6.0508,-5.9706,-5.8849,-5.7751,-5.5147,-5.2933,-5.0912,-4.9023,-4.7755,-4.6929,-4.6415,-4.6397,-4.6471,0.0,0.0,0.0,0.0,0.0,0.0,0.0,0.0,0.0,0.0,0.0,-3.77,-4.1401,-4.5355,-4.8779,-5.1279,-5.2279,-5.1318,-4.7971,0.0,0.0,0.0,0.0,0.0,0.0,-4.5432,-4.8933,-5.3203,-5.5472,-5.7588,-5.9511,-6.0089,-6.0973,-6.2139,-6.3243,-6.383,-6.3863,-6.1694,-5.9048,-5.6016,-5.2412,-5.0267,-4.8638,0.0,0.0,0.0,0.0,0.0,0.0,0.0,0.0,0.0,0.0,0.0,0.0,0.0,0.0,0.0,0.0,0.0,0.0,0.0,0.0,0.0,0.0,0.0,0.0,0.0,0.0,0.0,0.0,0.0,0.0,0.0,0.0,0.0,0.0,0.0,-5.1257,-5.1491,-5.5791,-5.7368,-5.3933,-5.4934,-5.6011,-5.6588,-5.7396,-5.8588,-6.0281,-6.1166,-6.1897,-6.2474,-6.3858,-6.432,-6.3743,-6.4012,-6.3743,-6.2897,-6.205,-6.1678,-6.1639,-6.105,-6.0781,-6.0757,-5.9962,-5.924,-5.8449,-5.66,-5.4812,-5.3041,-5.1426,-5.0288,-4.9444,-4.8654,-4.8526,-4.8453,0.0,0.0,0.0,0.0,0.0,0.0,0.0,0.0,0.0,0.0,-3.4462,-3.7846,-4.3701,-4.7432,-5.1202,-5.5395,-5.3356,-5.1115,-4.9471,-4.3748,0.0,0.0,0.0,0.0,-4.4432,-4.7855,-5.1664,-5.5857,-5.755,-5.8819,-5.9665,-6.132,-6.2139,-6.2293,-6.3897,-6.4717,-6.4899,-6.488,-6.2585,-5.8804,-5.68,-5.497,-5.2987,0.0,0.0,0.0,0.0,0.0,0.0,0.0,0.0,0.0,0.0,0.0,0.0,0.0,0.0,0.0,0.0,0.0,0.0,0.0,0.0,0.0,0.0,0.0,0.0,0.0,0.0,0.0,0.0,0.0,0.0,0.0,0.0,0.0,-4.824,-5.201,-5.5011,-5.5895,-5.9677,-6.0908,-5.7561,-5.9473,-6.0935,-6.0935,-6.1743,-6.2216,-6.2178,-6.2897,-6.3308,-6.3308,-6.4128,-6.4551,-6.4551,-6.3705,-6.2858,-6.2101,-6.1216,-6.0781,-6.0781,-6.0781,-6.0781,-6.0769,-6.0297,-5.9785,-5.9166,-5.7118,-5.5994,-5.5354,-5.3812,-5.2711,-5.194,-5.1096,-5.0251,-4.9243,0.0,0.0,0.0,0.0,0.0,0.0,0.0,0.0,0.0,0.0,-3.5661,-4.0046,-4.4748,-4.9394,-5.3356,-5.6368,-5.2626,-4.9625,-4.8548,0.0,0.0,0.0,0.0,0.0,-4.9731,-5.2549,-5.5742,-5.9396,-5.9858,-6.0858,-6.2243,-6.2127,-6.3101,-6.4859,-6.4666,-6.5639,-6.7369,-6.6752,-6.5824,-6.4387,-5.9666,-5.6682,-5.4679,0.0,0.0,0.0,0.0,0.0,0.0,0.0,0.0,0.0,0.0,0.0,0.0,0.0,0.0,0.0,0.0,0.0,0.0,0.0,0.0,0.0,0.0,0.0,0.0,0.0,0.0,0.0,0.0,0.0,0.0,0.0,0.0,-5.3356,-5.3587,-5.6742,-5.9819,-6.1897,-6.3743,-6.4243,-6.2666,-6.3705,-6.4243,-6.3589,-6.4359,-6.4589,-6.3935,-6.3512,-6.3308,-6.3308,-6.3538,-6.3666,-6.3666,-6.282,-6.2332,-6.2101,-6.1216,-6.0781,-6.0781,-6.0781,-6.0781,-6.0757,-5.9931,-5.8845,-5.7561,-5.632,-5.5027,-5.3812,-5.335,-5.3078,-5.2711,-5.1316,-4.9884,-4.8563,0.0,0.0,0.0,0.0,0.0,0.0,0.0,0.0,0.0,0.0,-3.5892,-4.0631,-4.4162,-4.9086,-5.2741,-5.4252,-5.0664,-4.7548,-4.5586,0.0,0.0,0.0,0.0,-4.9009,-5.2895,-5.5472,-5.8127,-6.0781,-6.1166,-6.182,-6.282,-6.3397,-6.4474,-6.5897,-6.609,-6.7013,-6.8359,-6.7859,-6.7628,-6.7295,-6.3235,-6.0938,-5.9473,-5.5021,-5.3164,-5.2549,-4.9923,-4.9086,-4.8894,-4.7048,0.0,0.0,0.0,0.0,0.0,0.0,0.0,0.0,0.0,0.0,0.0,0.0,0.0,0.0,0.0,0.0,0.0,0.0,0.0,0.0,0.0,0.0,0.0,0.0,-5.6357,-6.005,-6.182,-6.2551,-6.3858,-6.6436,-6.6551,-6.6359,-6.6205,-6.6013,-6.5974,-6.6167,-6.6013,-6.5667,-6.5166,-6.432,-6.3666,-6.3308,-6.3308,-6.3128,-6.282,-6.2666,-6.2243,-6.155,-6.1408,-6.1127,-6.0781,-6.0781,-6.0671,0.0,-5.9551,-5.8434,-5.7094,-5.5892,-5.4707,0.0,0.0,0.0,0.0,0.0,-4.9958,-4.8746,0.0,0.0,0.0,0.0,0.0,0.0,0.0,0.0,0.0,0.0,0.0,-4.0046,-4.2393,-4.7124,-5.0212,-5.0404,-4.7817,-4.4855,0.0,0.0,0.0,-4.4687,-4.8106,-5.149,-5.4765,-5.7297,-5.9396,-6.1089,-6.1793,-6.2255,-6.2601,-6.482,-6.6013,-6.6244,-6.7744,-6.8538,-6.8821,-6.8744,-6.8744,-6.8667,-6.7013,-6.6167,-6.5282,-5.9715,-5.8357,-5.8896,-5.4269,-5.2164,-5.1404,-5.0317,0.0,0.0,0.0,0.0,0.0,0.0,0.0,0.0,0.0,0.0,0.0,0.0,0.0,0.0,0.0,0.0,0.0,0.0,0.0,0.0,0.0,0.0,0.0,0.0,-6.2627,-6.6821,-7.0783,-6.8783,-6.7628,-6.959,-6.8475,-6.7744,-6.8346,-6.7128,-6.6859,-6.8167,-6.6974,-6.609,-6.5897,0.0,0.0,0.0,0.0,-6.2704,-6.2101,-6.2704,-6.232,-6.0935,-6.1639,-6.155,-6.0781,-6.0781,-6.0546,-6.0137,-5.9302,-5.8386,-5.732,-5.5807,-5.4805,-5.4179,-5.3482,-5.313,-5.2873,-5.1353,-5.0288,0.0,0.0,0.0,0.0,0.0,0.0,0.0,0.0,0.0,0.0,-3.0308,-3.4968,-3.87,-3.9892,-4.3978,-4.7134,-4.8471,-4.4393,-4.117,0.0,0.0,-4.4163,-4.772,-5.1491,-5.4622,-5.6943,-5.9189,-6.1127,-6.282,-6.232,-6.314,-6.5166,-6.5667,-6.6628,-6.7936,-6.8282,-6.9552,-7.1398,-7.0706,-7.0821,-7.1321,-6.9629,-6.7744,-6.5551,-6.2332,-6.0435,-5.9281,-5.7665,-5.6973,-5.6472,-5.4241,-5.4203,-5.4538,-5.1577,0.0,0.0,0.0,0.0,0.0,0.0,0.0,0.0,0.0,0.0,0.0,0.0,0.0,0.0,0.0,0.0,0.0,0.0,0.0,0.0,-6.2627,-6.7513,-7.1475,-7.3668,-7.3399,-7.2437,-7.086,-7.036,-6.9706,-6.85,-6.8744,-6.8513,-6.7436,-6.7705,-6.7321,-6.5974,-6.4397,0.0,-6.3308,-6.1973,-6.155,-6.2101,-6.155,-6.1473,-6.1831,0.0,0.0,-6.0781,-6.0781,-6.0757,-6.0622,-5.968,-5.8459,-5.7027,-5.5923,-5.469,-5.3445,-5.324,-5.2821,-5.2123,-5.1169,-5.0288,-4.9463,0.0,0.0,0.0,0.0,0.0,0.0,0.0,0.0,0.0,0.0,-3.4115,-3.7084,-3.7892,-4.1016,-4.3209,-4.3662,-4.0969,0.0,0.0,-4.3548,-4.6946,-5.0747,-5.3992,-5.6393,-5.7832,-5.9718,-6.1258,-6.2347,-6.2755,-6.3598,-6.4862,-6.615,-6.7271,-6.8248,-6.907,-7.0366,-7.1925,-7.1341,-7.113,-7.103,-6.9624,-6.8282,-6.6859,-6.432,-6.2551,-6.132,-6.0473,-5.9627,-5.8781,-5.7934,-5.7934,-5.7885,-5.5769,-5.3626,-5.0971,0.0,0.0,0.0,0.0,0.0,0.0,0.0,0.0,0.0,0.0,0.0,0.0,0.0,0.0,-5.2661,0.0,0.0,-6.4599,-6.7982,-7.1679,-7.4399,-7.5245,-7.5361,-7.4707,-7.3014,-7.2052,-7.1206,-7.0398,-6.9552,-6.8859,-6.8436,-6.7628,-6.6974,-6.6513,-6.4474,-6.3308,-6.3308,-6.1666,-6.1012,-6.1447,-6.1447,-6.1447,-6.1447,-6.1447,-6.1216,-6.0781,-6.0781,-6.0533,-6.0065,-5.9452,-5.8052,-5.6217,-5.4912,-5.3922,-5.3203,-5.3203,-5.2968,-5.2491,-5.1683,-5.0875,-5.0068,0.0,0.0,0.0,0.0,0.0,0.0,0.0,0.0,0.0,0.0,0.0,-3.514,-3.5612,-3.7839,-3.9,0.0,0.0,0.0,0.0,-4.5748,-4.9508,-5.3294,-5.5952,-5.7702,-5.8422,-6.0168,-6.1358,-6.1964,-6.3432,-6.4231,-6.4421,-6.6802,-6.8051,-6.8312,-7.0009,-7.1195,-7.1933,-7.1542,-7.1002,-7.023,-6.8991,-6.8369,-6.7898,-6.5513,-6.4166,-6.3397,-6.205,-6.0358,-5.8896,-5.9781,-5.9704,-5.9165,-5.8704,-5.7588,-5.528,-4.9356,-4.7163,0.0,0.0,0.0,0.0,0.0,0.0,0.0,0.0,0.0,-5.0577,-5.3345,-5.6355,-5.9614,-6.3323,-6.6992,-7.0272,-7.2758,-7.4903,-7.6207,-7.6015,-7.6015,-7.563,-7.4591,-7.3283,-7.2245,-7.1745,-6.986,-6.8821,-6.9167,-6.7282,-6.6359,-6.6821,-6.4743,-6.3462,-6.3308,-6.1858,-6.0973,-6.0781,-6.1512,-6.1473,-6.0819,-6.1524,-6.1485,-6.0781,-6.0781,-6.0338,-5.9505,-5.8903,-5.7504,-5.5486,-5.4032,-5.3314,-5.3203,-5.3203,-5.3203,-5.3093,-5.2307,-5.1499,-5.0692,0.0,0.0,0.0,0.0,0.0,0.0,0.0,0.0,0.0,0.0,0.0,0.0,0.0,0.0,0.0,0.0,0.0,0.0,-4.2989,-4.6924,-5.0836,-5.4634,-5.7488,-5.9252,-5.9668,-6.1675,-6.3163,-6.3973,-6.4879,-6.571,-6.6484,-6.8201,-6.9048,-6.9138,-7.0818,-7.2062,-7.28,-7.2054,-7.1503,-7.1014,-6.9404,-6.8127,-6.7051,-6.5282,-6.4551,-6.4051,-6.0896,-5.8204,-5.6242,-5.7137,-5.7857,-5.855,-5.9165,-5.9242,-5.7934,-5.201,0.0,-4.5287,-4.3124,-4.3695,-4.6086,-5.0863,-5.084,-5.203,0.0,0.0,-6.0717,-6.3205,-6.5491,-6.7546,-6.9371,-7.101,-7.2851,-7.5227,-7.6485,-7.6861,-7.6092,-7.6015,-7.5399,-7.3822,-7.3476,-7.2476,-7.0206,-6.9706,-6.8936,-6.7513,-6.7128,-6.6667,-6.6051,-6.5013,-6.4089,-6.332,-6.2435,-6.1601,-6.0819,-6.0896,-6.0896,-6.0781,-6.0896,-6.0896,-6.0781,-6.0781,-6.0508,-5.9923,-5.8329,-5.6857,-5.5537,-5.462,-5.3849,-5.3203,-5.3203,-5.3203,-5.3093,-5.2307,-5.1499,-5.0692,0.0,0.0,0.0,0.0,0.0,0.0,0.0,0.0,0.0,0.0,0.0,0.0,0.0,0.0,0.0,0.0,0.0,0.0,-4.1839,-4.6477,-5.0758,-5.4478,-5.7126,-5.8853,-5.9501,-6.1723,-6.3236,-6.3876,-6.5165,-6.5988,-6.6384,-6.7972,-6.8838,-6.91,-7.0735,-7.1923,-7.2643,-7.2042,-7.1093,-7.0005,-6.8983,-6.7404,-6.5474,-6.3782,-6.2204,-6.0627,-5.8165,-5.5972,0.0,0.0,-5.4934,-5.6242,-5.7011,-5.6973,-5.5566,-5.0483,-4.8769,0.0,-4.9182,-4.9898,0.0,0.0,-5.7482,-6.0013,-6.4117,-6.5157,-6.587,-6.8098,-6.9991,-7.1701,-7.3122,-7.3838,-7.4655,0.0,-7.6386,-7.6245,-7.5361,-7.4399,-7.2976,-7.0783,-7.009,-6.9744,-6.9706,-6.8783,-6.7859,-6.7128,-6.6667,-6.6244,-6.5897,-6.4589,-6.3666,-6.3308,-6.2012,-6.1166,-6.0781,-6.0781,-6.0781,-6.0781,-6.0781,-6.0647,-6.0378,-6.0378,-6.0146,-5.955,-5.7354,-5.6261,-5.5899,-5.4328,-5.3518,-5.3203,-5.3203,-5.3203,-5.3188,-5.2821,-5.1903,-5.0765,0.0,0.0,0.0,0.0,0.0,0.0,0.0,0.0,0.0,0.0,0.0,0.0,0.0,0.0,0.0,0.0,0.0,0.0,0.0,-4.4975,-4.9397,-5.3857,-5.6282,-5.8164,-5.9575,-6.1795,-6.3302,-6.3907,-6.5422,-6.6145,-6.6182,-6.7567,-6.8465,-6.8972,-7.0146,-7.1101,-7.1782,-7.097,-6.9932,-6.8782,-6.7692,-6.6057,-6.4012,-6.1858,-5.9319,-5.6665,-5.4934,-5.2933,0.0,0.0,-5.0818,-5.2202,-5.301,-5.3356,-5.2738,-4.9094,-4.9132,-5.0723,-5.2422,0.0,0.0,-5.9213,-6.3328,-6.6646,-6.6955,-6.853,-7.0359,-7.1712,-7.277,-7.3673,-7.4538,-7.4079,0.0,-7.4809,-7.4659,-7.4267,-7.3852,-7.2251,-7.0283,-6.7975,-6.632,-6.5936,-6.7475,-6.6859,-6.632,-6.6051,-6.5743,-6.5551,-6.5551,-6.4589,-6.382,-6.332,-6.2127,-6.1281,-6.0781,-6.0781,-6.0781,-6.0781,-6.0781,-6.0533,-6.0103,-5.9839,-5.9412,-5.8782,-5.68,-5.5871,-5.5666,-5.4128,-5.3387,-5.3203,-5.3203,-5.3203,-5.3167,-5.2968,-5.2013,-5.0802,0.0,0.0,0.0,0.0,0.0,0.0,0.0,0.0,0.0,0.0,0.0,0.0,0.0,0.0,0.0,0.0,0.0,0.0,0.0,-4.2474,-4.6507,-5.2855,-5.5192,-5.7679,-6.0507,-6.2459,-6.39,-6.4763,-6.5927,-6.6465,-6.6502,-6.7337,-6.8155,-6.8898,-6.8972,-6.9412,-7.0073,-6.8475,-6.79,-6.7816,-6.5388,-6.4003,-6.2974,-5.9665,-5.6319,-5.3126,-5.1433,0.0,0.0,0.0,-4.5124,-4.6018,-4.6894,-4.8856,0.0,-4.9167,-4.9123,0.0,0.0,0.0,-5.855,-6.3776,-6.7351,-7.0163,-7.252,-7.4294,-7.5325,-7.4874,-7.4214,-7.3536,-7.3041,-7.0631,-6.9325,-7.1251,-7.0887,-7.0653,-7.1388,-6.9773,-6.7898,-6.6167,-6.3012,-6.132,0.0,-6.3743,-6.432,-6.3462,-6.4166,-6.4628,-6.4628,-6.5397,-6.5051,-6.3346,-6.3231,-6.2435,-6.0819,-6.0781,-6.0781,-6.0781,-6.0781,-6.0533,-6.0089,-5.9139,-5.8306,-5.7521,-5.6977,-5.5868,-5.4458,-5.4399,-5.3922,-5.3203,-5.3203,-5.3203,-5.3115,-5.2307,-5.1499,-5.0802,0.0,0.0,0.0,0.0,0.0,0.0,0.0,0.0,0.0,0.0,0.0,0.0,0.0,0.0,0.0,0.0,0.0,0.0,0.0,-4.0105,-4.4117,-4.7691,-5.2448,-5.5946,-5.8041,-6.0886,-6.2599,-6.314,-6.4067,-6.4352,-6.4053,-6.4897,-6.5448,-6.5742,-6.6292,-6.6953,-6.763,-6.6705,-6.6324,-6.6142,-6.3816,-6.2015,-6.0396,-5.7049,-5.3318,-4.9471,0.0,0.0,0.0,-4.0585,-4.07,-4.167,-4.3085,-4.3932,-4.4781,-4.6354,-4.8137,-5.0489,0.0,0.0,-6.3713,-6.8183,-7.1209,-7.3646,-7.5535,-7.6383,-7.6103,-7.3802,-7.1394,-6.9189,-6.7459,-6.4799,-6.3831,-6.6721,-6.7986,-6.8858,-6.9633,-6.9481,-6.7782,-6.3871,-6.2553,0.0,0.0,0.0,0.0,-6.3192,-6.4128,-6.4589,-6.4589,-6.5436,-6.5359,-6.4205,-6.3089,-6.2243,-6.1678,-6.1089,-6.0781,-6.0781,-6.0161,-5.9609,-5.9139,-5.8508,-5.7774,-5.6999,-5.6287,-5.539,-5.4363,-5.3812,-5.3445,-5.313,-5.2601,-5.2417,-5.2307,-5.1499,-5.0692,-4.9994,0.0,0.0,0.0,0.0,0.0,0.0,0.0,0.0,0.0,0.0,0.0,0.0,0.0,0.0,0.0,0.0,0.0,0.0,0.0,0.0,-4.0402,-4.3831,-4.7899,-5.1211,-5.3651,-5.5911,-5.7459,-5.8127,-5.9102,-5.9551,-5.955,-6.027,-6.0992,-6.1687,-6.2108,-6.2879,-6.3847,-6.3155,-6.2606,-6.2015,-5.9771,-5.78,-5.5823,-5.2556,-4.9048,0.0,0.0,0.0,0.0,-3.7469,-3.7892,-3.9031,-4.0317,-4.1812,-4.3642,-4.6471,-4.9412,-5.3198,-6.0011,-6.4181,-6.7687,-7.2283,-7.4595,-7.6026,-7.7053,-7.6393,-7.4698,-7.1468,-6.7504,-6.3922,-6.1543,-5.8445,-5.7584,-6.1494,-6.2786,-6.4246,-6.692,-6.672,-6.5473,-6.3269,-6.2362,0.0,0.0,0.0,0.0,-6.2269,-6.4051,-6.4936,-6.4628,-6.5974,-6.6244,-6.5089,-6.4012,-6.3024,-6.2101,-6.1562,-6.1089,-6.0781,-5.9855,-5.923,-5.8932,-5.8304,-5.7409,-5.6345,-5.5794,-5.4987,-5.3922,-5.3408,-5.3041,-5.2711,-5.2197,-5.183,-5.1463,-5.0655,-5.0051,-4.961,0.0,0.0,0.0,0.0,0.0,0.0,0.0,0.0,0.0,0.0,0.0,0.0,0.0,0.0,0.0,0.0,0.0,0.0,0.0,0.0,0.0,-4.1168,-4.2049,-4.4115,-4.7769,-4.8235,-4.9123,-5.0508,-5.1628,-5.2549,-5.3311,-5.3822,-5.5023,-5.678,-5.647,-5.7226,-5.8634,-5.7836,-5.6906,-5.5809,-5.3687,-5.175,-4.9744,-4.6657,0.0,0.0,0.0,0.0,0.0,0.0,0.0,0.0,0.0,-4.2532,-4.7057,-4.9656,-5.3088,-5.7813,-6.5742,-6.8605,-7.0697,-7.6026,-7.7347,-7.731,-7.7127,-7.4625,-7.1358,-6.7944,-6.2695,-5.798,0.0,0.0,-5.1007,-5.5798,-5.5972,-5.7585,-6.3578,-6.2238,-6.1659,0.0,0.0,0.0,0.0,0.0,0.0,-6.0863,0.0,-6.5436,-6.468,-6.7051,-6.7679,-6.609,-6.5936,-6.4743,-6.2332,-6.2178,-6.1654,-6.0734,-5.9839,-5.9372,-5.9284,-5.8397,-5.7116,-5.5596,-5.5596,-5.4693,-5.3203,-5.3188,-5.2711,-5.1977,-5.1903,-5.1389,-5.0655,-4.9831,-4.9537,-4.9537,0.0,0.0,0.0,0.0,0.0,0.0,0.0,0.0,0.0,0.0,0.0,0.0,0.0,0.0,0.0,0.0,0.0,0.0,0.0,0.0,0.0,0.0,0.0,0.0,-4.4316,-4.5697,-4.6991,-4.8238,-4.8524,-4.8521,-4.8187,-4.8935,-4.9418,-4.9709,-4.963,-5.0472,-5.1887,-5.0861,-5.1065,-5.193,0.0,-4.8907,-4.826,0.0,0.0,0.0,0.0,0.0,0.0,0.0,0.0,0.0,0.0,-4.6924,-5.0731,-5.478,-5.9205,-6.3943,-6.9009,-7.3193,-7.646,-7.7928,-7.8259,-7.7635,-7.5175,-7.2129,-6.8201,-6.2548,-5.6418,-5.1185,0.0,0.0,0.0,-5.2846,-5.7022,0.0,-6.422,-6.6006,0.0,0.0,0.0,-6.4105,-6.2429,-6.252,0.0,0.0,-6.331,-6.416,-6.4932,-6.7355,-6.841,-6.7769,-6.6551,-6.559,-6.4936,-6.3063,-6.1312,-5.9738,-5.9509,-5.9009,-5.8332,-5.8097,-5.7116,-5.5596,-5.5596,-5.4693,-5.313,-5.2564,-5.2197,-5.1867,-5.0675,-5.0088,-4.9794,-4.893,-4.8636,-4.8636,0.0,0.0,0.0,0.0,0.0,0.0,0.0,0.0,0.0,0.0,0.0,0.0,0.0,0.0,0.0,0.0,0.0,0.0,0.0,0.0,0.0,0.0,0.0,-3.7276,-3.8584,-3.9546,-4.0483,-4.139,-4.1721,0.0,-4.2455,-4.2992,-4.3621,-4.4347,-4.4444,-4.5168,-4.6305,-4.5645,0.0,0.0,0.0,0.0,0.0,0.0,0.0,0.0,0.0,0.0,0.0,0.0,0.0,-4.7298,-4.9799,-5.299,-5.6688,-6.141,0.0,-6.8898,-7.3303,-7.6754,-7.914,-7.914,-7.8295,-7.635,-7.2055,-6.8017,-6.3246,-5.6381,-5.0692,0.0,0.0,0.0,0.0,0.0,0.0,0.0,-6.3035,-6.4566,-6.5459,0.0,-6.6385,0.0,-6.3747,-6.4254,-6.4212,0.0,-6.4041,-6.5048,-6.5793,-6.8071,-6.8935,-6.8095,-6.7343,-6.6282,-6.4782,-6.2589,-6.0916,-5.969,-5.9152,-5.8653,-5.8267,-5.7361,-5.6455,-5.5596,0.0,-5.4363,-5.3151,-5.2344,-5.1793,-5.1353,-5.0088,-4.939,-4.8967,-4.8489,-4.8306,-4.8306,0.0,0.0,0.0,0.0,0.0,0.0,0.0,0.0,0.0,0.0,0.0,0.0,0.0,0.0,0.0,0.0,0.0,0.0,0.0,0.0,0.0,0.0,-3.1545,-3.1968,-3.2891,-3.2814,-3.3067,-3.3772,0.0,0.0,0.0,0.0,0.0,0.0,0.0,0.0,0.0,0.0,0.0,0.0,0.0,0.0,0.0,0.0,0.0,0.0,0.0,0.0,0.0,0.0,-4.7824,-5.1602,-5.5714,-5.9485,-6.3356,-6.8128,-7.0624,-7.2789,-7.7378,-7.9176,-7.9764,-7.9653,-7.7598,-7.4147,-6.8495,-6.3099,-5.7299,-5.0235,0.0,-4.2235,-4.1252,0.0,-4.266,-4.7947,0.0,-5.29,-6.0991,-6.1177,-6.2263,-6.717,-6.7263,-6.6416,-6.5106,-6.5574,-6.5133,-6.3124,-6.5135,-6.6551,-6.6821,-6.8637,-6.8993,-6.7566,-6.7875,-6.6538,-6.3308,-6.1707,-6.0597,-5.9991,-5.871,-5.8259,-5.8553,-5.6513,-5.5596,-5.5537,0.0,0.0,-5.3151,-5.2344,-5.1536,-5.0729,-4.9904,-4.9077,-4.8306,-4.8306,-4.8306,-4.8306,0.0,0.0,0.0,0.0,0.0,0.0,0.0,0.0,0.0,0.0,-2.7532,-2.6813,0.0,0.0,0.0,0.0,0.0,0.0,0.0,0.0,0.0,0.0,-3.0615,-3.1346,-3.2852,-3.2237,-3.2641,0.0,0.0,0.0,0.0,0.0,0.0,0.0,0.0,0.0,0.0,0.0,0.0,0.0,0.0,0.0,0.0,0.0,0.0,0.0,0.0,0.0,0.0,0.0,-5.0698,-5.6323,-6.0367,-6.392,-6.7467,-7.1651,-7.356,-7.4918,-7.7818,-7.9176,-7.9617,-7.8956,-7.5946,-7.1651,-6.5999,-5.8877,0.0,0.0,0.0,-3.7691,-3.8147,-3.9265,0.0,-4.75,0.0,0.0,0.0,0.0,-6.4142,0.0,0.0,0.0,0.0,0.0,0.0,0.0,0.0,0.0,-6.6822,-6.7183,-6.7321,-6.7176,-6.6641,-6.5359,-6.332,-6.1975,-6.0715,-5.9509,-5.8203,-5.779,-5.8046,-5.6375,-5.5596,-5.5537,0.0,0.0,-5.3151,-5.2344,-5.1536,-5.0729,-4.9904,-4.9077,-4.8306,-4.8306,-4.8306,-4.8306,0.0,0.0,0.0,0.0,0.0,0.0,0.0,-2.694,-2.8305,-3.1005,-3.0893,-3.0044,-2.8731,-2.7428,0.0,0.0,0.0,0.0,0.0,0.0,0.0,0.0,0.0,-3.0769,-3.1577,0.0,0.0,0.0,0.0,0.0,0.0,0.0,0.0,0.0,0.0,0.0,0.0,0.0,0.0,0.0,0.0,0.0,0.0,0.0,0.0,0.0,0.0,0.0,0.0,0.0,-4.9204,-5.5992,-6.2181,-6.6035,-6.8935,-7.2129,-7.3964,-7.5359,-7.7378,-7.8846,-7.9507,-7.8259,-7.4258,-6.8715,-6.1337,0.0,0.0,0.0,0.0,-3.6413,-3.6795,0.0,0.0,0.0,0.0,0.0,0.0,0.0,0.0,0.0,0.0,0.0,0.0,0.0,0.0,0.0,0.0,0.0,-6.6007,-6.5711,-6.5807,-6.6462,-6.482,-6.3512,-6.2666,-6.1371,-6.0288,-5.9389,-5.7679,-5.7073,-5.7299,-5.528,-5.4583,-5.4913,-5.4106,0.0,-5.3151,-5.2344,-5.1756,-5.1279,-5.0088,-4.9353,-4.893,-4.8489,-4.8306,-4.8306,0.0,0.0,0.0,0.0,0.0,0.0,0.0,-2.8283,-3.0094,-3.3489,-3.409,-3.3506,-3.1692,-2.9813,-2.8506,0.0,0.0,0.0,0.0,0.0,0.0,0.0,0.0,0.0,0.0,0.0,0.0,0.0,0.0,0.0,0.0,0.0,0.0,0.0,0.0,0.0,0.0,0.0,0.0,0.0,0.0,0.0,0.0,0.0,0.0,0.0,0.0,0.0,0.0,0.0,-4.5883,-5.1883,-5.9318,-6.453,-6.8274,-7.0367,-7.2606,-7.4735,-7.6319,-7.8002,-7.8809,-7.7011,-7.2018,-6.5411,-5.7005,-5.0288,0.0,0.0,-3.5862,-3.5826,-3.5973,0.0,0.0,0.0,0.0,0.0,0.0,0.0,0.0,0.0,0.0,0.0,0.0,0.0,0.0,0.0,0.0,0.0,-6.4659,-6.4554,-6.4681,-6.5166,-6.3066,-6.1953,-6.1953,-6.0523,-5.9609,-5.923,-5.7153,-5.6356,-5.6712,-5.4304,-5.3665,-5.4363,-5.3555,0.0,0.0,-5.2527,-5.216,-5.1867,-5.0602,-4.9904,-4.9537,-4.882,-4.8453,-4.8306,0.0,0.0,0.0,0.0,0.0,0.0,0.0,-2.7959,-3.0882,-3.4253,-3.4404,-3.4391,-3.4962,-3.2846,-3.0429,0.0,0.0,0.0,0.0,0.0,0.0,0.0,0.0,0.0,0.0,0.0,0.0,0.0,0.0,0.0,0.0,0.0,0.0,0.0,0.0,0.0,0.0,0.0,0.0,0.0,0.0,0.0,0.0,0.0,0.0,0.0,0.0,0.0,0.0,0.0,0.0,-4.3113,-4.8269,-5.6638,-6.4714,-6.5705,0.0,0.0,-7.4698,-7.6283,-7.6974,-7.4625,-6.8641,-6.1606,-5.495,0.0,0.0,-3.6032,-3.4541,-3.4247,-3.4968,-3.5298,-3.6729,0.0,0.0,0.0,0.0,0.0,0.0,0.0,0.0,0.0,0.0,0.0,0.0,0.0,0.0,0.0,0.0,-6.4177,-6.4359,-6.2962,-6.1969,-6.1473,-6.1473,-5.9698,-5.8796,-5.8756,-5.6641,-5.6081,-5.6712,-5.4304,-5.3665,-5.4363,0.0,0.0,0.0,-5.3093,-5.2674,-5.1997,-5.183,-5.0896,-4.961,-4.95,-4.8967,-4.8306,0.0,0.0,0.0,0.0,0.0,0.0,-2.6586,-2.7997,-3.0498,-3.4926,-3.5514,-3.553,-3.5493,-3.4577,-3.2545,0.0,0.0,0.0,0.0,0.0,0.0,0.0,0.0,0.0,0.0,0.0,0.0,0.0,0.0,0.0,0.0,0.0,0.0,0.0,0.0,0.0,0.0,0.0,0.0,0.0,0.0,0.0,0.0,0.0,0.0,0.0,0.0,0.0,0.0,0.0,0.0,0.0,-4.0141,-4.5553,0.0,0.0,-6.2915,-6.6843,-7.0917,-7.3193,-7.4074,-7.2642,-6.6402,-5.9074,-5.3115,0.0,0.0,-3.5128,-3.4027,-3.3917,-3.4211,-3.4674,-3.5518,0.0,0.0,0.0,0.0,0.0,0.0,0.0,0.0,0.0,0.0,0.0,0.0,0.0,0.0,0.0,0.0,-6.2167,-6.2332,-6.1456,-6.0622,-6.0205,-6.0205,-5.9197,-5.8713,-5.8676,-5.6593,-5.5757,-5.6014,-5.4106,-5.335,-5.3665,0.0,0.0,0.0,-5.3203,-5.3004,-5.2637,-5.1646,-5.0875,-5.0178,-4.9187,-4.86,-4.8306,0.0,0.0,0.0,0.0,0.0,-2.485,-2.6806,-2.7789,-2.9898,-3.4329,-3.4911,-3.4963,-3.5102,-3.4423,-3.2769,-2.9737,0.0,0.0,0.0,0.0,0.0,0.0,0.0,0.0,0.0,0.0,0.0,-3.2891,0.0,0.0,0.0,0.0,0.0,0.0,0.0,0.0,0.0,0.0,0.0,0.0,0.0,0.0,0.0,0.0,0.0,0.0,0.0,0.0,0.0,0.0,0.0,0.0,0.0,0.0,0.0,0.0,-5.6345,-6.0896,-6.5888,-6.8935,-7.0403,-6.9119,-6.322,-5.6308,0.0,0.0,-3.8138,-3.4541,-3.3807,-3.3807,-3.3807,-3.4284,-3.4711,0.0,0.0,-3.6802,0.0,0.0,0.0,0.0,0.0,0.0,0.0,0.0,0.0,0.0,0.0,0.0,0.0,-6.0484,-6.0427,-6.0134,-5.9495,-5.9176,-5.9176,-5.8753,-5.8354,-5.8132,-5.6418,-5.5464,-5.5207,-5.3849,-5.3203,-5.3203,0.0,0.0,0.0,-5.3203,-5.3203,-5.3057,-5.1683,-5.1022,-5.0618,-4.9224,-4.8526,-4.8306,0.0,0.0,0.0,0.0,0.0,0.0,0.0,-2.7055,-2.926,-3.1965,-3.1819,-3.2154,-3.3993,-3.1968,-3.0423,-3.0385,0.0,0.0,0.0,0.0,0.0,0.0,0.0,0.0,0.0,0.0,-3.1231,-3.2891,-3.2891,-3.2668,0.0,0.0,0.0,0.0,0.0,0.0,0.0,0.0,0.0,0.0,0.0,0.0,0.0,0.0,0.0,0.0,0.0,0.0,0.0,0.0,0.0,0.0,0.0,0.0,0.0,0.0,-4.9958,-5.6345,-5.9612,-6.3466,-6.5962,-6.3503,-5.8621,-5.2968,0.0,0.0,-3.6831,-3.4321,-3.3807,-3.3807,-3.3807,-3.3807,-3.4064,-3.4857,-3.5716,0.0,0.0,0.0,0.0,0.0,0.0,0.0,0.0,0.0,0.0,0.0,0.0,0.0,0.0,-5.9648,-5.9079,-5.875,-5.8733,-5.8733,-5.8733,-5.8238,-5.7593,-5.6822,-5.5978,-5.517,-5.4363,-5.3592,-5.3203,0.0,0.0,0.0,0.0,-5.3203,-5.3203,-5.3093,-5.2307,-5.1499,-5.0692,-4.9904,-4.904,-4.8306,0.0,0.0,0.0,0.0,0.0,0.0,0.0,-2.5105,-2.6256,-2.8398,-2.8532,-2.9169,-3.119,-3.0138,-2.9596,-3.034,0.0,0.0,0.0,0.0,0.0,0.0,0.0,0.0,0.0,0.0,-3.307,-3.3782,-3.456,-3.4595,-3.3921,-3.366,0.0,0.0,0.0,0.0,0.0,0.0,0.0,0.0,0.0,0.0,0.0,0.0,0.0,0.0,0.0,0.0,0.0,0.0,0.0,0.0,0.0,0.0,0.0,-3.5665,0.0,0.0,-5.1977,-5.4363,-5.5574,-5.4803,-5.1169,-4.6874,-4.3424,-3.9077,-3.5261,-3.3353,-3.2522,-3.2339,-3.2889,-3.2986,-3.361,-3.5569,-3.6119,0.0,0.0,0.0,0.0,0.0,0.0,0.0,0.0,0.0,0.0,0.0,0.0,0.0,0.0,0.0,-5.8874,-5.8253,-5.8216,-5.7958,-5.7405,-5.7242,-5.6785,-5.5978,-5.517,-5.4656,-5.4363,-5.3592,0.0,0.0,0.0,0.0,0.0,-5.2601,-5.2711,-5.2983,-5.1096,-5.0545,-5.0618,-4.9224,-4.8526,-4.8306,0.0,0.0,0.0,0.0,0.0,0.0,0.0,-2.419,-2.4755,-2.6309,-2.6252,-2.6931,-2.9292,-2.8838,-2.8868,-3.0152,0.0,0.0,0.0,0.0,0.0,0.0,0.0,0.0,0.0,-3.2548,-3.3355,-3.4057,-3.5057,-3.5375,-3.4996,-3.5114,-3.4117,-3.2278,-3.1164,0.0,0.0,0.0,0.0,0.0,0.0,0.0,-3.0503,0.0,0.0,0.0,0.0,0.0,0.0,0.0,0.0,0.0,0.0,0.0,0.0,0.0,-3.5349,-3.9879,0.0,-4.6507,-4.7682,-4.7976,-4.5223,0.0,0.0,-3.6802,-3.372,-3.2412,-3.1751,-3.1544,-3.2045,-3.2412,-3.3096,-3.4651,-3.5422,0.0,0.0,0.0,0.0,0.0,0.0,0.0,0.0,0.0,0.0,0.0,0.0,0.0,0.0,0.0,-5.851,-5.8033,-5.7703,-5.7299,-5.6822,-5.6492,-5.5941,-5.5133,-5.462,-5.4252,-5.3922,-5.3424,0.0,0.0,0.0,0.0,0.0,-5.2674,-5.2564,-5.2564,-5.0765,-5.0178,-5.0215,-4.9187,-4.86,-4.8343,0.0,0.0,0.0,0.0,0.0,0.0,0.0,0.0,-2.4552,-2.5482,-2.4923,-2.5481,-2.8053,-2.7832,-2.8127,-2.9695,0.0,0.0,0.0,0.0,0.0,0.0,0.0,0.0,-3.1621,-3.1725,-3.2401,-3.3713,-3.4674,-3.532,-3.569,-3.6534,-3.5871,-3.3917,-3.2278,-3.1017,-3.0099,-3.0099,-2.9684,-2.906,-2.9794,-2.9647,0.0,0.0,0.0,0.0,0.0,0.0,0.0,0.0,0.0,0.0,0.0,0.0,0.0,0.0,0.0,0.0,0.0,-3.9717,0.0,0.0,0.0,0.0,0.0,-3.4651,0.0,-3.1458,-3.1286,-3.1323,-3.1544,-3.2082,-3.2656,-3.306,0.0,0.0,0.0,0.0,0.0,0.0,0.0,0.0,0.0,0.0,0.0,0.0,0.0,0.0,0.0,0.0,-5.7997,-5.7997,-5.7152,-5.6712,-5.6712,-5.5978,-5.517,-5.4326,-5.4326,-5.3922,-5.3203,-5.3203,0.0,0.0,0.0,0.0,0.0,-5.2983,-5.2527,-5.183,-5.0949,-5.0178,-4.961,-4.961,-4.904,-4.8416,0.0,0.0,0.0,0.0,0.0,0.0,0.0,0.0,0.0,0.0,-2.4404,-2.4642,-2.5574,-2.6102,-2.6661,0.0,0.0,0.0,0.0,0.0,0.0,0.0,0.0,0.0,-3.0731,-3.1806,-3.2546,-3.282,-3.5141,-3.6646,-3.7365,-3.8588,-3.7934,-3.5642,-3.399,-3.1751,-2.928,-2.928,-2.917,-2.9023,-2.9207,-2.917,0.0,0.0,0.0,0.0,-2.9207,-2.9794,0.0,0.0,0.0,0.0,0.0,0.0,0.0,0.0,-2.9574,-2.9831,-3.0968,0.0,-3.399,-3.4187,-3.3673,-3.3086,0.0,-3.1751,-3.0723,-3.0503,0.0,-3.032,-3.2779,-3.2375,-3.3109,0.0,0.0,0.0,0.0,0.0,0.0,0.0,0.0,0.0,0.0,0.0,0.0,0.0,0.0,0.0,0.0,0.0,-5.7997,-5.7997,-5.6602,-5.5868,-5.5868,-5.5684,-5.4876,-5.3482,-5.3482,-5.3408,-5.3203,-5.3203,0.0,0.0,0.0,0.0,-5.2197,-5.0949,-5.0692,-5.0949,-4.9481,-4.9187,-4.961,-4.961,-4.904,-4.8416,0.0,0.0,0.0,0.0,0.0,0.0,0.0,0.0,0.0,0.0,0.0,0.0,0.0,0.0,0.0,0.0,0.0,0.0,0.0,0.0,0.0,0.0,0.0,-3.1239,-3.0235,-3.1744,-3.2615,-3.2741,-3.5376,-3.7222,-3.8307,-3.9774,-3.9166,-3.6721,-3.393,-3.1311,-2.8987,-2.8987,-2.8987,-2.8987,-2.8987,0.0,0.0,0.0,0.0,0.0,-2.8987,-2.95,0.0,-3.021,-3.021,-3.021,0.0,0.0,0.0,0.0,-2.8987,-2.8987,-2.8987,-3.0173,-3.1507,-3.1861,-3.1678,-3.1507,-3.1861,0.0,0.0,0.0,0.0,0.0,0.0,0.0,0.0,0.0,0.0,0.0,0.0,0.0,0.0,0.0,0.0,0.0,0.0,0.0,0.0,0.0,0.0,0.0,0.0,0.0,-5.7262,-5.6895,-5.6051,-5.5596,-5.5596,-5.4876,-5.4069,-5.3203,-5.3203,-5.3203,-5.3188,-5.2821,0.0,0.0,0.0,0.0,-5.1389,-5.0508,-5.0178,-5.0141,-4.926,-4.893,-4.904,-4.9463,-4.904,-4.8416,0.0,0.0,0.0,0.0,0.0,0.0,0.0,0.0,0.0,0.0,0.0,0.0,0.0,0.0,0.0,0.0,0.0,0.0,0.0,0.0,0.0,0.0,0.0,-3.1156,-3.038,-3.1599,-3.2572,-3.3173,-3.5552,-3.7391,-3.8726,-4.0598,-3.9974,-3.7162,-3.3306,-3.0613,-2.8987,-2.8987,-2.8987,-2.8987,-2.8987,0.0,0.0,0.0,0.0,0.0,0.0,0.0,0.0,-3.0026,-3.0026,-3.0026,-3.0026,0.0,0.0,0.0,0.0,0.0,-2.9133,-3.0467,-3.1788,-3.1995,-3.1825,-3.1715,-3.2142,0.0,0.0,0.0,0.0,0.0,0.0,0.0,0.0,0.0,0.0,0.0,0.0,0.0,0.0,0.0,0.0,0.0,0.0,0.0,0.0,0.0,0.0,0.0,0.0,0.0,0.0,-5.5611,-5.5464,-5.5427,-5.5427,-5.4069,-5.3314,-5.3203,-5.3203,-5.3203,-5.3167,-5.238,-5.1977,0.0,0.0,0.0,-5.0618,-5.0472,-5.0031,-4.939,-4.939,-4.893,-4.8416,-4.928,-4.904,-4.8416,0.0,0.0,0.0,0.0,0.0,0.0,0.0,0.0,0.0,0.0,0.0,0.0,0.0,0.0,0.0,0.0,0.0,0.0,0.0,0.0,0.0,-3.0385,-3.0538,-3.1098,-3.2102,-3.1479,-3.2087,-3.4029,-3.6256,-3.7831,-3.8762,-4.1735,-4.0744,-3.6376,-3.3623,-3.1152,-2.8987,-2.8987,-2.8987,-2.8987,-2.8987,0.0,0.0,0.0,0.0,0.0,0.0,0.0,0.0,-2.917,-2.917,-2.917,-2.917,0.0,0.0,0.0,0.0,0.0,-2.9831,-3.1678,-3.2816,-3.0198,-3.1005,-3.2069,-3.087,0.0,0.0,0.0,0.0,0.0,0.0,0.0,0.0,0.0,0.0,0.0,0.0,0.0,0.0,0.0,0.0,0.0,0.0,0.0,0.0,0.0,0.0,0.0,0.0,0.0,0.0,-5.5596,-5.495,-5.4583,-5.4583,-5.4326,-5.3885,-5.3203,-5.3203,-5.3203,-5.3167,-5.238,-5.1977,0.0,0.0,-4.9794,-4.9721,-4.9003,-4.86,-4.8489,-4.8489,-4.8416,-4.8416,-4.928,-4.904,-4.8343,0.0,0.0,0.0,0.0,0.0,0.0,0.0,0.0,0.0,0.0,0.0,0.0,0.0,0.0,0.0,0.0,0.0,0.0,0.0,0.0,0.0,-3.0379,-3.0581,-3.098,-3.1631,-3.2439,-3.3665,-3.5333,-3.8103,-3.9863,-4.0634,-4.0393,-3.8374,-3.4835,-3.2375,-3.0454,-2.8987,-2.8987,-2.8987,-2.8987,0.0,0.0,0.0,0.0,0.0,0.0,0.0,0.0,0.0,0.0,-2.8987,-2.8987,-2.8987,0.0,0.0,0.0,0.0,0.0,-2.9464,-3.1017,-3.2045,-3.0136,-3.2142,-3.4174,-3.2522,-3.2412,0.0,0.0,0.0,0.0,0.0,0.0,0.0,0.0,0.0,0.0,0.0,0.0,0.0,0.0,0.0,0.0,0.0,0.0,0.0,0.0,0.0,0.0,0.0,0.0,0.0,0.0,-5.3702,-5.3555,-5.3115,-5.3518,-5.3592,-5.3203,-5.3203,-5.3203,-5.3188,-5.1903,-5.1353,-5.1242,0.0,-4.8893,-4.8857,-4.8489,-4.8306,-4.8306,-4.8306,-4.8306,-4.8343,-4.8746,-4.8636,-4.8306,0.0,0.0,0.0,0.0,0.0,0.0,0.0,0.0,0.0,0.0,0.0,0.0,0.0,0.0,0.0,0.0,0.0,0.0,0.0,0.0,-3.0109,-3.0286,-3.053,-3.0979,-3.1723,-3.3692,-3.5417,-3.6853,-3.9701,-4.1425,-4.1956,-3.8924,-3.617,-3.3697,-3.1458,-2.9953,-2.8987,-2.8987,-2.8987,-2.8987,0.0,0.0,0.0,0.0,0.0,0.0,0.0,0.0,0.0,0.0,0.0,0.0,0.0,0.0,0.0,-2.8987,-2.8987,-2.9023,-2.9244,-3.032,-3.1213,-3.0393,0.0,-3.5238,-3.4541,-3.4394,0.0,0.0,0.0,0.0,0.0,0.0,0.0,0.0,0.0,0.0,0.0,0.0,0.0,0.0,0.0,0.0,0.0,0.0,0.0,0.0,0.0,0.0,0.0,0.0,0.0,0.0,-5.2344,-5.2344,-5.172,-5.2527,-5.3004,-5.3203,-5.3203,-5.3093,-5.2894,-5.1463,-5.0692,-5.0435,-4.8967,-4.8306,-4.8306,-4.8306,-4.8306,-4.8306,-4.8306,-4.8306,-4.8306,-4.8306,-4.8306,-4.8306,0.0,0.0,0.0,0.0,0.0,0.0,0.0,0.0,0.0,0.0,0.0,0.0,0.0,0.0,0.0,0.0,0.0,0.0,0.0,0.0,-3.0006,-3.0021,-2.9888,-3.1158,-3.4185,-3.4941,-3.6387,-3.8542,-4.0251,-4.1132,-4.1132,-3.8652,-3.617,-3.3733,-3.2045,-3.0467,-2.8987,-2.8987,-2.8987,-2.8987,-2.8987,0.0,0.0,0.0,0.0,0.0,0.0,0.0,0.0,0.0,0.0,0.0,0.0,0.0,-2.8987,-2.8987,-2.8987,-2.917,-2.9916,-3.0723,-3.1213,-3.0393,-3.1518,-3.344,-3.5605,-3.6119,0.0,-4.0031,0.0,0.0,0.0,0.0,0.0,0.0,0.0,0.0,0.0,0.0,0.0,0.0,0.0,0.0,0.0,0.0,0.0,0.0,0.0,0.0,0.0,0.0,0.0,0.0,0.0,-5.0949,-5.0875,-5.1683,-5.2454,-5.3203,-5.3203,-5.2821,-5.205,-5.1206,-5.0398,-4.9647,-4.871,-4.8306,-4.8306,-4.8306,-4.8306,-4.8306,-4.8306,-4.8306,-4.8306,-4.8306,-4.8306,-4.8306,0.0,0.0,0.0,0.0,0.0,0.0,0.0,0.0,0.0,0.0,0.0,0.0,0.0,0.0,0.0,0.0,0.0,0.0,0.0,-2.9846,-2.9869,-2.9999,-3.0001,-3.0878,-3.2783,-3.4002,-3.5499,-3.7221,-3.8836,-3.935,-3.8799,-3.6853,-3.4894,-3.2999,-3.1384,-3.032,-2.9721,-2.9207,-2.928,-2.9684,-2.9207,-2.8987,0.0,0.0,0.0,0.0,0.0,0.0,0.0,0.0,-2.8656,-2.8338,0.0,-2.8987,-2.8987,-2.8987,-2.8987,-2.906,-2.9354,-3.0393,-3.1213,-3.0393,-3.1421,0.0,0.0,-3.7074,-3.9166,-4.1405,-4.28,0.0,0.0,0.0,0.0,0.0,0.0,0.0,0.0,0.0,0.0,0.0,0.0,0.0,0.0,0.0,0.0,0.0,0.0,0.0,0.0,0.0,0.0,0.0,0.0,-5.0545,-5.0068,-5.0839,-5.1426,-5.172,-5.2747,-5.2784,-5.1977,-5.1169,-5.0362,-4.9537,-4.8673,-4.8306,-4.8306,-4.8306,-4.8306,-4.8306,-4.8306,-4.8306,-4.8306,-4.8306,-4.8306,-4.8306,0.0,0.0,0.0,0.0,0.0,0.0,0.0,0.0,0.0,0.0,0.0,0.0,0.0,0.0,0.0,0.0,0.0,0.0,-3.0235,-2.9893,-2.972,-2.9804,-2.9832,-3.0268,-3.1288,-3.2351,-3.3906,-3.5899,-3.6986,-3.711,-3.6317,-3.5165,-3.3903,-3.2546,-3.1201,-3.0577,-3.0503,-2.9464,-2.9317,-2.9757,-2.9207,-2.8987,0.0,0.0,0.0,0.0,0.0,0.0,0.0,0.0,-2.8044,0.0,0.0,0.0,0.0,-2.8987,-2.8803,-2.862,-2.862,-2.9439,-3.0173,-2.9916,0.0,0.0,-3.5628,-3.8102,-4.0708,-4.3608,-4.5112,0.0,0.0,0.0,0.0,0.0,0.0,0.0,0.0,0.0,0.0,0.0,0.0,0.0,0.0,0.0,0.0,0.0,0.0,0.0,0.0,0.0,0.0,0.0,0.0,0.0,-4.9187,-4.9994,-5.0398,-5.0435,-5.1793,-5.2013,-5.1226,-5.0655,-4.9958,-4.917,-4.8563,-4.8306,-4.8306,-4.8306,-4.8306,-4.8306,-4.8306,-4.8159,-4.7976,-4.8233,-4.7976,-4.7609,0.0,0.0,0.0,0.0,0.0,0.0,0.0,0.0,0.0,0.0,0.0,0.0,0.0,0.0,0.0,0.0,0.0,0.0,-3.0013,-2.9813,-2.9616,-2.9394,-2.9145,-2.9354,-3.0173,-3.021,-3.1739,-3.4968,-3.4968,-3.4564,-3.3807,-3.3807,-3.3366,-3.2546,-3.1751,-3.1397,-3.1286,-2.9684,-2.8987,-2.9023,-2.9023,-2.9023,-2.8913,0.0,0.0,0.0,0.0,0.0,0.0,0.0,-2.7126,-2.7798,0.0,0.0,0.0,-2.8987,-2.8448,-2.7798,-2.7798,-2.7824,-2.8007,0.0,0.0,0.0,-3.7808,-3.935,-4.1515,-4.7131,0.0,0.0,0.0,0.0,0.0,0.0,0.0,0.0,0.0,0.0,0.0,0.0,0.0,0.0,0.0,0.0,0.0,0.0,0.0,0.0,0.0,0.0,0.0,0.0,0.0,0.0,-4.8269,-4.9114,-4.9574,-4.961,-5.0398,-5.0362,-4.961,-4.961,-4.9114,-4.8306,-4.8306,-4.8306,-4.8306,-4.8306,-4.8306,-4.8306,-4.8306,-4.781,-4.7186,-4.7993,-4.7278,-4.614,0.0,0.0,0.0,0.0,0.0,0.0,0.0,0.0,0.0,0.0,0.0,0.0,0.0,0.0,0.0,0.0,0.0,0.0,-2.9209,-2.8973,-2.8741,-2.8482,-2.8281,-2.8521,-2.9354,-2.9354,-3.0381,-3.2485,-3.2485,-3.2632,-3.2963,-3.355,-3.3073,-3.1751,-3.2118,-3.1641,-3.0503,-2.9427,-2.9317,-2.9831,-2.9831,-2.95,-2.8987,0.0,0.0,0.0,0.0,0.0,0.0,0.0,0.0,0.0,0.0,0.0,0.0,-2.884,-2.8448,-2.7934,-2.8473,-2.9072,0.0,-3.1188,0.0,0.0,0.0,-4.1001,0.0,0.0,0.0,0.0,0.0,0.0,0.0,0.0,0.0,0.0,0.0,0.0,0.0,0.0,0.0,0.0,0.0,0.0,0.0,0.0,0.0,0.0,0.0,0.0,0.0,0.0,0.0,0.0,-4.6617,-4.7425,-4.7865,-4.7865,-4.8956,-4.9492,-4.961,-4.961,-4.9114,-4.8306,-4.8306,-4.8306,-4.8306,-4.8306,-4.8306,-4.8306,-4.8306,-4.781,-4.7113,-4.7369,-4.6801,-4.5957,0.0,0.0,0.0,0.0,0.0,0.0,0.0,0.0,0.0,0.0,0.0,0.0,0.0,0.0,0.0,0.0,0.0,0.0,0.0,-2.9079,-2.8891,-2.8631,-2.8381,-2.8521,-2.8987,-2.8987,-2.9464,-3.0467,-3.0467,-3.0675,-3.1225,-3.2963,-3.3109,-3.1898,-3.2706,-3.2362,-3.1054,-2.961,-2.928,-2.9757,-3.0063,-2.9721,-2.8987,0.0,0.0,0.0,0.0,0.0,0.0,0.0,0.0,0.0,0.0,0.0,0.0,-2.7996,-2.7493,-2.7027,-2.7813,-2.8877,0.0,-3.2106,0.0,0.0,0.0,0.0,0.0,0.0,0.0,0.0,0.0,0.0,0.0,0.0,0.0,0.0,0.0,0.0,0.0,0.0,0.0,0.0,0.0,0.0,0.0,0.0,0.0,0.0,0.0,0.0,0.0,0.0,0.0,0.0,-4.5883,-4.6524,-4.6834,-4.6834,-4.7702,-4.8289,-4.8578,-4.8892,-4.8842,-4.8513,-4.8015,-4.8012,-4.8269,-4.7957,-4.8012,-4.8269,-4.7976,-4.7333,-4.6599,-4.6599,-4.592,-4.5039,0.0,0.0,0.0,0.0,0.0,0.0,0.0,0.0,0.0,0.0,0.0,0.0,0.0,0.0,0.0,0.0,0.0,0.0,0.0,0.0,-2.9428,-2.9292,-2.9108,-2.8987,-2.8987,-2.8987,-2.8987,-2.8987,-2.8987,-2.8987,-2.906,-3.2228,-3.3183,-3.2326,-3.3256,-3.3146,-3.2142,-2.9941,-2.8987,-2.906,-2.9879,-2.9721,-2.8913,-2.8264,0.0,0.0,0.0,0.0,0.0,0.0,0.0,0.0,0.0,-2.7163,-2.7567,-2.6906,-2.6098,-2.5595,-2.6576,0.0,0.0,0.0,0.0,0.0,0.0,0.0,0.0,0.0,0.0,0.0,0.0,0.0,0.0,0.0,0.0,0.0,0.0,0.0,0.0,0.0,0.0,0.0,0.0,0.0,0.0,0.0,0.0,0.0,0.0,0.0,0.0,0.0,0.0,0.0,-4.5663,-4.6049,-4.6264,0.0,-4.6786,-4.7023,-4.7089,-4.7792,-4.8288,-4.86,-4.7517,-4.7481,-4.8122,-4.7406,-4.7516,-4.8122,-4.7369,-4.6562,-4.5773,-4.5773,-4.4819,-4.3735,0.0,0.0,0.0,0.0,0.0,0.0,0.0,0.0,0.0,0.0,0.0,0.0,0.0,0.0,0.0,0.0,0.0,0.0,0.0,0.0,-2.7959,-2.837,-2.8787,-2.8987,-2.8987,-2.8987,-2.8987,-2.8987,-2.8987,-2.8987,-2.906,-3.1665,-3.1739,-2.9867,-3.1922,-3.1702,-2.9757,-2.9207,-2.8987,-2.906,-2.9879,-2.9721,-2.906,-2.9512,-2.8521,0.0,0.0,0.0,0.0,0.0,0.0,0.0,-2.7346,-2.7236,-2.6943,-2.742,-2.6513,-2.5852,0.0,-2.873,0.0,0.0,0.0,0.0,0.0,0.0,0.0,0.0,0.0,0.0,0.0,0.0,0.0,0.0,0.0,0.0,0.0,0.0,0.0,0.0,0.0,0.0,0.0,0.0,0.0,0.0,0.0,0.0,0.0,0.0,0.0,0.0,0.0,-4.4029,-4.4029,-4.4686,-4.5204,0.0,-4.6515,-4.7135,-4.7402,-4.7284,-4.7132,-4.6929,-4.6645,-4.685,-4.7333,-4.7186,-4.7186,-4.7333,-4.7186,-4.6232,-4.4966,-4.4966,-4.4342,-4.3551,0.0,0.0,0.0,0.0,0.0,0.0,0.0,0.0,0.0,0.0,0.0,0.0,0.0,0.0,0.0,0.0,0.0,0.0,0.0,0.0,-2.804,-2.8503,-2.882,-2.8987,-2.8987,-2.8987,-2.8987,-2.8987,-2.8987,-2.9207,-2.961,-3.2045,-3.2509,-3.1335,-3.2619,-3.2252,-3.0638,-2.95,-2.8987,-2.906,-2.9879,-2.9721,-2.906,-2.9464,-2.8631,-2.7053,-2.6282,0.0,0.0,0.0,0.0,0.0,0.0,0.0,-2.6686,-2.709,-2.6612,-2.6245,0.0,0.0,0.0,0.0,0.0,0.0,0.0,0.0,0.0,0.0,0.0,0.0,0.0,0.0,0.0,0.0,0.0,0.0,0.0,0.0,0.0,0.0,0.0,0.0,0.0,0.0,0.0,0.0,0.0,0.0,0.0,0.0,0.0,0.0,-4.3515,-4.3515,-4.3515,-4.407,-4.4544,-4.4913,-4.5696,-4.6282,-4.6623,-4.7034,-4.6895,-4.6327,-4.6194,-4.636,-4.6739,-4.6333,-4.6321,-4.6489,-4.6085,-4.5425,-4.4654,-4.4268,-4.3864,-4.3515,0.0,0.0,0.0,0.0,0.0,0.0,0.0,0.0,0.0,0.0,0.0,0.0,0.0,0.0,0.0,0.0,0.0,0.0,0.0,0.0,0.0,-2.8832,-2.8936,-2.8987,-2.8987,-2.8987,-2.8987,-2.8987,-2.8987,-2.961,-3.087,-3.2706,-3.3587,-3.3587,-3.3587,-3.3073,-3.2032,-2.9904,-2.8987,-2.906,-2.9721,-2.9574,-2.8987,-2.8987,-2.8521,-2.7614,-2.6292,-2.5815,-2.5815,-2.5815,0.0,0.0,0.0,0.0,-2.6602,-2.6602,-2.6382,-2.6245,0.0,0.0,0.0,0.0,0.0,0.0,0.0,0.0,0.0,0.0,0.0,0.0,0.0,0.0,0.0,0.0,0.0,0.0,0.0,0.0,0.0,0.0,0.0,0.0,0.0,0.0,0.0,0.0,0.0,0.0,0.0,0.0,-4.3094,-4.3094,-4.3204,-4.3328,-4.3359,-4.3791,-4.4233,-4.4701,-4.5011,-4.5313,-4.5624,-4.6689,-4.6778,-4.6062,-4.5748,-4.5819,-4.6148,-4.543,-4.5332,-4.5626,-4.4966,-4.4635,-4.4415,-4.3754,-4.3515,-4.3515,0.0,0.0,0.0,0.0,0.0,0.0,0.0,0.0,0.0,0.0,0.0,0.0,0.0,0.0,0.0,0.0,0.0,0.0,-2.9384,0.0,0.0,-2.8237,-2.8728,-2.8987,-2.8987,-2.8987,-2.8987,-2.8987,-2.8987,-3.0491,-3.3293,-3.2949,-3.2766,-3.2766,-3.2766,-3.1935,-3.0467,-2.9427,-2.8987,-2.9023,-2.9133,-2.9097,-2.8987,-2.8987,-2.8521,-2.7761,-2.7578,-2.7467,-2.7467,-2.7467,-2.7934,0.0,0.0,0.0,-2.6602,-2.6602,-2.5621,-2.4814,0.0,0.0,0.0,0.0,0.0,0.0,0.0,0.0,0.0,0.0,0.0,0.0,0.0,0.0,0.0,0.0,0.0,0.0,0.0,0.0,0.0,0.0,0.0,0.0,0.0,0.0,0.0,0.0,0.0,0.0,0.0,-4.1425,-4.1425,-4.1425,-4.2103,-4.2595,-4.2895,-4.3632,-4.4359,-4.5022,-4.5381,-4.5559,-4.5594,-4.579,-4.5649,-4.5246,-4.4903,-4.4984,-4.5329,-4.4915,-4.4798,-4.4856,-4.4745,-4.4268,-4.3662,-4.3551,-4.3515,-4.3515,0.0,0.0,0.0,0.0,0.0,0.0,0.0,0.0,0.0,0.0,0.0,0.0,0.0,0.0,0.0,-2.5328,-2.5169,-2.5729,-2.7341,-2.7677,-2.7869,-2.7917,-2.8184,-2.8546,-2.8987,-2.8987,-2.8987,-2.8987,-2.8987,0.0,0.0,-3.3683,-3.4931,-3.6597,-3.4835,-3.3573,-3.2729,-3.0124,-2.8987,-2.8987,-2.8987,-2.873,-2.8338,-2.8338,-2.753,-2.6513,-2.6979,-2.6833,-2.6513,-2.6979,-2.7383,-2.7739,-2.8191,0.0,0.0,0.0,-2.6759,0.0,-2.6539,0.0,0.0,0.0,0.0,0.0,0.0,0.0,0.0,0.0,0.0,0.0,0.0,0.0,0.0,0.0,0.0,0.0,0.0,0.0,0.0,0.0,0.0,0.0,0.0,0.0,0.0,0.0,0.0,0.0,-4.1095,-4.1095,-4.1209,-4.1369,-4.1702,-4.2047,-4.234,-4.2701,-4.3378,-4.438,-4.47,-4.5133,-4.5594,-4.5594,-4.5532,-4.5371,-4.5011,-4.4877,-4.4815,-4.4448,-4.4309,-4.4276,-4.4115,-4.3909,-4.3791,-4.3791,-4.3791,-4.3791,0.0,0.0,0.0,0.0,0.0,0.0,0.0,0.0,0.0,0.0,0.0,0.0,0.0,0.0,0.0,0.0,-2.4478,-2.4788,-2.5622,-2.6462,-2.7195,-2.7869,-2.8015,-2.8374,-2.8987,-2.8987,-2.8987,-2.8987,0.0,0.0,-3.2619,-3.383,-3.6142,0.0,-3.7,-3.5298,0.0,0.0,0.0,-2.928,-2.884,-2.8338,-2.7798,-2.7798,-2.7064,-2.6109,-2.6906,-2.6833,-2.6366,-2.6759,-2.7053,-2.7226,-2.742,-2.7493,0.0,0.0,0.0,0.0,0.0,0.0,0.0,0.0,0.0,0.0,0.0,0.0,0.0,0.0,0.0,0.0,0.0,0.0,0.0,0.0,0.0,0.0,0.0,0.0,0.0,0.0,0.0,0.0,0.0,0.0,0.0,0.0,0.0,0.0,-4.0471,-4.0471,-4.0624,-4.0952,-4.1152,-4.1472,-4.1803,-4.2113,-4.2737,-4.3645,-4.4075,-4.4624,-4.5287,-4.5518,-4.5594,-4.5577,-4.5243,-4.4954,-4.4714,-4.4304,-4.4146,-4.4117,-4.3902,-4.3927,-4.4146,-4.4146,-4.4087,-4.3982,0.0,0.0,0.0,0.0,0.0,0.0,0.0,0.0,0.0,0.0,0.0,0.0,-2.419,-2.419,-2.453,-2.5264,-2.465,-2.4626,-2.5629,-2.6962,-2.7843,-2.807,-2.8629,0.0,-2.8987,-2.8987,-2.8987,0.0,0.0,0.0,-3.2583,-3.2693,-3.4468,-3.7639,-3.8248,-3.5936,-3.1604,0.0,0.0,0.0,0.0,0.0,-2.7798,-2.7798,-2.7761,0.0,0.0,-2.884,-2.8693,-2.797,-2.8227,-2.862,-2.7115,-2.6638,-2.6502,0.0,0.0,0.0,0.0,0.0,0.0,0.0,0.0,0.0,0.0,0.0,0.0,0.0,0.0,0.0,0.0,0.0,0.0,0.0,0.0,0.0,0.0,0.0,0.0,0.0,0.0,0.0,0.0,0.0,0.0,0.0,0.0,0.0,-3.8836,-3.8836,-3.8944,-3.9229,-3.996,-4.0666,-4.132,-4.2486,-4.3052,-4.3145,-4.3923,-4.4316,-4.4393,-4.521,-4.5594,-4.5577,-4.5243,-4.5105,-4.5033,-4.4726,-4.4585,-4.4585,-4.4559,-4.4572,-4.4585,-4.4585,-4.4318,-4.3982,0.0,0.0,0.0,0.0,0.0,0.0,0.0,0.0,0.0,0.0,0.0,0.0,0.0,-2.453,-2.453,-2.5338,-2.4677,-2.4348,-2.4718,-2.5213,-2.5815,-2.6544,-2.7153,-2.7753,-2.8429,-2.882,-2.8987,0.0,0.0,-2.9721,-3.1091,-3.2106,-3.2669,-3.2852,-3.4211,-3.41,-3.2816,-3.1041,0.0,0.0,0.0,0.0,0.0,0.0,0.0,0.0,0.0,0.0,0.0,-2.7714,-2.797,-2.8044,-2.6932,-2.6602,-2.6429,-2.5631,-2.5191,0.0,0.0,0.0,0.0,0.0,0.0,0.0,0.0,0.0,0.0,0.0,0.0,0.0,0.0,0.0,0.0,0.0,0.0,0.0,0.0,0.0,0.0,0.0,0.0,0.0,0.0,0.0,0.0,0.0,0.0,0.0,-3.7401,-3.8061,-3.8339,-3.8083,-3.8877,-3.9295,-3.9197,-4.0668,-4.1439,-4.1439,-4.2277,-4.3008,-4.3547,-4.3855,-4.4008,-4.4008,-4.442,-4.4786,-4.5055,-4.4751,-4.4739,-4.4896,-4.4701,-4.4739,-4.4896,-4.4688,-4.4495,-4.4346,0.0,0.0,0.0,0.0,0.0,0.0,0.0,0.0,0.0,-2.419,0.0,0.0,0.0,0.0,-2.453,-2.5338,-2.5154,-2.4926,-2.4709,-2.5217,-2.5727,-2.6175,-2.7121,-2.7927,-2.8507,-2.864,0.0,0.0,0.0,0.0,0.0,-3.0895,-3.0968,-3.0246,-3.1041,-3.1702,0.0,0.0,0.0,-2.8913,0.0,0.0,-2.7336,0.0,0.0,0.0,0.0,0.0,0.0,0.0,0.0,-2.7614,-2.6539,-2.6025,-2.5695,-2.5154,0.0,0.0,-2.4337,0.0,0.0,0.0,0.0,0.0,0.0,0.0,0.0,0.0,0.0,0.0,0.0,0.0,0.0,0.0,0.0,0.0,0.0,0.0,0.0,0.0,0.0,0.0,0.0,0.0,0.0,0.0,0.0,0.0,-3.6576,-3.7243,-3.7558,-3.7375,-3.8126,-3.8358,-3.8007,-3.9084,-3.9823,-4.0092,-4.0969,-4.1816,-4.2662,-4.297,-4.3085,-4.3124,-4.3662,-4.4267,-4.4822,-4.4908,-4.5055,-4.5243,-4.5022,-4.5055,-4.5243,-4.5011,-4.4872,-4.4739,0.0,0.0,0.0,0.0,0.0,0.0,0.0,0.0,-2.419,-2.419,0.0,0.0,0.0,0.0,0.0,-2.5374,-2.6156,-2.6368,-2.5773,-2.7205,-2.781,-2.7234,-2.8781,-2.9579,-2.9367,0.0,0.0,0.0,0.0,0.0,0.0,0.0,-2.9427,-3.0136,-2.9354,-2.8987,-2.9133,0.0,-3.1152,-2.8877,0.0,-2.7556,-2.895,0.0,0.0,0.0,-3.098,-3.0797,0.0,0.0,0.0,0.0,0.0,0.0,0.0,0.0,0.0,0.0,0.0,0.0,0.0,0.0,0.0,0.0,0.0,0.0,0.0,0.0,0.0,0.0,0.0,0.0,0.0,0.0,0.0,0.0,0.0,0.0,0.0,0.0,0.0,0.0,0.0,0.0,0.0,0.0,0.0,-3.6244,-3.6244,-3.6236,-3.6504,-3.7052,-3.764,-3.7969,-3.793,-3.7969,-3.8392,-3.9246,-4.0054,-4.0893,-4.1731,-4.2585,-4.3008,-4.3008,-4.3047,-4.3508,-4.4278,-4.5171,-4.5556,-4.5556,-4.5556,-4.5594,-4.5594,-4.5586,-4.539,-4.5115,0.0,0.0,0.0,0.0,0.0,0.0,0.0,-2.419,-2.419,0.0,0.0,0.0,-2.5007,-2.5708,-2.618,-2.6266,-2.6767,-2.6929,-2.6581,-2.7169,-2.7436,-2.7196,-2.824,-2.8764,-2.8677,0.0,0.0,0.0,0.0,0.0,0.0,0.0,0.0,0.0,-2.9097,-2.8693,-2.8227,-2.9464,0.0,0.0,-2.7897,-2.7714,0.0,0.0,0.0,0.0,0.0,-2.8643,-2.8411,0.0,-2.7798,-2.7541,0.0,0.0,0.0,0.0,0.0,0.0,-2.4373,0.0,0.0,0.0,0.0,0.0,0.0,0.0,0.0,0.0,0.0,0.0,0.0,0.0,0.0,0.0,0.0,0.0,0.0,0.0,0.0,0.0,0.0,0.0,0.0,0.0,0.0,0.0,-3.4657,-3.476,-3.476,-3.5184,-3.5788,-3.6511,-3.6872,-3.6769,-3.6192,-3.7392,-3.7815,-3.743,-3.8277,-3.9161,-4.0008,-4.0239,-4.0669,-4.1247,-4.1893,-4.2277,-4.2547,-4.3431,-4.4124,-4.4662,-4.4662,-4.5056,-4.5568,-4.5351,-4.518,-4.5082,0.0,0.0,0.0,0.0,0.0,0.0,0.0,-2.4483,-2.4566,0.0,0.0,0.0,-2.5301,-2.658,-2.7344,-2.7251,-2.7821,-2.8055,-2.7692,-2.8072,-2.8167,-2.7896,-2.879,-2.9132,-2.882,0.0,0.0,0.0,0.0,0.0,0.0,0.0,0.0,0.0,0.0,0.0,0.0,0.0,0.0,0.0,-2.764,0.0,0.0,-2.7923,-2.8007,0.0,0.0,0.0,-2.9182,-2.8521,-2.8081,0.0,0.0,0.0,0.0,0.0,0.0,0.0,0.0,0.0,0.0,0.0,0.0,0.0,0.0,-2.419,0.0,0.0,0.0,0.0,0.0,0.0,0.0,0.0,0.0,0.0,0.0,0.0,0.0,0.0,0.0,0.0,0.0,0.0,0.0,0.0,-3.3192,-3.3251,-3.3666,-3.4254,-3.4933,-3.5772,-3.5714,-3.5622,-3.55,-3.6462,-3.6885,-3.6692,-3.7199,-3.7892,-3.8738,-3.8738,-3.9207,-4.0015,-4.0546,-4.0969,-4.1316,-4.1816,-4.2701,-4.3816,-4.4162,-4.4624,-4.5077,-4.5237,-4.5293,-4.5273,0.0,0.0,0.0,0.0,0.0,0.0,0.0,-2.486,-2.5081,0.0,-2.4476,-2.4799,-2.5608,-2.7176,-2.8185,-2.8259,-2.9045,-2.9343,-2.8927,-2.9404,-2.9485,-2.8905,-2.978,-3.0015,-2.9404,-2.8884,0.0,0.0,0.0,0.0,0.0,0.0,0.0,0.0,0.0,0.0,0.0,0.0,0.0,-2.775,-2.7016,-2.8007,0.0,0.0,-2.9696,0.0,-3.0919,-3.0993,-3.0907,-2.9464,-2.8473,0.0,0.0,0.0,0.0,0.0,-2.4917,0.0,0.0,0.0,0.0,0.0,0.0,0.0,-2.4226,-2.4263,-2.4309,0.0,0.0,0.0,0.0,0.0,0.0,0.0,0.0,0.0,0.0,0.0,0.0,0.0,0.0,0.0,0.0,0.0,-3.1492,-3.2545,-3.1908,-3.1873,-3.2855,-3.3469,-3.4094,-3.4772,-3.4525,-3.4661,-3.5346,-3.5462,-3.5846,-3.6577,-3.6577,-3.7007,-3.7853,-3.7853,-3.8315,-3.9169,-3.9246,-3.9708,-4.0362,-4.0477,-4.147,-4.3047,-4.3739,-4.4124,-4.4393,-4.5171,-4.5518,-4.5594,-2.419,0.0,0.0,0.0,0.0,0.0,0.0,0.0,-2.485,-2.5988,-2.6262,-2.6665,-2.7483,-2.8223,-2.8867,-2.9341,-2.9871,-3.0028,-2.9544,-2.9801,-2.9737,-2.9289,-2.9657,-2.9706,-2.9394,-2.9295,-2.9265,0.0,0.0,0.0,0.0,0.0,0.0,0.0,0.0,0.0,0.0,0.0,0.0,-2.7787,-2.764,0.0,-2.8191,-2.7383,-2.7677,-2.8411,-2.7787,-2.8374,-2.9427,0.0,-2.8473,-2.7761,0.0,0.0,0.0,0.0,0.0,0.0,0.0,0.0,0.0,0.0,0.0,0.0,-2.4483,-2.4713,-2.5029,0.0,0.0,0.0,0.0,0.0,0.0,0.0,0.0,0.0,0.0,0.0,0.0,0.0,0.0,0.0,0.0,0.0,-2.9336,-3.0199,-3.1334,-3.2047,-3.2247,-3.3247,-3.3552,-3.301,-3.4441,-3.5007,-3.4468,-3.5154,-3.5577,-3.5731,-3.5731,-3.6154,-3.6962,-3.6962,-3.743,-3.8277,-3.9015,-3.94,-3.9592,-4.0246,-4.1123,-4.2077,-4.2239,-4.3124,-4.4316,-4.447,-4.5017,-4.5594,-2.419,0.0,0.0,0.0,0.0,0.0,0.0,0.0,-2.6135,-2.6539,-2.6773,-2.7196,-2.7997,-2.8531,-2.8989,-2.9504,-2.9867,-2.9962,-2.9741,-2.9686,-2.9616,-2.9394,-2.9598,-2.9551,-2.9222,-2.9312,-2.9384,0.0,0.0,0.0,0.0,0.0,0.0,0.0,0.0,0.0,0.0,0.0,-2.8767,-2.8338,-2.753,0.0,-2.7714,-2.6906,-2.709,-2.7798,-2.7813,-2.8326,-2.9083,-2.961,-2.916,0.0,0.0,-2.8146,-2.7913,0.0,-2.6897,-2.7121,0.0,0.0,0.0,-2.5007,0.0,0.0,0.0,-2.4787,-2.4826,0.0,0.0,0.0,0.0,0.0,0.0,0.0,0.0,0.0,0.0,0.0,0.0,0.0,0.0,0.0,0.0,0.0,-2.8156,-2.8926,-3.078,-3.1849,-3.1703,-3.2371,-3.2749,-3.2711,-3.33,-3.3814,-3.4205,-3.4622,-3.5084,-3.55,-3.55,-3.5692,-3.6115,-3.6115,-3.6538,-3.7392,-3.8277,-3.8892,-3.9361,-4.0169,-4.0746,-4.12,-4.1623,-4.2316,-4.3124,-4.3547,-4.397,-4.4355,-2.4209,0.0,0.0,0.0,0.0,0.0,0.0,0.0,-2.7453,-2.7036,-2.714,-2.7623,-2.8596,-2.8943,-2.9444,-3.0265,-2.9872,-2.9758,-3.0217,0.0,-2.9251,-2.9193,-2.9504,-2.942,-2.8898,-2.9268,-2.9464,-2.9464,0.0,0.0,0.0,0.0,0.0,0.0,0.0,0.0,0.0,0.0,0.0,-2.8436,0.0,-2.7236,-2.7714,-2.6906,-2.709,-2.7908,-2.8761,-2.8968,-2.8964,-3.0018,0.0,-2.9084,-2.8782,-2.9072,0.0,0.0,0.0,0.0,0.0,0.0,0.0,0.0,0.0,-2.5051,0.0,0.0,0.0,-2.5208,0.0,0.0,0.0,0.0,0.0,0.0,0.0,0.0,0.0,0.0,0.0,0.0,0.0,0.0,0.0,0.0,-2.7358,-2.8017,-2.985,-3.0951,-3.088,-3.1239,-3.1737,-3.2391,-3.2083,-3.2583,-3.3936,-3.4129,-3.4622,-3.55,-3.55,-3.55,-3.55,-3.55,-3.5846,-3.6538,-3.7546,-3.8392,-3.913,-4.0092,-4.0516,-4.0554,-4.1277,-4.1662,-4.1885,-4.2585,-4.297,-4.3085,-2.4284,-2.419,0.0,0.0,0.0,0.0,0.0,0.0,-2.7298,-2.8156,-2.8464,-2.9186,-3.0761,0.0,0.0,0.0,0.0,0.0,-3.2149,0.0,-2.8753,-2.8512,-2.9291,-2.9312,-2.8498,-2.9248,-2.968,-2.968,0.0,0.0,0.0,0.0,0.0,0.0,-2.7897,0.0,0.0,0.0,-2.753,0.0,-2.7457,-2.7725,0.0,-2.6906,-2.709,-2.7941,-2.9,-2.8859,-2.8358,0.0,-2.956,-2.9579,0.0,-2.9604,0.0,0.0,0.0,0.0,0.0,0.0,0.0,0.0,-2.6943,0.0,0.0,0.0,-2.5657,-2.517,0.0,0.0,0.0,0.0,0.0,0.0,0.0,0.0,0.0,0.0,0.0,0.0,0.0,0.0,0.0,0.0,0.0,-2.6798,-2.7753,-2.8615,-2.9291,-3.011,-3.0577,-3.0692,-3.2045,-3.2852,-3.3045,-3.3821,-3.4622,-3.55,-3.55,-3.55,-3.55,-3.55,-3.5538,-3.5731,-3.7315,-3.8046,-3.8277,-3.9861,-4.0516,-4.0516,-4.0593,-4.1123,-4.1808,-4.1923,-4.2431,-4.3085,-2.4436,-2.4375,0.0,0.0,0.0,0.0,0.0,0.0,-2.855,-2.8655,-2.9057,0.0,0.0,0.0,0.0,0.0,0.0,-3.1373,0.0,0.0,-2.909,0.0,0.0,0.0,-2.9149,-2.9497,-2.9746,-2.9877,-2.9651,0.0,0.0,0.0,0.0,0.0,-2.709,0.0,-2.6476,0.0,0.0,0.0,0.0,0.0,0.0,-2.7603,-2.7896,-2.8719,-2.8693,-2.883,-2.9119,0.0,-2.9712,0.0,0.0,0.0,0.0,0.0,0.0,0.0,0.0,0.0,0.0,0.0,0.0,0.0,0.0,0.0,-2.537,0.0,0.0,0.0,0.0,0.0,0.0,0.0,0.0,0.0,0.0,0.0,0.0,0.0,0.0,0.0,0.0,0.0,0.0,0.0,0.0,-2.8242,-2.905,-2.9929,-3.0385,-3.0385,-3.1077,-3.1929,-3.2891,-3.3276,-3.4122,-3.55,-3.55,-3.55,-3.55,-3.55,-3.55,-3.5577,-3.6731,-3.7546,-3.8084,-3.9323,-3.9785,-3.9785,-3.9785,-4.0323,-4.1046,-4.1046,-4.1277,-4.1593,-2.4663,0.0,0.0,0.0,0.0,0.0,0.0,0.0,0.0,0.0,0.0,0.0,-3.2316,-3.2534,0.0,0.0,0.0,-3.2708,0.0,0.0,-2.9473,0.0,0.0,0.0,0.0,0.0,-2.9939,-3.0122,0.0,0.0,0.0,0.0,0.0,0.0,0.0,-2.6355,-2.5485,0.0,0.0,-2.753,-2.8363,-2.886,-2.9027,-2.8371,-2.8672,-2.9319,-2.8736,-2.907,-2.9804,-2.9954,-2.9947,0.0,-3.0215,0.0,0.0,0.0,0.0,0.0,-2.7383,0.0,0.0,0.0,0.0,0.0,0.0,0.0,0.0,0.0,0.0,0.0,0.0,0.0,0.0,0.0,0.0,0.0,0.0,0.0,0.0,0.0,0.0,0.0,0.0,0.0,0.0,0.0,-2.6813,0.0,-2.8703,-2.9352,-2.9923,-3.0385,-3.0385,-3.1115,-3.2545,-3.2776,-3.366,-3.5154,-3.5385,-3.55,-3.55,-3.55,-3.55,-3.5577,-3.6615,-3.7276,-3.7738,-3.8854,-3.9169,-3.8977,-3.9207,-3.9669,-4.0169,-4.0169,-4.0323,-4.0516,-2.5003,-2.4877,0.0,0.0,0.0,0.0,0.0,0.0,0.0,0.0,0.0,0.0,0.0,0.0,0.0,0.0,0.0,-3.3671,-3.3583,0.0,-2.9631,0.0,0.0,-2.9988,0.0,0.0,0.0,0.0,0.0,0.0,0.0,0.0,0.0,0.0,0.0,-2.688,-2.5448,-2.6282,-2.6638,-2.6722,-2.7493,-2.8476,-2.9343,0.0,-2.9141,-2.9414,-2.9588,0.0,0.0,-2.9999,-3.0157,0.0,0.0,0.0,0.0,0.0,0.0,0.0,0.0,0.0,0.0,-2.8994,0.0,0.0,0.0,0.0,-2.7341,0.0,0.0,0.0,0.0,0.0,0.0,-2.5308,0.0,0.0,0.0,0.0,0.0,0.0,0.0,0.0,0.0,0.0,0.0,-2.5346,-2.5385,0.0,-2.7857,-2.7972,-2.8736,-3.0346,-3.0385,-3.0846,-3.1737,-3.2506,-3.3353,-3.4244,-3.5122,-3.55,-3.55,-3.55,-3.55,-3.5577,-3.7238,-3.7507,-3.6885,-3.8584,-3.8815,-3.8123,-3.8977,-3.9323,-3.9361,-3.9361,-3.9823,-4.0516,0.0,0.0,0.0,0.0,0.0,0.0,0.0,-2.8535,0.0,0.0,0.0,0.0,0.0,0.0,-3.8282,0.0,0.0,-3.6656,-3.5247,-3.3428,0.0,0.0,0.0,-3.1036,0.0,0.0,0.0,0.0,0.0,0.0,0.0,0.0,0.0,0.0,0.0,-2.6693,0.0,0.0,0.0,0.0,0.0,-2.8973,-2.9145,0.0,0.0,-2.9804,-2.9877,-3.0066,0.0,-3.026,-3.0336,-3.0373,-3.0279,-2.992,-2.9467,-2.9204,-2.9088,0.0,0.0,0.0,-2.9698,-2.8588,0.0,0.0,0.0,0.0,0.0,0.0,0.0,0.0,0.0,0.0,-2.5308,-2.5308,-2.5308,0.0,0.0,0.0,0.0,0.0,0.0,0.0,0.0,0.0,0.0,-2.5308,-2.5846,-2.6428,0.0,-2.8088,-2.8934,-2.9506,-3.0115,-3.0808,-3.1698,-3.1968,-3.2814,-3.4205,-3.4507,-3.493,-3.55,-3.55,-3.55,-3.5538,-3.6115,-3.6462,-3.6731,-3.7353,-3.7738,-3.8046,-3.8315,-3.8777,-3.9361,-3.99,-4.0285,-4.0516,-2.5122,0.0,0.0,0.0,0.0,0.0,0.0,0.0,0.0,0.0,-3.4808,0.0,-3.9244,0.0,-4.0207,0.0,-3.9862,-3.849,-3.5593,-3.4614,0.0,-3.1527,-3.1767,0.0,0.0,0.0,0.0,0.0,0.0,-3.0599,0.0,0.0,0.0,0.0,0.0,0.0,0.0,0.0,-2.7603,0.0,0.0,-2.9394,0.0,0.0,-2.972,-2.9908,0.0,-3.0163,-3.0385,-3.0385,-3.0385,-3.0385,-3.0385,-3.0,-2.9544,-2.9544,-2.9544,-2.9467,-2.8929,-2.9577,0.0,-2.9044,-2.9198,0.0,-2.8511,0.0,0.0,0.0,0.0,0.0,0.0,0.0,0.0,-2.5692,-2.55,-2.5423,0.0,-2.5769,0.0,0.0,0.0,0.0,0.0,0.0,-2.5308,-2.5308,-2.6115,-2.6736,0.0,0.0,-2.9242,-2.9544,-3.0115,-3.0654,-3.1231,-3.1545,-3.2237,-3.3314,-3.3936,-3.4507,-3.5045,-3.5346,-3.55,-3.5538,-3.5808,-3.6077,-3.6308,-3.6577,-3.6846,-3.7161,-3.7777,-3.8354,-3.8931,-3.9785,-4.0246,-4.0516,0.0,0.0,0.0,0.0,-2.6036,0.0,0.0,0.0,-3.3314,0.0,-3.6615,-3.8584,-3.963,-4.0439,-4.0659,-4.0068,-4.049,0.0,-3.5034,-3.528,0.0,0.0,-3.1834,-3.1366,-3.05,0.0,0.0,0.0,0.0,0.0,0.0,0.0,0.0,0.0,-2.8563,0.0,-2.6193,-2.7803,-2.7925,-2.7112,-2.878,-2.9671,-2.9991,-3.0013,0.0,-2.9729,-2.9947,-3.017,-3.0385,-3.0385,-3.0385,-3.0385,-3.0385,-3.0385,-3.0385,-3.0385,-3.0385,-3.0385,-3.0385,-3.0385,-3.0385,-3.0385,0.0,0.0,0.0,0.0,-2.8934,0.0,0.0,0.0,0.0,0.0,0.0,-2.6467,-2.5885,-2.5654,-2.6544,0.0,0.0,0.0,0.0,0.0,0.0,-2.5423,-2.5423,-2.5423,-2.6154,0.0,0.0,0.0,0.0,-3.0308,-3.0385,-3.0385,-3.0385,-3.1231,-3.166,-3.1737,-3.3314,-3.4129,-3.4244,-3.5045,-3.5462,-3.5538,-3.6308,-3.6192,-3.5577,-3.6346,-3.6192,-3.5731,-3.7315,-3.8007,-3.8161,-3.9053,-3.9823,-4.0516,-2.639,-2.6774,-2.7379,0.0,-2.8297,-2.8967,0.0,0.0,0.0,0.0,-3.9431,-4.1165,-4.3089,-4.2704,-4.2215,-4.2084,-4.1274,0.0,0.0,0.0,0.0,-3.4609,-3.3514,-3.2453,-3.1385,-3.1402,0.0,-3.0077,0.0,0.0,-3.0385,0.0,0.0,0.0,0.0,0.0,-2.7458,-2.8123,-2.8248,-2.813,-2.9363,-2.9813,0.0,0.0,-3.0136,-2.9954,-3.0221,-3.0349,-3.0385,-3.0385,-3.0385,-3.0385,-3.0385,-3.0385,-3.0385,-3.0385,-3.0385,-3.0385,-3.0385,-3.0385,-3.0385,-3.0385,-3.0385,-3.0346,0.0,0.0,0.0,0.0,0.0,0.0,0.0,0.0,0.0,0.0,-2.6428,0.0,0.0,0.0,0.0,0.0,0.0,0.0,0.0,0.0,-2.7236,-2.7236,-2.6851,0.0,0.0,0.0,0.0,-2.939,-3.0077,-3.0385,-3.0385,-3.0615,-3.1077,-3.1698,-3.2122,-3.3006,-3.4205,-3.443,-3.4891,-3.55,-3.5731,-3.5692,-3.5538,-3.5731,-3.6038,-3.6423,-3.6885,-3.7815,-3.9092,-3.99,-4.0323,-4.0516,-2.7198,0.0,0.0,-3.066,0.0,0.0,-3.2737,0.0,0.0,-3.8783,-4.0525,0.0,-4.2899,-4.28,-4.2459,-4.1958,-4.1016,0.0,0.0,0.0,0.0,-3.5532,-3.4014,-3.2539,-3.1154,-3.0976,0.0,-2.9313,0.0,0.0,-3.0385,0.0,0.0,0.0,0.0,-2.8425,0.0,-2.8522,-2.886,-2.9322,-2.9801,0.0,0.0,-3.0311,-3.0324,-3.0177,-3.0349,-3.0385,-3.0385,-3.0385,-3.0385,-3.0385,-3.0385,-3.0385,-3.0385,-3.0385,-3.0385,-3.0385,-3.0385,-3.0385,-3.0385,-3.0385,-3.0385,-3.0385,-3.0385,-3.0115,-2.9813,0.0,0.0,0.0,0.0,0.0,0.0,0.0,0.0,0.0,0.0,0.0,0.0,0.0,0.0,0.0,0.0,0.0,0.0,0.0,0.0,0.0,0.0,0.0,0.0,-2.9621,-3.0852,-3.1154,-3.0423,-3.15,-3.1737,-3.1154,-3.1891,-3.2545,-3.3122,-3.3859,-3.4468,-3.4968,-3.5346,-3.55,-3.55,-3.55,-3.5769,-3.6231,-3.6962,-3.8084,-3.94,-4.0208,-4.0516,-4.0516,0.0,0.0,0.0,0.0,0.0,0.0,0.0,-3.6199,0.0,-3.9085,0.0,-4.1731,-4.1166,-4.1852,-4.195,-4.0948,0.0,-3.9261,-3.782,-3.7095,-3.6346,-3.5538,-3.3814,-3.216,-3.0615,-3.0346,0.0,0.0,0.0,0.0,0.0,0.0,0.0,0.0,0.0,0.0,0.0,-2.8894,-2.9379,0.0,-3.0105,-3.0177,-3.0385,-3.0385,-3.0385,-3.0385,-3.0385,-3.0385,-3.0385,-3.0385,-3.0385,-3.0385,-3.0385,-3.0385,-3.0385,-3.0385,-3.0385,-3.0385,-3.0385,-3.0385,-3.0385,-3.0385,-3.0385,-3.0385,-3.0385,-2.9813,-2.9506,-3.0231,-2.9236,-2.8659,0.0,0.0,0.0,0.0,0.0,0.0,0.0,0.0,0.0,0.0,0.0,0.0,0.0,0.0,0.0,0.0,0.0,0.0,0.0,0.0,0.0,0.0,-3.1814,0.0,-3.0923,0.0,-3.2929,-3.1077,-3.2199,-3.2506,-3.2083,-3.343,-3.4167,-3.4391,-3.5154,-3.55,-3.55,-3.55,-3.55,-3.5654,-3.7343,-3.8474,-3.9283,-4.0198,-4.0552,-4.0545,0.0,0.0,0.0,0.0,0.0,-3.7084,-3.8245,-3.9207,-4.0192,-4.1152,-4.2214,0.0,-4.2252,-4.1805,-4.1434,-4.1248,-3.987,0.0,0.0,0.0,0.0,-3.5538,-3.3814,-3.2468,-3.1506,-3.0044,-2.9544,0.0,0.0,0.0,0.0,0.0,0.0,0.0,0.0,0.0,-2.9088,-2.906,0.0,-2.939,-3.0047,-3.0361,-3.0385,-3.0385,-3.0385,-3.0385,-3.0385,-3.0385,-3.0385,-3.0385,-3.0385,-3.0385,-3.0385,-3.0385,-3.0385,-3.0385,-3.0385,-3.0385,-3.0385,-3.0385,-3.0385,-3.0385,-3.0385,-3.0385,-3.0385,-3.0269,-3.0231,-3.0385,-3.0154,-3.0038,-3.0346,0.0,0.0,0.0,0.0,0.0,0.0,0.0,0.0,0.0,0.0,0.0,0.0,0.0,0.0,0.0,0.0,0.0,0.0,0.0,0.0,0.0,0.0,0.0,0.0,0.0,-3.2968,-3.4577,-3.2769,-3.2545,-3.3744,-3.3314,-3.393,-3.5269,-3.5423,-3.55,-3.55,-3.55,-3.55,-3.5674,-3.7486,-3.8274,-3.8562,-4.018,-4.0761,-4.0728,0.0,0.0,0.0,0.0,0.0,0.0,0.0,-4.0931,0.0,-4.0943,-4.102,-4.1003,-4.0664,-4.0786,-4.0734,-4.0295,-3.9108,-3.8276,-3.7962,-3.6353,-3.5238,-3.4853,-3.3199,0.0,-3.1038,-2.9775,-2.9319,-2.9737,0.0,0.0,0.0,0.0,0.0,0.0,0.0,-2.9775,0.0,0.0,0.0,-2.9813,-3.0231,-3.0385,-3.0385,-3.0385,-3.0385,-3.0385,-3.0385,-3.0385,-3.0385,-3.0385,-3.0385,-3.0385,-3.0385,-3.0385,-3.0385,-3.0385,-3.0385,-3.0385,-3.0385,-3.0385,-3.0385,-3.0385,-3.0385,-3.0385,-3.0385,-3.0385,-3.0385,-3.0385,-3.0385,-3.0408,-3.0451,-3.0095,0.0,0.0,0.0,0.0,0.0,0.0,0.0,0.0,0.0,0.0,0.0,0.0,0.0,0.0,0.0,0.0,0.0,0.0,0.0,0.0,0.0,0.0,0.0,0.0,0.0,-3.4154,-3.3353,-3.316,-3.3545,-3.3545,-3.4045,-3.4853,-3.5308,-3.5515,-3.5564,-3.5604,-3.6149,-3.706,-3.7923,-3.8533,-3.909,-4.0338,-4.0817,-4.0805,0.0,-3.82,0.0,0.0,-4.0246,0.0,0.0,-4.1692,-4.1489,-4.0595,-3.9912,-3.9461,-3.9265,-3.9852,-3.9977,-3.9361,-3.8315,-3.743,-3.6731,-3.5122,-3.4129,-3.3936,-3.2506,-3.1269,-3.0423,-2.9544,-2.9204,0.0,0.0,0.0,0.0,0.0,0.0,0.0,0.0,0.0,0.0,0.0,-3.0385,-3.0385,-3.0385,-3.0385,-3.0385,-3.0385,-3.0385,-3.0385,-3.0385,-3.0385,-3.0385,-3.0385,-3.0385,-3.0385,-3.0385,-3.0385,-3.0385,-3.0385,-3.0385,-3.0385,-3.0385,-3.0385,-3.0385,-3.0385,-3.0385,-3.0385,-3.0385,-3.0385,-3.0385,-3.0385,-3.0414,-3.043,-3.05,-3.0458,0.0,0.0,0.0,0.0,0.0,0.0,0.0,0.0,0.0,0.0,0.0,0.0,0.0,0.0,0.0,0.0,0.0,0.0,0.0,0.0,0.0,-3.2429,-3.2506,0.0,-3.4615,0.0,-3.4129,-3.393,-3.3468,-3.4007,-3.4334,-3.4532,-3.5251,-3.5566,-3.564,-3.5889,-3.6784,-3.8079,-3.8436,-3.9026,-3.9734,-4.0562,-4.088,-4.088,0.0,0.0,0.0,0.0,0.0,0.0,0.0,-4.1277,-4.1769,-4.1629,-4.0923,-4.0392,-4.0338,-3.9769,-3.94,-3.9323,-3.7777,-3.6769,-3.6692,-3.5122,-3.3859,-3.3045,-3.216,-3.1269,-3.0423,-2.9544,-2.9506,0.0,0.0,0.0,0.0,0.0,0.0,0.0,0.0,0.0,0.0,-3.0385,-3.0385,-3.0385,-3.0385,-3.0385,-3.0385,-3.0385,-3.0385,-3.0385,-3.0385,-3.0385,-3.0385,-3.0385,-3.0385,-3.0385,-3.0385,-3.0385,-3.0385,-3.0385,-3.0385,-3.0385,-3.0385,-3.0385,-3.0385,-3.0385,-3.0385,-3.0385,-3.0385,-3.0385,-3.0385,-3.0385,-3.0456,-3.0505,-3.0518,-3.0552,-3.0577,0.0,0.0,0.0,0.0,0.0,0.0,0.0,0.0,0.0,0.0,0.0,0.0,0.0,0.0,0.0,0.0,0.0,0.0,-3.0385,0.0,-3.2077,-3.5115,-3.3814,0.0,-3.7507,-3.5244,-3.4584,-3.5238,-3.4582,-3.4719,-3.5465,-3.5616,-3.5663,-3.5751,-3.6543,-3.6978,-3.7261,-3.8926,-3.9609,-3.9809,-4.0815,-4.117,-4.117,0.0,0.0,0.0,0.0,0.0,0.0,0.0,-4.1123,-4.1008,-4.1008,-4.0708,-4.0516,-4.0516,-3.9785,-3.9092,-3.8584,-3.7392,-3.6276,-3.5276,-3.4083,-3.3045,-3.2237,-3.1385,-3.0769,-3.0423,-3.0038,-3.0038,0.0,0.0,0.0,0.0,0.0,0.0,0.0,0.0,-3.0385,-3.0385,-3.0385,-3.0385,-3.0385,-3.0385,-3.0385,-3.0385,-3.0385,-3.0385,-3.0385,-3.0385,-3.0385,-3.0385,-3.0385,-3.0385,-3.0385,-3.0385,-3.0385,-3.0385,-3.0385,-3.0385,-3.0385,-3.0385,-3.0385,-3.0385,-3.0385,-3.0385,-3.0385,-3.0385,-3.0385,-3.0385,-3.0385,-3.0467,-3.0521,-3.0595,-3.0598,-3.0589,0.0,0.0,0.0,0.0,0.0,0.0,0.0,0.0,0.0,0.0,0.0,0.0,0.0,0.0,0.0,0.0,0.0,0.0,-3.0385,0.0,-3.2093,-3.4042,-3.3848,-3.4703,-3.6595,-3.5597,-3.5287,-3.5592,-3.5297,-3.5317,-3.5671,-3.5761,-3.638,-3.732,-3.7235,-3.8104,-3.9552,-3.9758,-4.0151,-4.066,-4.1054,-4.1211,-4.1211,-4.3778,0.0,-4.3047,0.0,-4.2239,-4.1393,-4.1739,-4.1046,-4.0516,-4.0516,-4.0516,-4.04,-4.0169,-3.94,-3.8584,-3.77,-3.6846,-3.5738,-3.4282,-3.3391,-3.2545,-3.1737,-3.0885,0.0,-3.0385,-3.0385,-3.0385,-3.0385,-3.0385,0.0,0.0,0.0,0.0,0.0,-3.0385,-3.0385,-3.0385,-3.0385,-3.0385,-3.0385,-3.0385,-3.0385,-3.0385,-3.0385,-3.0385,-3.0385,-3.0385,-3.0385,-3.0385,-3.0385,-3.0385,-3.0385,-3.0385,-3.0385,-3.0385,-3.0385,-3.0385,-3.0385,-3.0385,-3.0385,-3.0385,-3.0385,-3.0385,-3.0396,-3.0403,-3.0414,-3.0425,-3.0467,-3.0501,-3.0574,-3.0664,-3.0698,-3.0691,-3.0711,0.0,0.0,0.0,0.0,0.0,0.0,0.0,-3.013,-2.9936,0.0,0.0,0.0,0.0,0.0,0.0,0.0,0.0,0.0,0.0,0.0,0.0,-3.4008,-3.4766,-3.5687,-3.5687,-3.5687,-3.5687,-3.5749,-3.5892,-3.6148,-3.5986,-3.6584,-3.768,-3.7694,-3.8789,-4.043,-4.0312,-4.0664,-4.1211,-4.1211,-4.1211,-4.1172,-4.5402,-4.5556,-4.5287,-4.4432,-4.3624,-4.2777,-4.1923,-4.1046,-4.0516,-4.0516,-4.0516,-4.0208,-3.94,-3.8546,-3.7661,-3.6769,-3.5962,-3.5154,-3.4244,-3.3391,-3.2545,0.0,0.0,-3.0385,-3.0385,-3.0385,-3.0385,-3.0385,0.0,0.0,-3.0385,0.0,-3.0385,-3.0385,-3.0385,-3.0385,-3.0385,-3.0385,-3.0385,-3.0385,-3.0385,-3.0385,-3.0385,-3.0385,-3.0385,-3.0385,-3.0385,-3.0385,-3.0385,-3.0385,-3.0385,-3.0385,-3.0385,-3.0385,-3.0385,-3.0385,-3.0385,-3.0385,-3.0385,-3.0385,-3.0385,-3.0385,-3.0385,-3.0425,-3.0491,-3.0518,-3.0509,-3.0565,-3.0639,-3.0713,-3.0714,-3.0814,-3.0858,-3.072,0.0,0.0,0.0,0.0,0.0,0.0,-2.9957,-2.9072,-2.8398,0.0,0.0,0.0,0.0,0.0,0.0,0.0,0.0,-3.1753,-3.1736,0.0,-3.4274,-3.4313,-3.4766,-3.5687,-3.5687,-3.5687,-3.5687,-3.5838,-3.6392,-3.7226,-3.6367,-3.6016,-3.6172,-3.7891,-3.8594,-3.8789,-4.0508,-4.1172,-4.1211,-4.1211,-4.1211,-4.1094,-4.5556,-4.5133,-4.4432,-4.3624,-4.2777,-4.1931,-4.1046,-4.0669,-4.0516,-4.0516,-4.0516,-4.0208,-3.94,-3.8507,-3.7661,0.0,-3.543,-3.4237,0.0,-3.2545,-3.1698,-3.0846,-3.0538,-3.0385,-3.0385,-3.0385,-3.0385,-3.0385,0.0,0.0,0.0,-3.0385,-3.0385,-3.0385,-3.0385,-3.0385,-3.0385,-3.0385,-3.0385,-3.0385,-3.0385,-3.0385,-3.0385,-3.0385,-3.0385,-3.0385,-3.0385,-3.0385,-3.0385,-3.0385,-3.0385,-3.0385,-3.0385,-3.0385,-3.0385,-3.0385,-3.0385,-3.0385,-3.0385,-3.0385,-3.0385,-3.0385,-3.0425,-3.0472,-3.0509,-3.0537,-3.061,-3.0642,-3.0705,-3.0722,-3.0816,-3.0859,-3.0898,-3.0857,0.0,0.0,0.0,0.0,0.0,0.0,0.0,-2.9407,0.0,-2.8629,0.0,0.0,0.0,0.0,0.0,0.0,0.0,0.0,-3.2423,0.0,-3.4491,-3.5071,-3.5568,-3.5885,-3.5885,-3.6236,-3.6823,-3.7455,-3.7889,-3.8164,-3.7891,-3.7773,-3.7851,-3.9023,-3.9492,-3.9609,-4.0742,-4.1211,-4.1133,-4.0547,-4.0312,-4.0195,-4.5133,-4.4432,-4.3585,-4.2777,-4.2162,-4.1508,-4.0631,-4.0516,-4.0516,-4.0516,-4.0516,-4.0208,-3.94,-3.8507,0.0,-3.6769,-3.5468,-3.416,-3.2968,-3.2429,-3.1621,-3.0462,-3.0385,-3.0385,-3.0385,0.0,0.0,-3.0385,-3.0385,-3.0385,-3.0385,-3.0385,-3.0385,-3.0385,-3.0385,-3.0385,-3.0385,-3.0385,-3.0385,-3.0385,-3.0385,-3.0385,-3.0385,-3.0385,-3.0385,-3.0385,-3.0385,-3.0385,-3.0385,-3.0385,-3.0385,-3.0385,-3.0385,-3.0385,-3.0385,-3.0385,-3.0385,-3.0385,-3.0385,-3.0385,-3.0396,-3.0419,-3.0463,-3.0505,-3.0542,-3.0655,-3.0705,-3.0767,-3.0771,-3.0814,-3.0898,-3.0898,-3.0781,-3.0469,-2.9961,-2.9492,0.0,0.0,0.0,0.0,0.0,0.0,0.0,-2.9101,0.0,0.0,0.0,0.0,0.0,0.0,0.0,-3.2379,-3.3251,0.0,-3.5089,-3.563,-3.6117,-3.6484,-3.6836,-3.7422,-3.8281,-3.8516,-3.8789,-3.9062,-3.875,-3.8398,-3.8203,-3.9414,-3.9726,-3.9531,-4.0742,-4.1016,-4.0664,-4.0117,-3.9687,-3.9297,-4.4201,-4.3585,0.0,0.0,-4.1731,0.0,-4.0631,-4.0516,-4.0516,-4.0516,-4.0516,-4.0208,-3.94,-3.8507,-3.7661,-3.6769,0.0,0.0,0.0,-3.2776,-3.2045,-3.0462,-3.0385,-3.0385,-3.0385,-3.0385,-3.0385,-3.0385,-3.0385,-3.0385,-3.0385,-3.0385,-3.0385,-3.0385,-3.0385,-3.0385,-3.0385,-3.0385,-3.0385,-3.0385,-3.0385,-3.0385,-3.0385,-3.0385,-3.0346,-3.0308,-3.0385,-3.0346,-3.0308,-3.0385,-3.0385,-3.0385,-3.0385,-3.039,-3.0396,-3.0385,-3.039,-3.0402,-3.0402,-3.0408,-3.0414,-3.0505,-3.0501,-3.0559,-3.0661,-3.0815,-3.0898,-3.0898,-3.0898,-3.0898,-3.0898,-3.0859,-3.0547,-2.9726,-2.9492,-2.9141,-2.832,0.0,0.0,0.0,0.0,0.0,0.0,-2.9609,-2.9297,0.0,0.0,0.0,0.0,0.0,-3.2512,-3.3287,-3.4104,-3.4964,-3.5907,-3.5907,-3.6393,-3.7305,-3.8242,-3.9101,-3.9883,-3.9101,-3.9219,-3.9922,-3.9062,-3.8203,-3.7539,-3.9219,-3.9336,-3.8672,-4.0508,-4.0664,-3.9883,-3.9883,-3.9336,-3.8476,0.0,0.0,-4.2038,-4.1846,-4.1239,-4.0746,-4.0516,-4.0516,-4.0516,-4.0516,-4.0516,-4.0208,-3.94,-3.8507,-3.7661,-3.6769,-3.4737,-3.3353,-3.2929,-3.1692,-3.0808,-3.0423,-3.0385,-3.0385,-3.0385,-3.0385,-3.0385,-3.0385,-3.0385,-3.0385,-3.0385,-3.0385,-3.0385,-3.0385,-3.0385,-3.0385,-3.0385,-3.0385,-3.0385,-3.0385,-3.0385,-3.0385,-3.0385,-3.0385,-3.0,-2.9506,-3.0154,-2.9967,-2.9506,-3.0192,-3.0385,-3.0385,-3.0385,-3.0425,-3.0453,-3.0419,-3.043,-3.0477,-3.0477,-3.0501,-3.0567,-3.0587,-3.0603,-3.0698,-3.0815,-3.0898,-3.0898,-3.0898,-3.0898,-3.0898,-3.0898,-3.0351,-2.9844,-2.9648,-2.8476,-2.7539,-2.7344,-2.7148,0.0,0.0,-2.9023,-2.9375,-2.957,-2.9609,-2.9805,0.0,0.0,0.0,0.0,-3.3476,-3.3865,-3.3396,-3.4213,-3.5073,-3.5974,-3.5974,-3.6405,-3.7305,-3.8867,-3.9687,-3.9922,-4.0391,-4.0703,-4.0859,-3.9961,-3.9101,-3.8398,-3.9453,-3.8984,-3.7851,-4.0273,-4.0664,-3.9883,-3.9883,-3.9336,-3.8476,-4.2508,-4.1816,-4.12,-4.12,-4.0816,-4.0516,-4.0516,-4.0516,-4.0516,-4.0516,-4.0516,-4.0323,-3.99,-3.8738,-3.7815,-3.7353,-3.5315,-3.3737,-3.2968,-3.2045,-3.1192,-3.0423,-3.0385,-3.0385,-3.0385,-3.0385,-3.0385,-3.0385,-3.0419,-3.0414,-3.0385,-3.0385,-3.0385,-3.0385,-3.0385,-3.0385,-3.0385,-3.0385,-3.0385,-3.0385,-3.0385,-3.0425,-3.0451,-3.0451,-3.0182,-2.9846,-3.0306,-3.019,-2.9846,-3.0345,-3.05,-3.05,-3.05,-3.0505,-3.0541,-3.0518,-3.0505,-3.0552,-3.0552,-3.0591,-3.0592,-3.0626,-3.0711,-3.0815,-3.0898,-3.0898,-3.0898,-3.0898,-3.0898,-3.0898,-3.0898,-3.0195,-2.9453,-2.9062,-2.7891,-2.6875,-2.6445,-2.6758,0.0,-2.8203,-2.9062,-2.9766,-3.0156,-3.0547,-3.0976,-3.1445,0.0,0.0,-3.3945,-3.5195,-3.5312,-3.4023,-3.4844,-3.5703,-3.6601,-3.7383,-3.8008,-3.8516,-3.9844,-4.0508,-4.0508,-4.0976,-4.1211,-4.1172,-4.0703,-4.0,-3.9219,-3.9687,-3.9336,-3.8633,-4.0039,-4.0312,-3.9883,-3.9883,-3.9101,-3.8008,-4.1631,-4.106,-4.0566,-4.0566,-4.0566,-4.0566,-4.0566,-4.0566,-4.0566,-4.0566,-4.0566,-4.0451,-4.0212,-3.8901,-3.7938,-3.7661,-3.635,-3.479,-3.3013,-3.2685,-3.1888,-3.0496,-3.0403,-3.0414,-3.0414,-3.0414,-3.0414,-3.0414,-3.0495,-3.0491,-3.0414,-3.0414,-3.0414,-3.0414,-3.0414,-3.0414,-3.0414,-3.0414,-3.0414,-3.0414,-3.0414,-3.0448,-3.0505,-3.0505,-3.0482,-3.0431,-3.0544,-3.0505,-3.0431,-3.0544,-3.0583,-3.0583,-3.0583,-3.0592,-3.0603,-3.0603,-3.0647,-3.0655,-3.0606,-3.065,-3.067,-3.0714,-3.0816,-3.0898,-3.0898,-3.0898,-3.0898,-3.0898,-3.0898,-3.0898,-3.0898,-3.0078,-2.9219,-2.8594,-2.7539,-2.6641,-2.6172,0.0,-2.7578,-2.8555,-2.9453,-3.0312,-3.1172,-3.1953,-3.25,-3.2734,-3.4101,-3.5,0.0,-3.668,-3.6836,-3.5351,-3.5898,-3.6562,-3.7305,-3.8906,-3.9766,-3.9922,-4.0781,-4.1211,-4.1211,-4.1211,-4.1211,-4.1172,-4.1055,-4.0586,-3.9883,-3.9883,-3.9726,-3.9531,-3.9922,-3.9922,-3.9726,-4.0,-3.9062,-3.7773,-4.096,-4.0844,-4.0766,-4.0766,-4.0766,-4.0766,-4.0766,-4.0766,-4.0766,-4.0766,-4.0766,-4.0222,-3.8818,-3.8391,-3.7657,-3.618,-3.5834,-3.4865,-3.3025,-3.1625,-3.0762,-3.0491,-3.0541,-3.0584,-3.0584,-3.0584,-3.0584,-3.0584,-3.0597,-3.0597,-3.0584,-3.0584,-3.0584,-3.0584,-3.0584,-3.0584,-3.0584,-3.0584,-3.0584,-3.0584,-3.0584,-3.0591,-3.0565,-3.0565,-3.0188,-2.9697,-3.0353,-3.0158,-2.9697,-3.0353,-3.0583,-3.0583,-3.0583,-3.0628,-3.0666,-3.0666,-3.0765,-3.0815,-3.0714,-3.0766,-3.0857,-3.0858,-3.0898,-3.0898,-3.0898,-3.0898,-3.0898,-3.0898,-3.0898,-3.0898,-3.0898,-2.9609,-2.8711,-2.9297,-2.7422,-2.6367,-2.7695,0.0,-2.8672,-3.0312,-3.1289,-3.2109,-3.293,-3.3125,-3.3828,-3.5312,-3.5664,-3.6445,-3.793,-3.8242,-3.8281,-3.8008,-3.7422,-3.7148,-3.7305,-3.8281,-3.918,-3.9922,-4.0781,-4.1211,-4.1211,-4.1211,-4.1211,-4.1172,-4.043,-4.0039,-3.9883,-3.9883,-3.9023,-3.793,-4.0156,-4.0117,-3.8984,-4.0469,-4.0351,-3.9375,-4.0817,-4.0466,-4.0307,-4.07,-4.0428,-4.0151,-4.0151,-4.0151,-3.9996,-3.9525,-3.9447,-3.9175,-3.8393,-3.7895,-3.7276,-3.6459,-3.5571,-3.4683,-3.3804,-3.264,-3.1538,-3.0602,-3.0565,-3.0583,-3.0583,-3.0624,-3.0624,-3.0583,-3.0624,-3.0624,-3.0583,-3.0583,-3.0583,-3.0583,-3.0583,-3.0583,-3.0583,-3.0583,-3.0583,-3.0583,-3.0583,-3.0608,-3.0642,-3.0642,-3.0464,-3.0251,-3.0639,-3.0523,-3.0251,-3.0639,-3.0756,-3.0756,-3.0756,-3.0767,-3.0814,-3.0814,-3.0858,-3.0898,-3.0816,-3.0858,-3.0898,-3.0898,-3.0898,-3.0898,-3.0898,-3.0898,-3.0898,-3.0898,-3.0898,-3.0898,-3.0898,-2.9492,-2.8594,-2.9453,-2.7812,0.0,0.0,-2.9101,-3.0,-3.0781,-3.2031,-3.2968,-3.3311,-3.4206,-3.5058,-3.5779,-3.6735,-3.784,-3.9128,-3.9256,-3.9297,-3.9297,-3.8906,-3.8711,-3.8711,-3.957,-4.0195,-4.0625,-4.1016,-4.1211,-4.1211,-4.1211,-4.1211,-4.1172,-4.0781,-4.0545,-4.0418,-3.9482,-3.8887,-3.8551,-3.883,-3.9025,-3.9179,-3.9495,-3.9376,-3.8978,-4.0883,-4.0412,-4.0178,-4.0805,-4.0373,-3.9983,-3.9983,-3.9786,-3.9435,-3.8769,-3.8653,-3.8533,-3.8104,-3.7642,-3.7219,-3.6788,-3.5588,-3.4772,-3.4577,-3.3912,-3.2774,-3.1003,-3.0743,-3.0672,-3.0672,-3.0711,-3.0713,-3.0672,-3.0713,-3.0711,-3.0672,-3.0672,-3.0672,-3.0672,-3.0672,-3.0672,-3.0672,-3.0672,-3.0672,-3.0672,-3.0672,-3.0698,-3.0765,-3.0765,-3.0815,-3.0898,-3.0898,-3.0898,-3.0898,-3.0898,-3.0898,-3.0898,-3.0898,-3.0898,-3.0898,-3.0898,-3.0898,-3.0898,-3.0898,-3.0898,-3.0898,-3.0898,-3.0898,-3.0898,-3.0898,-3.0898,-3.0898,-3.0898,-3.0898,-3.0898,-3.0898,-2.9648,-2.8906,-2.9766,0.0,0.0,0.0,-3.0195,-3.1133,-3.1719,-3.2929,-3.3821,-3.4144,-3.5375,-3.6281,-3.6568,-3.7876,-3.9039,-3.9899,-4.0055,-4.0111,-4.0154,-3.9804,-3.9687,-3.9883,-4.0547,-4.1016,-4.1211,-4.1211,-4.1211,-4.1211,-4.1171,-4.1131,-4.113,-4.1126,-4.0955,-4.0569,-3.9243,-3.8784,-3.8882,-3.7757,-3.7994,-3.8928,-3.8465,-3.8305,-3.8252,-4.1171,-4.1132,-4.1093,-4.1171,-4.1132,-4.1093,-4.1093,-4.039,-3.9843,-3.9804,-3.9765,-3.9179,-3.7538,-3.8046,-3.7812,-3.621,-3.5976,-3.5546,-3.4726,-3.4648,-3.3784,-3.1963,-3.1244,-3.0898,-3.0898,-3.0898,-3.0898,-3.0898,-3.0898,-3.0898,-3.0898,-3.0898,-3.0898,-3.0898,-3.0898,-3.0898,-3.0898,-3.0898,-3.0898,-3.0898,-3.0898,-3.0898,-3.0898,-3.0898,-3.0898,-3.0898,-3.0898,-3.0898,-3.0898,-3.0898,-3.0898,-3.0898,-3.0898,-3.0898,-3.0898,-3.0898,-3.0898,-3.0898,-3.0898,-3.0898,-3.0898,-3.0898,-3.0898,-3.0898,-3.0898,-3.0898,-3.0898,-3.0898,-3.0898,-3.0898,-3.0898,-3.0156,-2.9805,-3.0664,0.0,0.0,-3.1562,-3.1328,-3.1797,-3.4141,-3.4481,-3.5121,-3.6676,-3.6899,-3.7591,-3.9175,-3.9455,-3.9848,-4.0673,-4.0719,-4.0802,-4.0902,-3.9487,-3.9062,-3.9883,-3.9961,-4.0391,-4.1211,-4.1211,-4.1211,-4.1211,-4.1077,-4.1021,-4.1017,-4.0877,-4.0415,-3.9675,-3.9555,-3.8578,-3.7251,-3.7958,-3.7803,-3.7293,-3.8036,-3.8312,-3.8182,-4.1211,-4.0742,-4.0547,-4.1094,-4.0742,-4.0391,-4.0391,-4.0117,-3.9726,-3.9141,-3.9101,-3.8633,-3.7422,-3.7617,-3.7305,-3.6094,-3.5508,-3.5273,-3.5508,-3.4492,-3.3359,-3.2184,-3.1328,-3.0898,-3.0898,-3.0898,-3.0898,-3.0898,-3.0898,-3.0898,-3.0898,-3.0898,-3.0898,-3.0898,-3.0898,-3.0898,-3.0898,-3.0898,-3.0898,-3.0898,-3.0898,-3.0898,-3.0898,-3.0898,-3.0898,-3.0898,-3.0898,-3.0898,-3.0898,-3.0898,-3.0898,-3.0898,-3.0898,-3.0898,-3.0898,-3.0898,-3.0898,-3.0898,-3.0898,-3.0898,-3.0898,-3.0898,-3.0898,-3.0898,-3.0898,-3.0898,-3.0898,-3.0898,-3.0898,-3.1055,-3.1601,-3.0976,-3.0859,-3.2226,0.0,-3.125,-3.2734,-3.3125,-3.3633,-3.457,-3.5572,-3.6391,-3.6974,-3.7929,-3.8755,-3.9372,-3.9951,-4.0431,-4.0703,-4.0779,-4.0836,-4.087,-4.0276,-4.0151,-4.0571,-4.0504,-4.0604,-4.0955,-4.0955,-4.0955,-4.0955,-4.0886,-4.0874,-4.087,-4.0836,-4.0317,-3.9442,-3.8937,-3.7957,-3.6781,-3.6638,-3.6671,-3.6781,-3.6638,-3.687,-3.7207,-4.1211,-4.0703,-4.0508,-4.1094,-4.0703,-4.0234,-3.9922,-3.9883,-3.9492,-3.8359,-3.8437,-3.8164,-3.7031,-3.7148,-3.6953,-3.6094,-3.5195,-3.4961,-3.5547,-3.4219,-3.3164,-3.2617,-3.1992,-3.1562,-3.1328,-3.1328,-3.1172,-3.0898,-3.0898,-3.0898,-3.0898,-3.0898,-3.0898,-3.0898,-3.0898,-3.0898,-3.0898,-3.0898,-3.0898,-3.0898,-3.0898,-3.0898,-3.0898,-3.0898,-3.0898,-3.0898,-3.0898,-3.0898,-3.0898,-3.0898,-3.0898,-3.0898,-3.0898,-3.0898,-3.0898,-3.0898,-3.0898,-3.0898,-3.0898,-3.0898,-3.0898,-3.0898,-3.0898,-3.0898,-3.0898,-3.1094,-3.1328,-3.1328,-3.1523,-3.1875,-3.2461,-3.2109,-3.207,-3.3203,-3.293,-3.2851,-3.3672,-3.457,-3.5195,-3.5469,-3.6704,-3.7593,-3.7789,-3.8797,-3.9464,-3.9646,-4.0286,-4.0623,-4.0623,-4.0693,-4.0723,-4.0761,-4.0728,-4.0766,-4.0909,-4.0836,-4.0817,-4.0817,-4.0817,-4.0817,-4.0817,-4.0784,-4.0766,-4.0761,-4.0451,-3.9802,-3.8896,-3.8084,-3.7167,-3.6269,-3.5731,-3.5846,-3.6269,-3.5692,-3.5846,-3.6231,-4.1211,-4.1211,-4.1211,-4.1211,-4.1211,-4.0898,-4.0039,-3.9922,-3.9297,-3.7578,-3.8086,-3.7969,-3.6211,-3.6797,-3.6953,-3.6094,-3.5195,-3.4687,-3.4687,-3.3906,-3.3437,-3.3398,-3.3398,-3.3008,-3.2226,-3.2187,-3.1758,-3.0898,-3.0898,-3.0898,-3.0898,-3.0898,-3.0898,-3.0898,-3.0898,-3.0898,-3.0898,-3.0898,-3.0898,-3.0898,-3.0898,-3.0898,-3.0898,-3.0898,-3.0898,-3.0898,-3.0898,-3.0898,-3.0898,-3.0898,-3.0898,-3.0898,-3.0898,-3.0898,-3.0898,-3.0898,-3.0898,-3.0898,-3.0898,-3.0898,-3.0898,-3.0898,-3.0898,-3.0898,-3.0898,-3.1562,-3.2187,-3.2187,-3.2812,-3.3398,-3.3398,-3.3398,-3.3398,-3.3437,-3.3437,-3.3711,-3.4609,-3.5469,-3.6328,-3.7226,-3.7957,-3.8731,-3.9536,-3.9471,-3.9714,-4.0454,-4.0516,-4.0516,-4.0516,-4.0516,-4.0566,-4.0692,-4.0574,-4.0566,-4.0697,-4.0757,-4.0817,-4.0817,-4.0817,-4.0817,-4.0813,-4.0726,-4.0697,-4.0647,-3.9711,-3.8815,-3.793,-3.7084,-3.6231,-3.55,-3.55,-3.55,-3.55,-3.55,-3.55,-3.55,-4.1211,-4.1211,-4.1211,-4.1211,-4.1211,-4.1094,-4.0859,-4.082,-4.0625,-4.0117,-3.9726,-3.9062,-3.7969,-3.75,-3.6953,-3.6094,-3.5195,-3.4687,-3.4687,-3.5039,-3.4961,-3.4336,-3.3203,-3.2461,-3.2226,-3.1601,-3.1172,-3.0898,-3.0898,-3.0898,-3.0898,-3.0898,-3.0898,-3.0898,-3.0898,-3.0898,-3.0898,-3.0898,-3.0898,-3.0898,-3.0898,-3.0898,-3.0898,-3.0898,-3.0898,-3.0898,-3.0898,-3.0898,-3.0898,-3.0898,-3.0898,-3.0898,-3.0898,-3.0898,-3.0898,-3.0898,-3.0898,-3.0898,-3.0898,-3.0898,-3.0898,-3.0898,-3.0898,-3.0898,-3.0898,-3.1094,-3.1445,-3.1938,-3.2339,-3.2888,-3.3971,-3.4244,-3.4491,-3.5064,-3.5192,-3.5547,-3.6406,-3.6758,-3.7226,-3.8125,-3.8854,-3.939,-3.9575,-4.0043,-4.0365,-4.0492,-4.0516,-4.0516,-4.0516,-4.0516,-4.05,-4.0559,-4.0508,-4.0508,-4.0559,-4.0577,-4.0604,-4.0604,-4.0604,-4.0604,-4.0604,-4.0588,-4.0559,-4.0559,-4.0269,-3.9323,-3.7969,-3.7738,-3.6769,-3.55,-3.55,-3.55,-3.55,-3.55,-3.55,-3.55,-4.1211,-4.1211,-4.1211,-4.1211,-4.1211,-4.1094,-4.0742,-4.0976,-4.082,-3.9805,-3.9492,-3.8906,-3.7695,-3.7109,-3.6562,-3.6055,-3.5195,-3.4687,-3.4687,-3.4883,-3.4883,-3.4726,-3.3398,-3.2656,-3.2656,-3.1836,-3.1406,-3.1406,-3.1055,-3.0898,-3.0898,-3.0898,-3.0898,-3.0898,-3.0898,-3.0898,-3.0898,-3.0898,-3.0898,-3.0898,-3.0898,-3.0898,-3.0898,-3.0898,-3.0898,-3.0898,-3.0898,-3.0898,-3.0898,-3.0898,-3.0898,-3.0898,-3.0898,-3.0898,-3.0898,-3.0898,-3.0898,-3.0898,-3.0898,-3.0898,-3.0976,-3.1246,-3.1366,-3.1406,-3.1362,-3.1869,-3.2487,-3.2909,-3.3317,-3.3867,-3.4805,-3.5056,-3.5245,-3.576,-3.5861,-3.6194,-3.7142,-3.7534,-3.8083,-3.8984,-3.9751,-4.017,-4.0085,-4.0431,-4.063,-4.0492,-4.0516,-4.0516,-4.0516,-4.0516,-4.0516,-4.0516,-4.0516,-4.0516,-4.0516,-4.0516,-4.0516,-4.0516,-4.0516,-4.0516,-4.0516,-4.0516,-4.0516,-4.0477,-3.9785,-3.8931,-3.7969,-3.7276,-3.6423,-3.55,-3.55,-3.5458,-3.5361,-3.5472,-3.5369,-3.5198,-4.1211,-4.1211,-4.1211,-4.1211,-4.1211,-4.0937,-4.0156,-4.0703,-4.0351,-3.7969,-3.8203,-3.8008,-3.6406,-3.6094,-3.6016,-3.6016,-3.5273,-3.4805,-3.4805,-3.3984,-3.3867,-3.4687,-3.3867,-3.3398,-3.3398,-3.2695,-3.2266,-3.2187,-3.1406,-3.0976,-3.0898,-3.0898,-3.0898,-3.0898,-3.0898,-3.0898,-3.0898,-3.0898,-3.0898,-3.0898,-3.0898,-3.0898,-3.0898,-3.0898,-3.0898,-3.0898,-3.0898,-3.0898,-3.0898,-3.0898,-3.0898,-3.0898,-3.0898,-3.0898,-3.0898,-3.0898,-3.0898,-3.0898,-3.0859,-3.0937,-3.1168,-3.1802,-3.2211,-3.2339,-3.2152,-3.3353,-3.4471,-3.4478,-3.5051,-3.5603,-3.5663,-3.5674,-3.5684,-3.5674,-3.5758,-3.6141,-3.7178,-3.8005,-3.8881,-3.9841,-4.0566,-4.0944,-4.0813,-4.0726,-4.0617,-4.0531,-4.0516,-4.0516,-4.0516,-4.0516,-4.0516,-4.0516,-4.0516,-4.0516,-4.0516,-4.0516,-4.0516,-4.0516,-4.0516,-4.0516,-4.0516,-4.0516,-4.0516,-4.04,-3.8815,-3.8084,-3.7853,-3.6255,-3.5511,-3.5472,-3.5458,-3.5262,-3.5077,-3.5346,-3.5132,-3.4743,-4.1211,-4.1211,-4.1211,-4.1211,-4.1211,-4.1133,-4.0937,-4.1094,-4.1016,-4.043,-3.9336,-3.8476,-3.8086,-3.6836,-3.6016,-3.6016,-3.582,-3.5703,-3.5703,-3.4883,-3.4492,-3.4687,-3.3867,-3.3398,-3.3398,-3.3242,-3.2812,-3.2187,-3.1992,-3.1562,-3.0898,-3.0898,-3.0898,-3.0898,-3.0898,-3.0898,-3.0898,-3.0898,-3.0898,-3.0898,-3.0898,-3.0898,-3.0898,-3.0898,-3.0898,-3.0898,-3.0898,-3.0898,-3.0898,-3.0898,-3.0898,-3.0898,-3.0898,-3.0898,-3.0898,-3.0771,-3.0726,-3.072,-3.0683,-3.1174,-3.1712,-3.1891,-3.2951,-3.3816,-3.3092,-3.3245,-3.3647,-3.4244,-3.4571,-3.4929,-3.5465,-3.565,-3.5663,-3.5611,-3.6254,-3.7011,-3.7926,-3.8783,-3.9646,-4.0487,-4.0744,-4.0809,-4.0721,-4.0604,-4.0523,-4.0516,-4.0516,-4.0516,-4.0516,-4.0516,-4.0516,-4.0516,-4.0516,-4.0516,-4.0516,-4.0516,-4.0516,-4.0516,-4.0516,-4.0516,-4.0516,-4.0516,-4.0516,-4.0439,-3.9438,-3.8623,-3.7877,-3.6648,-3.5772,-3.5174,-3.4954,-3.4851,-3.4803,-3.486,-3.4812,-3.4723,-4.1211,-4.1211,-4.1211,-4.1211,-4.1211,-4.1211,-4.1211,-4.1211,-4.1055,-4.0625,-3.9805,-3.8906,-3.8086,-3.7187,-3.6445,-3.6055,-3.6016,-3.6016,-3.6016,-3.5195,-3.4492,-3.4057,-3.3588,-3.3154,-3.2709,-3.3099,-3.2957,-3.2187,-3.1797,-3.1367,-3.0898,-3.0898,-3.0898,-3.0898,-3.0898,-3.0898,-3.0898,-3.0898,-3.0898,-3.0898,-3.0898,-3.0898,-3.0898,-3.0898,-3.0858,-3.0814,-3.0814,-3.0768,-3.0755,-3.0755,-3.0755,-3.0755,-3.0755,-3.0755,-3.075,-3.0687,-3.0639,-3.0633,-3.0595,-3.1242,-3.1968,-3.2346,-3.3421,-3.4275,-3.3843,-3.4038,-3.4438,-3.4803,-3.4914,-3.5079,-3.5457,-3.557,-3.5731,-3.6072,-3.6555,-3.7327,-3.8631,-3.9223,-3.9824,-4.0696,-4.077,-4.0721,-4.0597,-4.0537,-4.0516,-4.0516,-4.0516,-4.0516,-4.0516,-4.0516,-4.0516,-4.0516,-4.0516,-4.0516,-4.0516,-4.0516,-4.0516,-4.0516,-4.0516,-4.0516,-4.0516,-4.0516,-4.0285,-3.9854,-3.8914,-3.7992,-3.7086,-3.5977,-3.5296,-3.4898,-3.4763,-3.4593,-3.4486,-3.4624,-3.4593,-3.4378,-4.1211,-4.1211,-4.1211,-4.1211,-4.1211,-4.1211,-4.1211,-4.1055,-4.0703,-4.0,-3.9766,-3.9141,-3.7695,-3.7383,-3.6953,-3.6094,-3.6016,-3.6015,-3.5975,-3.5155,-3.4329,-3.3558,-3.3362,-3.2834,-3.1918,-3.2622,-3.2714,-3.2145,-3.1403,-3.0973,-3.0856,-3.0856,-3.0856,-3.0856,-3.0856,-3.0856,-3.0856,-3.0856,-3.0856,-3.0856,-3.0856,-3.0856,-3.0856,-3.0856,-3.0768,-3.0664,-3.0664,-3.0635,-3.0583,-3.0583,-3.0583,-3.0583,-3.0583,-3.0583,-3.0619,-3.0763,-3.0717,-3.0639,-3.093,-3.1506,-3.226,-3.3011,-3.387,-3.4527,-3.4527,-3.5079,-3.5554,-3.5495,-3.55,-3.5538,-3.5692,-3.5692,-3.5962,-3.6769,-3.7046,-3.7679,-3.9185,-3.9513,-3.9868,-4.067,-4.0699,-4.0604,-4.0492,-4.0516,-4.0516,-4.0516,-4.0516,-4.0516,-4.0516,-4.0516,-4.0516,-4.0516,-4.0516,-4.05,-4.0422,-4.0422,-4.0406,-4.0364,-4.0364,-4.0389,-4.0422,-4.0381,-3.9904,-3.909,-3.7991,-3.7023,-3.6167,-3.5065,-3.4603,-3.4603,-3.4551,-3.4386,-3.4177,-3.4442,-3.4375,-3.4006,-4.1211,-4.1211,-4.1211,-4.1211,-4.1211,-4.1211,-4.1211,-4.0547,-4.0039,-3.9922,-3.9258,-3.8672,-3.8437,-3.7734,-3.6953,-3.6094,-3.6016,-3.5974,-3.5913,-3.509,-3.4525,-3.4353,-3.3604,-3.2781,-3.1918,-3.2035,-3.2044,-3.1946,-3.1829,-3.1398,-3.0653,-3.0653,-3.0653,-3.0653,-3.0653,-3.0653,-3.0653,-3.0653,-3.0653,-3.0653,-3.0653,-3.0653,-3.0653,-3.0653,-3.0647,-3.06,-3.06,-3.0595,-3.0583,-3.0583,-3.0583,-3.0583,-3.0583,-3.0583,-3.0727,-3.1417,-3.1082,-3.0828,-3.2216,-3.2682,-3.2985,-3.3814,-3.4687,-3.5341,-3.5341,-3.5418,-3.5489,-3.5507,-3.55,-3.5692,-3.6423,-3.6538,-3.6808,-3.77,-3.8469,-3.9022,-3.9283,-3.9899,-4.0414,-4.0514,-4.053,-4.0508,-4.0516,-4.0516,-4.0516,-4.0516,-4.0516,-4.0516,-4.0516,-4.0516,-4.0516,-4.0516,-4.0516,-4.0381,-4.0177,-4.0129,-4.0022,-3.9705,-3.9705,-3.9872,-4.0129,-3.9861,-3.9299,-3.8466,-3.7553,-3.6711,-3.5869,-3.4731,-3.4258,-3.4235,-3.3993,-3.3889,-3.385,-3.3902,-3.3889,-3.3837,-4.0966,-4.0966,-4.0966,-4.0966,-4.0966,-4.0966,-4.0966,-4.0654,-4.0418,-4.0418,-4.0067,-3.9676,-3.9206,-3.796,-3.6791,-3.5896,-3.5818,-3.5808,-3.5777,-3.5424,-3.4964,-3.4404,-3.3588,-3.2706,-3.1821,-3.1313,-3.1046,-3.1046,-3.1125,-3.0975,-3.0583,-3.0583,-3.0583,-3.0583,-3.0583,-3.0583,-3.0583,-3.0583,-3.0583,-3.0583,-3.0583,-3.0583,-3.0583,-3.0583,-3.0594,-3.0545,-3.0518,-3.0491,-3.0491,-3.0491,-3.0491,-3.0491,-3.0491,-3.0491,-3.0559,-3.093,-3.1102,-3.1323,-3.2024,-3.2891,-3.3705,-3.409,-3.4853,-3.55,-3.55,-3.55,-3.5615,-3.6077,-3.6154,-3.6423,-3.7276,-3.743,-3.77,-3.8584,-3.9053,-3.9477,-3.99,-4.0285,-4.0516,-4.0516,-4.0516,-4.0516,-4.0516,-4.0516,-4.0516,-4.0516,-4.0516,-4.0516,-4.0516,-4.0356,-4.0286,-4.0286,-4.0082,-3.9944,-3.9819,-3.9819,-3.9754,-3.9618,-3.9401,-3.926,-3.9147,-3.9017,-3.8244,-3.6961,-3.6419,-3.5739,-3.4918,-3.4253,-3.3992,-3.3943,-3.3873,-3.3807,-3.3807,-3.3807,-3.3807,-3.3733]},{"header":{"parameterUnit":"m.s-1","parameterCategory":1,"la1":30.6,"la2":28.766,"lo1":-90.7593,"lo2":-88.6598,"dy":0.0162,"dx":0.0183,"nx":116,"ny":114,"refTime":"2023-08-12T06:00:00:Z","depth":0,"parameterNumber":3,"parameterNumberName":"V-component_of_WINDS"},"data":[0.0,0.0,0.0,0.0,0.0,0.0,0.0,0.0,0.0,0.0,0.0,0.0,0.0,0.0,0.0,0.0,0.0,0.0,0.0,0.0,0.0,0.0,0.0,0.0,0.0,0.0,0.0,0.0,0.0,0.0,0.0,0.0,0.0,0.0,0.0,0.0,0.0,0.0,0.0,0.0,0.0,0.0,0.0,0.0,0.0,0.0,0.0,0.0,0.0,0.0,0.0,0.0,0.0,0.0,0.0,0.0,0.0,0.0,0.0,0.0,0.0,0.0,0.0,0.0,0.0,0.0,0.0,0.0,0.0,0.0,0.0,0.0,0.0,0.0,0.0,0.0,0.0,0.0,0.0,0.0,0.0,0.0,0.0,0.0,0.0,0.0,0.0,0.0,0.0,0.0,0.0,0.0,0.0,0.0,0.0,0.0,0.0,0.0,0.0,0.0,0.0,0.0,0.0,0.0,0.0,0.0,0.0,0.0,0.0,0.0,0.0,0.0,0.0,0.0,0.0,0.0,0.0,0.0,0.0,0.0,0.0,0.0,0.0,0.0,0.0,0.0,0.0,0.0,0.0,0.0,0.0,0.0,0.0,0.0,0.0,0.0,0.0,0.0,0.0,0.0,0.0,0.0,0.0,0.0,0.0,0.0,0.0,0.0,0.0,0.0,0.0,0.0,0.0,0.0,0.0,0.0,0.0,0.0,0.0,0.0,0.0,0.0,0.0,0.0,0.0,0.0,0.0,0.0,0.0,0.0,0.0,0.0,0.0,0.0,0.0,0.0,0.0,0.0,0.0,0.0,0.0,0.0,0.0,0.0,0.0,0.0,0.0,0.0,0.0,0.0,0.0,0.0,0.0,0.0,0.0,0.0,0.0,0.0,0.0,0.0,0.0,0.0,0.0,0.0,0.0,0.0,0.0,0.0,0.0,0.0,0.0,0.0,0.0,0.0,0.0,0.0,0.0,0.0,0.0,0.0,0.0,0.0,0.0,0.0,0.0,0.0,0.0,0.0,0.0,0.0,0.0,0.0,0.0,0.0,0.0,0.0,0.0,0.0,0.0,0.0,0.0,0.0,0.0,0.0,0.0,0.0,0.0,0.0,0.0,0.0,0.0,0.0,0.0,0.0,0.0,0.0,0.0,0.0,0.0,0.0,0.0,0.0,0.0,0.0,0.0,0.0,0.0,0.0,0.0,0.0,0.0,0.0,0.0,0.0,0.0,0.0,0.0,0.0,0.0,0.0,0.0,0.0,0.0,0.0,0.0,0.0,0.0,0.0,0.0,0.0,0.0,0.0,0.0,0.0,0.0,0.0,0.0,0.0,0.0,0.0,0.0,0.0,0.0,0.0,0.0,0.0,0.0,0.0,0.0,0.0,0.0,0.0,0.0,0.0,0.0,0.0,0.0,0.0,0.0,0.0,0.0,0.0,0.0,0.0,0.0,0.0,0.0,0.0,0.0,0.0,0.0,0.0,0.0,0.0,0.0,0.0,0.0,0.0,0.0,0.0,0.0,0.0,0.0,0.0,0.0,0.0,0.0,0.0,0.0,0.0,0.0,0.0,0.0,0.0,0.0,0.0,0.0,0.0,0.0,0.0,0.0,0.0,0.0,0.0,0.0,0.0,0.0,0.0,0.0,0.0,0.0,0.0,0.0,0.0,0.0,0.0,0.0,0.0,0.0,0.0,0.0,0.0,0.0,0.0,0.0,0.0,0.0,0.0,0.0,0.0,0.0,0.0,0.0,0.0,0.0,0.0,0.0,0.0,0.0,0.0,0.0,0.0,0.0,0.0,0.0,0.0,0.0,0.0,0.0,0.0,0.0,0.0,0.0,0.0,0.0,0.0,0.0,0.0,0.0,0.0,0.0,0.0,0.0,0.0,0.0,0.0,0.0,0.0,0.0,0.0,0.0,0.0,0.0,0.0,0.0,0.0,0.0,0.0,0.0,0.0,0.0,0.0,0.0,0.0,0.0,0.0,0.0,0.0,0.0,0.0,0.0,0.0,0.0,0.0,0.0,0.0,0.0,0.0,0.0,0.0,0.0,0.0,0.0,0.0,0.0,0.0,0.0,0.0,0.0,0.0,0.0,0.0,0.0,0.0,0.0,0.0,0.0,0.0,0.0,0.0,0.0,0.0,0.0,0.0,0.0,0.0,0.0,0.0,0.0,0.0,0.0,0.0,0.0,0.0,0.0,0.0,0.0,0.0,0.0,0.0,0.0,0.0,0.0,0.0,0.0,0.0,0.0,0.0,0.0,0.0,0.0,0.0,0.0,0.0,0.0,0.0,0.0,0.0,0.0,0.0,0.0,0.0,0.0,0.0,0.0,0.0,0.0,0.0,0.0,0.0,0.0,0.0,0.0,0.0,0.0,0.0,0.0,0.0,0.0,0.0,0.0,0.0,0.0,0.0,0.0,0.0,0.0,0.0,0.0,0.0,0.0,0.0,0.0,0.0,0.0,0.0,0.0,0.0,0.0,0.0,0.0,0.0,0.0,0.0,0.0,0.0,0.0,0.0,0.0,0.0,0.0,0.0,0.0,0.0,0.0,0.0,0.0,0.0,0.0,0.0,0.0,0.0,0.0,0.0,0.0,0.0,0.0,0.0,0.0,0.0,0.0,0.0,0.0,0.0,0.0,0.0,0.0,0.0,0.0,0.0,0.0,0.0,0.0,0.0,0.0,0.0,0.0,0.0,0.0,0.0,0.0,0.0,0.0,0.0,0.0,0.0,0.0,0.0,0.0,0.0,0.0,0.0,0.0,0.0,0.0,0.0,0.0,0.0,0.0,0.0,0.0,0.0,0.0,0.0,0.0,0.0,0.0,0.0,0.0,0.0,0.0,0.0,0.0,0.0,0.0,0.0,0.0,0.0,0.0,0.0,0.0,0.0,0.0,0.0,0.0,0.0,0.0,0.0,0.0,0.0,0.0,0.0,0.0,0.0,0.0,0.0,0.0,0.0,0.0,0.0,0.0,0.0,0.0,0.0,0.0,0.0,0.0,0.0,0.0,0.0,0.0,0.0,0.0,0.0,0.0,0.0,0.0,0.0,0.0,0.0,0.0,0.0,0.0,0.0,0.0,0.0,0.0,0.0,0.0,0.0,0.0,0.0,0.0,0.0,0.0,0.0,0.0,0.0,0.0,0.0,0.0,0.0,0.0,0.0,0.0,0.0,0.0,0.0,0.0,0.0,0.0,0.0,0.0,0.0,0.0,0.0,0.0,0.0,0.0,0.0,0.0,0.0,0.0,0.0,0.0,0.0,0.0,0.0,0.0,0.0,0.0,0.0,0.0,0.0,0.0,0.0,0.0,0.0,0.0,0.0,0.0,0.0,0.0,0.0,0.0,0.0,0.0,0.0,0.0,0.0,0.0,0.0,0.0,0.0,0.0,0.0,0.0,0.0,0.0,0.0,0.0,0.0,0.0,0.0,0.0,0.0,0.0,0.0,0.0,0.0,0.0,0.0,0.0,0.0,0.0,0.0,0.0,0.0,0.0,0.0,0.0,0.0,0.0,0.0,0.0,0.0,0.0,0.0,0.0,0.0,0.0,0.0,0.0,0.0,0.0,0.0,0.0,0.0,0.0,0.0,0.0,0.0,0.0,0.0,0.0,0.0,0.0,0.0,0.0,0.0,0.0,0.0,0.0,0.0,0.0,0.0,0.0,0.0,0.0,0.0,0.0,0.0,0.0,0.0,0.0,0.0,0.0,0.0,0.0,0.0,0.0,0.0,0.0,0.0,0.0,0.0,0.0,0.0,0.0,0.0,0.0,0.0,0.0,0.0,0.0,0.0,0.0,0.0,0.0,0.0,0.0,0.0,0.0,0.0,0.0,0.0,0.0,0.0,0.0,0.0,0.0,0.0,0.0,0.0,0.0,0.0,0.0,0.0,0.0,0.0,0.0,0.0,0.0,0.0,0.0,0.0,0.0,0.0,0.0,0.0,0.0,0.0,0.0,0.0,0.0,0.0,0.0,0.0,0.0,0.0,0.0,0.0,0.0,0.0,0.0,0.0,0.0,0.0,0.0,0.0,0.0,0.0,0.0,0.0,0.0,0.0,0.0,0.0,0.0,0.0,0.0,0.0,0.0,0.0,0.0,0.0,0.0,0.0,0.0,0.0,0.0,0.0,0.0,0.0,0.0,0.0,0.0,0.0,0.0,0.0,0.0,0.0,0.0,0.0,0.0,0.0,0.0,0.0,0.0,0.0,0.0,0.0,0.0,0.0,0.0,0.0,0.0,0.0,0.0,0.0,0.0,0.0,0.0,0.0,0.0,0.0,0.0,0.0,0.0,0.0,0.0,0.0,0.0,0.0,0.0,0.0,0.0,0.0,0.0,0.0,0.0,0.0,0.0,0.0,0.0,0.0,0.0,0.0,0.0,0.0,0.0,0.0,0.0,0.0,0.0,0.0,0.0,0.0,0.0,0.0,0.0,0.0,0.0,0.0,0.0,0.0,0.0,0.0,0.0,0.0,0.0,0.0,0.0,0.0,0.0,0.0,0.0,0.0,0.0,0.0,0.0,0.0,0.0,0.0,0.0,0.0,0.0,0.0,0.0,0.0,0.0,0.0,0.0,0.0,0.0,0.0,0.0,0.0,0.0,0.0,0.0,0.0,0.0,0.0,0.0,0.0,0.0,0.0,0.0,0.0,0.0,0.0,0.0,0.0,0.0,0.0,0.0,0.0,0.0,0.0,0.0,0.0,0.0,0.0,0.0,0.0,0.0,0.0,0.0,0.0,0.0,0.0,0.0,0.0,0.0,0.0,0.0,0.0,0.0,0.0,0.0,0.0,0.0,0.0,0.0,0.0,0.0,0.0,0.0,0.0,0.0,0.0,0.0,0.0,0.0,0.0,0.0,0.0,0.0,0.0,0.0,0.0,0.0,0.0,0.0,0.0,0.0,0.0,0.0,0.0,0.0,0.0,0.0,0.0,0.0,0.0,0.0,0.0,0.0,0.0,0.0,0.0,0.0,0.0,0.0,0.0,0.0,0.0,0.0,0.0,0.0,0.0,0.0,0.0,0.0,0.0,0.0,0.0,0.0,0.0,0.0,0.0,0.0,0.0,0.0,0.0,0.0,0.0,0.0,0.0,0.0,0.0,0.0,0.0,0.0,0.0,0.0,0.0,0.0,0.0,0.0,0.0,0.0,0.0,0.0,0.0,0.0,0.0,0.0,0.0,0.0,0.0,0.0,0.0,0.0,0.0,0.0,0.0,0.0,0.0,0.0,0.0,0.0,0.0,0.0,0.0,0.0,0.0,0.0,0.0,0.0,0.0,0.0,0.0,0.0,0.0,0.0,0.0,0.0,0.0,0.0,0.0,0.0,0.0,0.0,0.0,0.0,0.0,0.0,0.0,0.0,0.0,0.0,0.0,0.0,0.0,0.0,0.0,0.0,0.0,0.0,0.0,0.0,0.0,0.0,0.0,0.0,0.0,0.0,0.0,0.0,0.0,0.0,0.0,0.0,0.0,0.0,0.0,0.0,0.0,0.0,0.0,0.0,0.0,0.0,0.0,0.0,0.0,0.0,0.0,0.0,0.0,0.0,0.0,0.0,0.0,0.0,0.0,0.0,0.0,0.0,0.0,0.0,0.0,0.0,0.0,0.0,0.0,0.0,0.0,0.0,0.0,0.0,0.0,0.0,0.0,0.0,0.0,0.0,0.0,0.0,0.0,0.0,0.0,0.0,0.0,0.0,0.0,0.0,0.0,0.0,0.0,0.0,0.0,0.0,0.0,0.0,0.0,0.0,0.0,0.0,0.0,0.0,0.0,0.0,0.0,0.0,0.0,0.0,0.0,0.0,0.0,0.0,0.0,0.0,0.0,0.0,0.0,0.0,0.0,0.0,0.0,0.0,0.0,0.0,0.0,0.0,0.0,0.0,0.0,0.0,0.0,0.0,0.0,0.0,0.0,0.0,0.0,0.0,0.0,0.0,0.0,0.0,0.0,0.0,0.0,0.0,0.0,0.0,0.0,0.0,0.0,0.0,0.0,0.0,0.0,0.0,0.0,0.0,0.0,0.0,0.0,0.0,0.0,0.0,0.0,0.0,0.0,0.0,0.0,0.0,0.0,0.0,0.0,0.0,0.0,0.0,0.0,0.0,0.0,-0.6928,0.0,0.0,0.0,0.0,0.0,0.0,0.0,0.0,0.0,0.0,0.0,0.0,0.0,0.0,0.0,0.0,0.0,0.0,0.0,0.0,0.0,0.0,0.0,0.0,0.0,0.0,0.0,0.0,0.0,0.0,0.0,0.0,0.0,0.0,0.0,0.0,0.0,0.0,0.0,0.0,0.0,0.0,0.0,0.0,0.0,0.0,0.0,0.0,0.0,0.0,0.0,0.0,0.0,0.0,0.0,0.0,0.0,0.0,0.0,0.0,0.0,0.0,0.0,0.0,0.0,0.0,0.0,0.0,0.0,0.0,0.0,0.0,0.0,0.0,0.0,0.0,0.0,0.0,0.0,0.0,0.0,0.0,0.0,0.0,0.0,0.0,0.0,0.0,0.0,0.0,0.0,0.0,0.0,0.0,0.0,0.0,0.0,0.0,0.0,0.0,0.0,0.0,0.0,0.0,0.0,0.0,0.0,0.0,0.0,0.0,0.0,0.0,0.0,0.0,0.0,0.0,-0.8057,0.0,0.0,0.0,0.0,0.0,0.0,0.0,0.0,0.0,0.0,0.0,0.0,0.0,0.0,0.0,0.0,0.0,0.0,0.0,0.0,0.0,0.0,0.0,0.0,0.0,0.0,0.0,0.0,0.0,0.0,0.0,0.0,0.0,0.0,0.0,0.0,0.0,0.0,0.0,0.0,0.0,0.0,0.0,0.0,0.0,0.0,0.0,0.0,0.0,0.0,0.0,0.0,0.0,0.0,0.0,0.0,0.0,0.0,0.0,0.0,0.0,0.0,0.0,0.0,0.0,0.0,0.0,0.0,0.0,0.0,0.0,0.0,0.0,0.0,0.0,0.0,0.0,0.0,0.0,0.0,0.0,0.0,0.0,0.0,0.0,0.0,0.0,0.0,0.0,0.0,0.0,0.0,0.0,0.0,0.0,0.0,0.0,0.0,0.0,0.0,0.0,0.0,0.0,0.0,0.0,0.0,0.0,0.0,0.0,-0.8804,-0.8899,-0.875,-0.8941,-0.9444,-1.0072,-1.0469,-1.0737,0.0,0.0,0.0,0.0,0.0,0.0,0.0,0.0,0.0,0.0,0.0,0.0,0.0,0.0,0.0,0.0,0.0,0.0,0.0,0.0,0.0,0.0,0.0,0.0,0.0,0.0,0.0,0.0,0.0,0.0,0.0,0.0,0.0,0.0,0.0,0.0,0.0,0.0,0.0,-0.7907,-0.8255,-0.8506,-0.8622,-0.8058,0.0,0.0,0.0,0.0,0.0,0.0,0.0,0.0,0.0,0.0,0.0,0.0,0.0,0.0,0.0,0.0,0.0,0.0,0.0,0.0,0.0,0.0,0.0,0.0,0.0,0.0,0.0,0.0,0.0,0.0,0.0,0.0,0.0,0.0,0.0,0.0,0.0,0.0,0.0,0.0,0.0,0.0,0.0,-0.2931,-0.3223,0.0,0.0,0.0,0.0,0.0,0.0,0.0,0.0,0.0,0.0,0.0,0.0,0.0,0.0,-0.8587,-0.913,-0.9367,-0.93,-0.9666,-0.9721,-0.9666,-0.9523,-1.1028,-1.3761,-1.3735,0.0,-1.0245,-0.9766,0.0,0.0,0.0,0.0,0.0,0.0,0.0,0.0,0.0,0.0,0.0,0.0,0.0,0.0,0.0,0.0,0.0,0.0,0.0,0.0,0.0,0.0,0.0,0.0,0.0,0.0,0.0,0.0,0.0,0.0,0.0,0.0,0.0,0.0,0.0,0.0,-0.7346,-0.7936,-0.8425,-0.8804,-0.9103,-0.9306,-0.9055,-0.8352,-0.7433,-0.6559,0.0,0.0,0.0,0.0,0.0,0.0,0.0,0.0,0.0,0.0,0.0,0.0,0.0,0.0,0.0,0.0,0.0,0.0,0.0,0.0,0.0,0.0,0.0,0.0,0.0,0.0,0.0,0.0,0.0,0.0,0.0,0.0,0.0,0.0,0.0,0.0,0.0,0.0,0.0,-0.3263,-0.3948,-0.4867,-0.5485,-0.5907,0.0,0.0,0.0,0.0,0.0,0.0,0.0,0.0,0.0,-0.8431,-0.8825,-0.9164,-0.9397,-0.989,-1.0161,-1.0263,-1.0371,-1.0368,-1.0388,-1.0304,-1.1017,-1.2455,-1.3314,-1.3361,-1.2936,-1.3594,-1.4136,-1.4422,0.0,0.0,0.0,0.0,0.0,-1.4015,0.0,0.0,0.0,0.0,0.0,0.0,0.0,0.0,0.0,0.0,0.0,0.0,0.0,0.0,0.0,-0.6973,0.0,0.0,0.0,0.0,0.0,0.0,0.0,0.0,0.0,0.0,0.0,0.0,-0.8092,-0.8628,-0.9008,-0.9456,-0.9747,-0.9903,-1.0046,-0.8842,-0.6801,-0.6683,-0.5006,0.0,0.0,0.0,0.0,0.0,0.0,0.0,0.0,0.0,0.0,0.0,0.0,0.0,0.0,0.0,0.0,0.0,0.0,0.0,0.0,0.0,0.0,0.0,0.0,0.0,0.0,0.0,0.0,0.0,0.0,0.0,0.0,0.0,0.0,0.0,0.0,0.0,0.0,-0.4668,-0.5277,-0.643,-0.7339,-0.7692,0.0,0.0,0.0,0.0,0.0,0.0,-0.8309,-0.8608,-0.8927,-0.9273,-0.9639,-0.9998,-1.0331,-1.0514,-1.0744,-1.1002,-1.0812,-1.0799,-1.0873,-1.0792,-1.0916,-1.1431,-1.3108,-1.4588,-1.5866,-1.6794,-1.6873,-1.6326,-1.5671,-1.5231,-1.4963,-1.4963,-1.4923,-1.4923,0.0,0.0,0.0,0.0,0.0,0.0,0.0,0.0,0.0,0.0,0.0,0.0,0.0,0.0,-0.7098,-0.7706,-0.7665,-0.7597,0.0,0.0,0.0,0.0,0.0,0.0,0.0,0.0,0.0,-0.7941,-0.8555,-0.9141,-0.9774,-1.0222,-1.0521,-1.067,-1.0759,-0.9703,-0.7706,-0.7105,-0.5996,-0.462,0.0,0.0,0.0,0.0,0.0,0.0,0.0,0.0,0.0,0.0,0.0,0.0,0.0,0.0,0.0,0.0,0.0,0.0,0.0,0.0,0.0,0.0,0.0,0.0,0.0,0.0,0.0,0.0,0.0,0.0,0.0,0.0,0.0,0.0,0.0,0.0,0.0,0.0,0.0,-0.7319,-0.8106,0.0,0.0,0.0,0.0,-0.8265,-0.8621,-0.894,-0.9146,-0.9388,-0.9754,-1.0202,-1.0365,-1.0656,-1.1173,-1.0989,-1.1002,-1.1151,-1.086,-1.0799,-1.0873,-1.0792,-1.1571,-1.3259,-1.4995,-1.6605,-1.7882,-1.6645,-1.6869,-1.7822,-1.6954,-1.6446,-1.6228,-1.6228,-1.6005,-1.5758,0.0,0.0,0.0,0.0,0.0,0.0,0.0,0.0,0.0,0.0,0.0,0.0,0.0,-0.7468,-0.7957,-0.8357,-0.8608,-0.8547,-0.8065,0.0,0.0,0.0,0.0,0.0,0.0,0.0,-0.7957,-0.8757,-0.9259,-0.9761,-1.0256,-1.0419,-1.0622,-1.0873,-1.1023,-1.006,-0.8163,-0.6714,-0.5018,-0.3374,-0.4191,-0.5082,0.0,0.0,0.0,0.0,0.0,0.0,0.0,0.0,0.0,0.0,0.0,0.0,0.0,0.0,0.0,0.0,0.0,0.0,0.0,0.0,0.0,0.0,0.0,0.0,0.0,0.0,0.0,0.0,0.0,0.0,0.0,0.0,0.0,0.0,0.0,0.0,0.0,-0.8133,-0.9028,0.0,0.0,-0.8866,-0.9028,-0.9123,-0.9367,-0.9652,-0.9998,-1.0209,-1.0446,-1.0704,-1.0941,-1.1097,-1.1234,-1.1212,-1.1212,-1.1227,-1.0962,-1.0826,-1.0873,-1.0792,-1.1049,-1.1762,-1.4679,-1.6113,-1.656,-1.8118,-1.868,-1.8531,-1.7782,-1.7382,-1.7139,-1.6951,-1.6887,-1.6914,0.0,0.0,0.0,0.0,0.0,0.0,0.0,0.0,0.0,0.0,0.0,-0.6647,-0.7253,-0.7997,-0.8601,-0.9042,-0.9218,-0.9049,-0.8459,0.0,0.0,0.0,0.0,0.0,0.0,-0.8011,-0.8628,-0.9381,-0.9781,-1.0154,-1.0493,-1.0595,-1.0751,-1.0887,-1.1151,-1.0253,-0.8408,-0.7166,-0.5426,-0.361,-0.4643,-0.5672,-0.6728,0.0,0.0,0.0,0.0,0.0,0.0,0.0,0.0,0.0,0.0,0.0,0.0,0.0,0.0,0.0,0.0,0.0,0.0,0.0,0.0,0.0,0.0,0.0,0.0,0.0,0.0,0.0,0.0,0.0,0.0,0.0,0.0,0.0,0.0,0.0,-0.8233,-0.8963,-0.9775,-1.0051,-0.951,-0.9686,-0.9876,-0.9978,-1.012,-1.0331,-1.0629,-1.0785,-1.0914,-1.1016,-1.126,-1.1341,-1.124,-1.1287,-1.124,-1.109,-1.0941,-1.0806,-1.0799,-1.0765,-1.0717,-1.085,-1.3774,-1.5252,-1.5798,-1.8322,-1.9343,-1.9305,-1.8718,-1.8303,-1.7996,-1.7769,-1.7662,-1.7635,0.0,0.0,0.0,0.0,0.0,0.0,0.0,0.0,0.0,0.0,-0.6115,-0.6716,-0.7706,-0.8364,-0.9028,-0.9768,-0.9408,-0.9071,-0.8723,-0.7665,0.0,0.0,0.0,0.0,-0.7834,-0.8438,-0.911,-0.9849,-1.0148,-1.0371,-1.0521,-1.0812,-1.0887,-1.0914,-1.1267,-1.0395,-0.8616,-0.8758,-0.7615,-0.5921,-0.6974,-0.742,-0.7506,0.0,0.0,0.0,0.0,0.0,0.0,0.0,0.0,0.0,0.0,0.0,0.0,0.0,0.0,0.0,0.0,0.0,0.0,0.0,0.0,0.0,0.0,0.0,0.0,0.0,0.0,0.0,0.0,0.0,0.0,0.0,0.0,0.0,-0.8506,-0.9171,-0.97,-0.9856,-1.0456,-1.0671,-1.0085,-1.0487,-1.0744,-1.0744,-1.0887,-1.09,-1.0894,-1.109,-1.1234,-1.1234,-1.1307,-1.1382,-1.1382,-1.1233,-1.1084,-1.088,-1.0725,-1.0717,-1.0717,-1.0717,-1.0717,-1.0784,-1.261,-1.4353,-1.5992,-1.719,-1.8667,-2.0147,-1.9586,-1.9185,-1.8905,-1.8597,-1.829,-1.7862,0.0,0.0,0.0,0.0,0.0,0.0,0.0,0.0,0.0,0.0,-0.6288,-0.7061,-0.784,-0.871,-0.9408,-0.9876,-0.9279,-0.875,-0.856,0.0,0.0,0.0,0.0,0.0,-0.8825,-0.9266,-0.9829,-1.0473,-1.0555,-1.0731,-1.0975,-1.0955,-1.1055,-1.1436,-1.1402,-1.1279,-1.1123,-1.1021,-1.0646,-0.9982,-0.8253,-0.8155,-0.9089,0.0,0.0,0.0,0.0,0.0,0.0,0.0,0.0,0.0,0.0,0.0,0.0,0.0,0.0,0.0,0.0,0.0,0.0,0.0,0.0,0.0,0.0,0.0,0.0,0.0,0.0,0.0,0.0,0.0,0.0,0.0,0.0,-0.9408,-0.9449,-1.0005,-1.0548,-1.0914,-1.124,-1.1328,-1.105,-1.1233,-1.1328,-1.1212,-1.1348,-1.1389,-1.1274,-1.1199,-1.1234,-1.1234,-1.1275,-1.1226,-1.1226,-1.1077,-1.0921,-1.088,-1.0725,-1.0717,-1.0717,-1.0717,-1.0717,-1.085,-1.3905,-1.5218,-1.5491,-1.83,-1.9554,-1.9586,-1.9484,-1.9319,-1.9185,-1.8677,-1.8156,-1.7675,0.0,0.0,0.0,0.0,0.0,0.0,0.0,0.0,0.0,0.0,-0.6329,-0.7119,-0.7787,-0.8655,-0.93,-0.9505,-0.8933,-0.8384,-0.8038,0.0,0.0,0.0,0.0,-0.8642,-0.9327,-0.9781,-1.0249,-1.0717,-1.0785,-1.09,-1.1077,-1.1179,-1.1369,-1.1619,-1.1653,-1.1816,-1.2054,-1.1965,-1.1925,-1.179,-1.0015,-0.9788,-1.0487,-0.964,-0.9374,-0.9266,-0.8859,-0.8655,-0.8621,-0.8296,0.0,0.0,0.0,0.0,0.0,0.0,0.0,0.0,0.0,0.0,0.0,0.0,0.0,0.0,0.0,0.0,0.0,0.0,0.0,0.0,0.0,0.0,0.0,0.0,-0.9937,-1.0588,-1.09,-1.1029,-1.126,-1.1714,-1.1735,-1.1701,-1.1674,-1.164,-1.1633,-1.1667,-1.164,-1.1579,-1.1491,-1.1341,-1.1226,-1.1234,-1.1234,-1.1131,-1.1077,-1.105,-1.0975,-1.0853,-1.0759,-1.0778,-1.0717,-1.0717,-1.1108,0.0,-1.3817,-1.5248,-1.6439,-1.8228,-1.9171,0.0,0.0,0.0,0.0,0.0,-1.8183,-1.7742,0.0,0.0,0.0,0.0,0.0,0.0,0.0,0.0,0.0,0.0,0.0,-0.7061,-0.7475,-0.8309,-0.8797,-0.8831,-0.8431,-0.7909,0.0,0.0,0.0,-0.8181,-0.8591,-0.9195,-0.9965,-1.0232,-1.0473,-1.0772,-1.0826,-1.0907,-1.0968,-1.143,-1.164,-1.1681,-1.1945,-1.2162,-1.2135,-1.2121,-1.2121,-1.2108,-1.1816,-1.1667,-1.1511,-1.0462,-1.029,-1.0385,-0.963,-0.9198,-0.9006,-0.8872,0.0,0.0,0.0,0.0,0.0,0.0,0.0,0.0,0.0,0.0,0.0,0.0,0.0,0.0,0.0,0.0,0.0,0.0,0.0,0.0,0.0,0.0,0.0,0.0,-1.1043,-1.1782,-1.2481,-1.2128,-1.1925,-1.2271,-1.2074,-1.1945,-1.2128,-1.1837,-1.1789,-1.202,-1.1809,-1.1653,-1.1619,0.0,0.0,0.0,0.0,-1.1056,-1.088,-1.1056,-1.0989,-1.0744,-1.0799,-1.0853,-1.0717,-1.0717,-1.1563,-1.2988,-1.3147,-1.4964,-1.773,-1.7596,-1.8404,-1.972,-1.9466,-1.9403,-1.931,-1.8691,-1.8303,0.0,0.0,0.0,0.0,0.0,0.0,0.0,0.0,0.0,0.0,-0.5378,-0.6166,-0.6824,-0.7034,-0.7705,-0.8258,-0.8547,-0.7828,-0.7213,0.0,0.0,-0.8434,-1.0525,-0.9834,-1.0309,-1.2233,-1.1171,-1.0778,-1.1077,-1.0989,-1.1062,-1.1491,-1.1579,-1.1748,-1.1979,-1.204,-1.2264,-1.2589,-1.2467,-1.2488,-1.2576,-1.2277,-1.1945,-1.1558,-1.0921,-1.0656,-1.0453,-1.0168,-1.0046,-0.9958,-0.9564,-0.9557,-0.9678,-0.9152,0.0,0.0,0.0,0.0,0.0,0.0,0.0,0.0,0.0,0.0,0.0,0.0,0.0,0.0,0.0,0.0,0.0,0.0,0.0,0.0,-1.1043,-1.1904,-1.2603,-1.299,-1.2942,-1.2773,-1.2494,-1.2406,-1.2291,-1.2155,-1.2121,-1.2081,-1.1891,-1.1938,-1.187,-1.1633,-1.1355,0.0,-1.1234,-1.0928,-1.0853,-1.088,-1.0853,-1.0839,-1.0833,0.0,0.0,-1.0717,-1.0717,-1.085,-1.1372,-1.4122,-1.5459,-1.5815,-1.8508,-1.9569,-1.9452,-1.9444,-1.9225,-1.8971,-1.8624,-1.8303,-1.7942,0.0,0.0,0.0,0.0,0.0,0.0,0.0,0.0,0.0,0.0,-0.6054,-0.6539,-0.6681,-0.7186,-0.757,-0.7699,-0.7224,0.0,0.0,-0.9306,-1.0408,-1.2829,-1.2713,-1.3084,-1.4285,-1.3787,-1.3161,-1.2331,-1.2483,-1.265,-1.2902,-1.3233,-1.3992,-1.5208,-1.5471,-1.5761,-1.5945,-1.4758,-1.4229,-1.4129,-1.2747,-1.204,-1.1789,-1.1341,-1.1029,-1.0812,-1.0663,-1.0514,-1.0365,-1.0215,-1.0215,-1.0272,-0.9896,-0.9456,-0.8988,0.0,0.0,0.0,0.0,0.0,0.0,0.0,0.0,0.0,0.0,0.0,0.0,0.0,0.0,-1.24,0.0,0.0,-1.3216,-1.3831,-1.3447,-1.3119,-1.3268,-1.3288,-1.3173,-1.2874,-1.2705,-1.2556,-1.2413,-1.2264,-1.2142,-1.2067,-1.1925,-1.1809,-1.1728,-1.1369,-1.1234,-1.1234,-1.0873,-1.0758,-1.0766,-1.0766,-1.0766,-1.0766,-1.0766,-1.0725,-1.0717,-1.0717,-1.163,-1.3316,-1.4068,-1.5623,-1.7725,-1.9176,-1.9626,-1.943,-1.943,-1.9279,-1.9105,-1.8811,-1.8517,-1.8223,0.0,0.0,0.0,0.0,0.0,0.0,0.0,0.0,0.0,0.0,0.0,-0.6315,-0.656,-0.6757,-0.6921,0.0,0.0,0.0,0.0,-1.1565,-1.2631,-1.5093,-1.5451,-1.5867,-1.6339,-1.6474,-1.5797,-1.4305,-1.4717,-1.4903,-1.4947,-1.5576,-1.6731,-1.8384,-1.8841,-1.9243,-1.9358,-1.7423,-1.6311,-1.565,-1.3567,-1.244,-1.1972,-1.1552,-1.1314,-1.1179,-1.0941,-1.0643,-1.0385,-1.0541,-1.0527,-1.0432,-1.0351,-1.0154,-0.9747,-0.8703,-0.8316,0.0,0.0,0.0,0.0,0.0,0.0,0.0,0.0,0.0,-1.0808,-1.3548,-1.4706,-1.5209,-1.5349,-1.562,-1.582,-1.5797,-1.4475,-1.3437,-1.3403,-1.3403,-1.3336,-1.3152,-1.2922,-1.2739,-1.2651,-1.2318,-1.2135,-1.2196,-1.1864,-1.1701,-1.1782,-1.1416,-1.1261,-1.1234,-1.0907,-1.0751,-1.0717,-1.0846,-1.0839,-1.0724,-1.0779,-1.0772,-1.0717,-1.0717,-1.2413,-1.532,-1.4345,-1.6286,-2.0127,-1.9666,-1.947,-1.943,-1.943,-1.943,-1.939,-1.9038,-1.8744,-1.845,0.0,0.0,0.0,0.0,0.0,0.0,0.0,0.0,0.0,0.0,0.0,0.0,0.0,0.0,0.0,0.0,0.0,0.0,-1.1619,-1.2628,-1.4457,-1.716,-1.6484,-1.685,-1.8599,-1.7612,-1.7072,-1.7067,-1.7308,-1.753,-1.7659,-1.8195,-1.8501,-1.8768,-1.9141,-1.9478,-1.9592,-1.9054,-1.7745,-1.5906,-1.5228,-1.3706,-1.1823,-1.1511,-1.1382,-1.1294,-1.0738,-1.0263,-0.9917,-1.0011,-1.0202,-1.0324,-1.0432,-1.0446,-1.0215,-0.9171,0.0,-0.7934,-0.7604,-0.8791,-0.9954,-0.9369,-1.0113,-1.2012,0.0,0.0,-1.741,-2.1609,-2.1675,-2.049,-1.8507,-1.713,-1.5734,-1.4027,-1.3659,-1.3553,-1.3417,-1.3403,-1.3295,-1.3017,-1.2956,-1.2779,-1.2379,-1.2291,-1.2155,-1.1904,-1.1837,-1.1755,-1.1647,-1.1463,-1.1301,-1.1165,-1.1009,-1.0793,-1.0724,-1.0738,-1.0738,-1.0717,-1.0738,-1.0738,-1.0717,-1.0717,-1.1762,-1.3766,-1.6382,-1.8543,-2.0214,-1.988,-1.9599,-1.943,-1.943,-1.943,-1.939,-1.9038,-1.8744,-1.845,0.0,0.0,0.0,0.0,0.0,0.0,0.0,0.0,0.0,0.0,0.0,0.0,0.0,0.0,0.0,0.0,0.0,0.0,-1.3443,-1.432,-1.5943,-1.8758,-1.8976,-1.9478,-2.0488,-2.0503,-2.0014,-1.8997,-1.9457,-1.9703,-1.9743,-2.0296,-2.121,-2.2452,-2.2983,-2.3369,-2.3428,-2.0573,-1.8717,-1.7454,-1.4584,-1.2721,-1.1545,-1.1246,-1.0968,-1.069,-1.0256,-0.9869,0.0,0.0,-0.9686,-0.9917,-1.0053,-1.0046,-0.9923,-0.9699,-0.9094,0.0,-0.9839,-1.152,0.0,0.0,-1.4398,-1.6151,-1.9145,-1.9069,-1.9277,-2.2373,-2.2995,-2.2264,-2.0193,-1.9182,-1.8009,0.0,-1.4416,-1.3444,-1.3288,-1.3119,-1.2868,-1.2481,-1.2359,-1.2298,-1.2291,-1.2128,-1.1965,-1.1837,-1.1755,-1.1681,-1.1619,-1.1389,-1.1226,-1.1234,-1.0934,-1.0785,-1.0717,-1.0717,-1.0717,-1.0717,-1.0717,-1.124,-1.2215,-1.2215,-1.3128,-1.4985,-1.8015,-1.9098,-1.8704,-1.9305,-1.9479,-1.943,-1.943,-1.943,-1.9359,-1.9225,-1.8891,-1.8477,0.0,0.0,0.0,0.0,0.0,0.0,0.0,0.0,0.0,0.0,0.0,0.0,0.0,0.0,0.0,0.0,0.0,0.0,0.0,-1.5158,-1.6468,-1.8282,-1.9517,-2.017,-2.0151,-2.1504,-2.1565,-2.0226,-2.1257,-2.1811,-2.1824,-2.2362,-2.3491,-2.5104,-2.5531,-2.5879,-2.5949,-2.2377,-2.0135,-1.8591,-1.5007,-1.2691,-1.1287,-1.0907,-1.046,-0.9992,-0.9686,-0.9334,0.0,0.0,-0.896,-0.9205,-0.9347,-0.9408,-0.9537,-1.0267,-1.0275,-1.0493,-1.2223,0.0,0.0,-1.67,-1.8084,-1.9821,-2.1594,-2.1279,-2.1176,-2.3387,-2.4172,-2.3672,-2.0934,-2.0544,0.0,-1.7185,-1.5105,-1.3848,-1.3938,-1.3147,-1.2393,-1.1986,-1.1694,-1.1626,-1.1898,-1.1789,-1.1694,-1.1647,-1.1592,-1.1558,-1.1558,-1.1389,-1.1253,-1.1165,-1.0955,-1.0806,-1.0717,-1.0717,-1.0717,-1.0717,-1.0717,-1.163,-1.3325,-1.4297,-1.5365,-1.6647,-1.9212,-1.9511,-1.8289,-1.9168,-1.9497,-1.943,-1.943,-1.943,-1.9417,-1.9279,-1.8931,-1.849,0.0,0.0,0.0,0.0,0.0,0.0,0.0,0.0,0.0,0.0,0.0,0.0,0.0,0.0,0.0,0.0,0.0,0.0,0.0,-1.4625,-1.5505,-1.4782,-1.6676,-1.7359,-1.6567,-1.9095,-2.0378,-2.0497,-2.2942,-2.4109,-2.4123,-2.4342,-2.4722,-2.5077,-2.5104,-2.5264,-2.5504,-2.4754,-2.2226,-1.8568,-1.7674,-1.485,-1.1104,-1.0521,-0.993,-0.9367,-0.9069,0.0,0.0,0.0,-0.7957,-0.8062,-0.8269,-0.8615,0.0,-1.0675,-1.2077,0.0,0.0,0.0,-1.825,-1.8363,-2.019,-2.2207,-2.3301,-2.3782,-2.4656,-2.6698,-2.692,-2.532,-2.0772,-2.0671,-2.0124,-1.645,-1.5391,-1.5179,-1.5663,-1.3641,-1.1972,-1.1667,-1.1111,-1.0812,0.0,-1.124,-1.1341,-1.1261,-1.1314,-1.1396,-1.1396,-1.1531,-1.147,-1.1241,-1.122,-1.1009,-1.0724,-1.0717,-1.0717,-1.0717,-1.0717,-1.163,-1.339,-1.6818,-1.8244,-1.8136,-1.9897,-2.0334,-1.9754,-1.98,-1.9626,-1.943,-1.943,-1.943,-1.9332,-1.9038,-1.8744,-1.849,0.0,0.0,0.0,0.0,0.0,0.0,0.0,0.0,0.0,0.0,0.0,0.0,0.0,0.0,0.0,0.0,0.0,0.0,0.0,-1.2838,-1.3488,-1.4353,-1.5349,-1.591,-1.596,-1.7387,-1.8766,-2.006,-2.1126,-2.2237,-2.3313,-2.3621,-2.3821,-2.3928,-2.4128,-2.4369,-2.4449,-2.1352,-1.9253,-1.7877,-1.444,-1.2195,-1.0649,-1.0059,-0.9401,-0.8723,0.0,0.0,0.0,-0.7156,-0.7177,-0.7301,-0.7597,-0.839,-0.9518,-1.1396,-1.4088,-1.6527,0.0,0.0,-2.2172,-2.3228,-2.4519,-2.5718,-2.647,-2.6768,-2.6856,-2.668,-2.5985,-2.3908,-1.9264,-1.9041,-1.8454,-1.5404,-1.4761,-1.4793,-1.5278,-1.3506,-1.1952,-1.119,-1.2088,0.0,0.0,0.0,0.0,-1.1214,-1.1307,-1.1389,-1.1389,-1.1538,-1.1525,-1.1321,-1.1124,-1.0975,-1.0806,-1.0772,-1.0717,-1.0717,-1.3062,-1.507,-1.6818,-1.9152,-2.0105,-1.9835,-2.0209,-2.016,-1.9786,-1.9586,-1.9452,-1.9403,-1.9145,-1.9078,-1.9038,-1.8744,-1.845,-1.8196,0.0,0.0,0.0,0.0,0.0,0.0,0.0,0.0,0.0,0.0,0.0,0.0,0.0,0.0,0.0,0.0,0.0,0.0,0.0,0.0,-1.1157,-1.1796,-1.2611,-1.3065,-1.3128,-1.4395,-1.5867,-1.7632,-1.8706,-1.9853,-2.0942,-2.1713,-2.1899,-2.1693,-2.2375,-2.2886,-2.3081,-2.014,-1.847,-1.7417,-1.3731,-1.1563,-1.0472,-0.9445,-0.8648,0.0,0.0,0.0,0.0,-0.6607,-0.6681,-0.697,-0.7746,-0.9557,-1.1745,-1.338,-1.6174,-1.91,-2.0444,-2.2492,-2.4636,-2.6398,-2.7243,-2.7765,-2.814,-2.7899,-2.7188,-2.6012,-2.4569,-2.2166,-1.7647,-1.7659,-1.7537,-1.5261,-1.5074,-1.535,-1.5757,-1.3954,-1.2209,-1.1227,-1.2051,0.0,0.0,0.0,0.0,-1.105,-1.1294,-1.145,-1.1396,-1.1633,-1.1681,-1.1477,-1.1287,-1.1042,-1.088,-1.0786,-1.0772,-1.0717,-1.4232,-1.6496,-1.7667,-2.0005,-2.0895,-2.0508,-2.0307,-2.0013,-1.9626,-1.9439,-1.9305,-1.9185,-1.8998,-1.8865,-1.8731,-1.8437,-1.8155,-1.7995,0.0,0.0,0.0,0.0,0.0,0.0,0.0,0.0,0.0,0.0,0.0,0.0,0.0,0.0,0.0,0.0,0.0,0.0,0.0,0.0,0.0,-0.7444,-0.8651,-0.9076,-0.8477,-1.0363,-1.2077,-1.3593,-1.5908,-1.7138,-1.7322,-1.8861,-1.9215,-1.8654,-1.9928,-2.0828,-2.1413,-2.0979,-1.9386,-1.7063,-1.5141,-1.2843,-1.0403,-0.87,0.0,0.0,0.0,0.0,0.0,0.0,0.0,0.0,0.0,-1.2096,-1.546,-1.6434,-1.8474,-2.1042,-2.3928,-2.497,-2.5732,-2.7765,-2.8248,-2.8234,-2.8167,-2.7161,-2.5972,-2.473,-2.2819,-2.0106,0.0,0.0,-1.7439,-1.6,-1.6381,-1.6989,-1.7184,-1.5014,-1.2966,0.0,0.0,0.0,0.0,0.0,0.0,-1.1143,0.0,-1.1759,-1.155,-1.2049,-1.2086,-1.1653,-1.1626,-1.1416,-1.0921,-1.0894,-1.0941,-1.0982,-1.4297,-1.5978,-1.6302,-1.961,-2.0788,-2.0167,-2.0167,-1.9907,-1.943,-1.9359,-1.9185,-1.8918,-1.8891,-1.8704,-1.8437,-1.8075,-1.7969,-1.7969,0.0,0.0,0.0,0.0,0.0,0.0,0.0,0.0,0.0,0.0,0.0,0.0,0.0,0.0,0.0,0.0,0.0,0.0,0.0,0.0,0.0,0.0,0.0,0.0,-0.7814,-0.8521,-0.9828,-1.1748,-1.238,-1.3742,-1.5773,-1.6373,-1.7016,-1.7603,-1.7941,-1.837,-1.8821,-1.7018,-1.5612,-1.4462,0.0,-1.0396,-0.9053,0.0,0.0,0.0,0.0,0.0,0.0,0.0,0.0,0.0,0.0,-1.4852,-1.679,-1.9197,-2.133,-2.3273,-2.5117,-2.664,-2.7829,-2.8364,-2.8484,-2.8257,-2.7362,-2.6253,-2.4823,-2.2766,-2.0535,-1.8,0.0,0.0,0.0,-1.6726,-1.7638,0.0,-1.9481,-1.8228,0.0,0.0,0.0,-1.7027,-1.4198,-1.6606,0.0,0.0,-1.5565,-1.5034,-1.3728,-1.4163,-1.3685,-1.2026,-1.1735,-1.1565,-1.145,-1.1049,-1.2126,-1.4549,-1.5459,-1.7269,-1.9801,-2.0716,-2.0788,-2.0167,-2.0167,-1.9907,-1.9403,-1.9132,-1.8998,-1.8878,-1.8382,-1.8169,-1.8062,-1.7809,-1.7702,-1.7702,0.0,0.0,0.0,0.0,0.0,0.0,0.0,0.0,0.0,0.0,0.0,0.0,0.0,0.0,0.0,0.0,0.0,0.0,0.0,0.0,0.0,0.0,0.0,-0.6573,-0.6803,-0.6973,-0.7915,-0.9651,-0.9776,0.0,-1.2224,-1.3555,-1.4279,-1.457,-1.5738,-1.6496,-1.6797,-1.5494,0.0,0.0,0.0,0.0,0.0,0.0,0.0,0.0,0.0,0.0,0.0,0.0,0.0,-1.4573,-1.6121,-1.7795,-1.9658,-2.2124,0.0,-2.5077,-2.668,-2.7936,-2.8804,-2.8804,-2.8497,-2.7789,-2.6226,-2.4756,-2.302,-2.0521,-1.845,0.0,0.0,0.0,0.0,0.0,0.0,0.0,-1.9875,-1.9279,-1.8153,0.0,-1.8176,0.0,-1.7006,-1.8957,-2.0169,0.0,-1.8288,-1.6974,-1.6099,-1.5637,-1.481,-1.3468,-1.2405,-1.1687,-1.1423,-1.1036,-1.2117,-1.4744,-1.5435,-1.7235,-1.9992,-2.0453,-2.0548,-2.0167,0.0,-1.9786,-1.9345,-1.9052,-1.8851,-1.8691,-1.8169,-1.7916,-1.7822,-1.7649,-1.7582,-1.7582,0.0,0.0,0.0,0.0,0.0,0.0,0.0,0.0,0.0,0.0,0.0,0.0,0.0,0.0,0.0,0.0,0.0,0.0,0.0,0.0,0.0,0.0,-0.5562,-0.5637,-0.58,-0.5786,-0.6353,-0.7565,0.0,0.0,0.0,0.0,0.0,0.0,0.0,0.0,0.0,0.0,0.0,0.0,0.0,0.0,0.0,0.0,0.0,0.0,0.0,0.0,0.0,0.0,-1.6002,-1.7266,-1.8642,-2.0773,-2.306,-2.4796,-2.5705,-2.6493,-2.8163,-2.8818,-2.9032,-2.8991,-2.8243,-2.6987,-2.493,-2.2966,-2.0855,-1.8222,0.0,-1.4956,-1.3354,0.0,-1.5159,-1.5753,0.0,-1.8538,-1.9597,-1.9657,-1.9333,-1.8707,-1.8812,-1.9358,-2.045,-2.0912,-2.1635,-2.2897,-2.0225,-1.8456,-1.8061,-1.6637,-1.5453,-1.467,-1.2963,-1.1807,-1.1234,-1.1089,-1.1916,-1.3643,-1.5115,-1.6912,-1.8884,-1.9804,-2.0167,-2.0214,0.0,0.0,-1.9345,-1.9052,-1.8758,-1.8464,-1.8102,-1.7862,-1.7582,-1.7582,-1.7582,-1.7582,0.0,0.0,0.0,0.0,0.0,0.0,0.0,0.0,0.0,0.0,-0.5352,-0.4728,0.0,0.0,0.0,0.0,0.0,0.0,0.0,0.0,0.0,0.0,-0.5433,-0.5562,-0.5793,-0.5684,-0.5866,0.0,0.0,0.0,0.0,0.0,0.0,0.0,0.0,0.0,0.0,0.0,0.0,0.0,0.0,0.0,0.0,0.0,0.0,0.0,0.0,0.0,0.0,0.0,-1.8203,-2.0222,-2.1674,-2.3107,-2.4556,-2.6079,-2.6774,-2.7268,-2.8323,-2.8818,-2.8978,-2.8738,-2.7642,-2.6079,-2.4022,-2.143,0.0,0.0,0.0,-1.3625,-1.3509,-1.4097,0.0,-1.6937,0.0,0.0,0.0,0.0,-2.2008,0.0,0.0,0.0,0.0,0.0,0.0,0.0,0.0,0.0,-1.7905,-1.761,-1.5929,-1.245,-1.1901,-1.1525,-1.1165,-1.2398,-1.3808,-1.5459,-1.6965,-1.8707,-2.0626,-2.031,-2.0167,-2.0214,0.0,0.0,-1.9345,-1.9052,-1.8758,-1.8464,-1.8102,-1.7862,-1.7582,-1.7582,-1.7582,-1.7582,0.0,0.0,0.0,0.0,0.0,0.0,0.0,-0.7661,-0.709,-0.7051,-0.6075,-0.5298,-0.5098,-0.4836,0.0,0.0,0.0,0.0,0.0,0.0,0.0,0.0,0.0,-0.546,-0.5603,0.0,0.0,0.0,0.0,0.0,0.0,0.0,0.0,0.0,0.0,0.0,0.0,0.0,0.0,0.0,0.0,0.0,0.0,0.0,0.0,0.0,0.0,0.0,0.0,0.0,-1.797,-2.0449,-2.2632,-2.4035,-2.509,-2.6253,-2.6921,-2.7428,-2.8163,-2.8698,-2.8938,-2.8484,-2.7028,-2.501,-2.2325,0.0,0.0,0.0,0.0,-1.3253,-1.3347,0.0,0.0,0.0,0.0,0.0,0.0,0.0,0.0,0.0,0.0,0.0,0.0,0.0,0.0,0.0,0.0,0.0,-2.097,-1.8842,-1.5875,-1.1794,-1.143,-1.1199,-1.105,-1.2626,-1.4265,-1.5913,-1.7222,-1.8889,-2.0855,-2.012,-1.9867,-1.9987,-1.9693,0.0,-1.9345,-1.9052,-1.8838,-1.8664,-1.8169,-1.7902,-1.7809,-1.7649,-1.7582,-1.7582,0.0,0.0,0.0,0.0,0.0,0.0,0.0,-0.8077,-0.7503,-0.7924,-0.682,-0.5908,-0.5624,-0.5257,-0.5026,0.0,0.0,0.0,0.0,0.0,0.0,0.0,0.0,0.0,0.0,0.0,0.0,0.0,0.0,0.0,0.0,0.0,0.0,0.0,0.0,0.0,0.0,0.0,0.0,0.0,0.0,0.0,0.0,0.0,0.0,0.0,0.0,0.0,0.0,0.0,-1.67,-1.8948,-2.159,-2.3487,-2.485,-2.5611,-2.6426,-2.7201,-2.7872,-2.839,-2.8684,-2.803,-2.6213,-2.3808,-2.0748,-1.8303,0.0,0.0,-1.3053,-1.3039,-1.3093,0.0,0.0,0.0,0.0,0.0,0.0,0.0,0.0,0.0,0.0,0.0,0.0,0.0,0.0,0.0,0.0,0.0,-2.2897,-1.9045,-1.5379,-1.2151,-1.1689,-1.1482,-1.1482,-1.3418,-1.507,-1.6496,-1.761,-1.9062,-2.0641,-1.9832,-1.9533,-1.9786,-1.9492,0.0,0.0,-1.9118,-1.8985,-1.8878,-1.8355,-1.8102,-1.7969,-1.7769,-1.7635,-1.7582,0.0,0.0,0.0,0.0,0.0,0.0,0.0,-0.8215,-0.7735,-0.8421,-0.7039,-0.6064,-0.6204,-0.5829,-0.5365,0.0,0.0,0.0,0.0,0.0,0.0,0.0,0.0,0.0,0.0,0.0,0.0,0.0,0.0,0.0,0.0,0.0,0.0,0.0,0.0,0.0,0.0,0.0,0.0,0.0,0.0,0.0,0.0,0.0,0.0,0.0,0.0,0.0,0.0,0.0,0.0,-1.5745,-1.7569,-2.0615,-2.3554,-2.3915,0.0,0.0,-2.7188,-2.7859,-2.8016,-2.7161,-2.4983,-2.2499,-2.0,0.0,0.0,-1.3159,-1.2572,-1.2465,-1.277,-1.2891,-1.3414,0.0,0.0,0.0,0.0,0.0,0.0,0.0,0.0,0.0,0.0,0.0,0.0,0.0,0.0,0.0,0.0,-1.6597,-1.4342,-1.3599,-1.3384,-1.3277,-1.3277,-1.6416,-1.8116,-1.8244,-1.9434,-2.0204,-2.0641,-1.9832,-1.9533,-1.9786,0.0,0.0,0.0,-1.939,-1.9172,-1.8861,-1.8865,-1.8462,-1.7995,-1.7955,-1.7822,-1.7582,0.0,0.0,0.0,0.0,0.0,0.0,-0.9644,-0.876,-0.8279,-0.8951,-0.7833,-0.6786,-0.6338,-0.6136,-0.5739,0.0,0.0,0.0,0.0,0.0,0.0,0.0,0.0,0.0,0.0,0.0,0.0,0.0,0.0,0.0,0.0,0.0,0.0,0.0,0.0,0.0,0.0,0.0,0.0,0.0,0.0,0.0,0.0,0.0,0.0,0.0,0.0,0.0,0.0,0.0,0.0,0.0,-1.466,-1.658,0.0,0.0,-2.2899,-2.4329,-2.5812,-2.664,-2.6961,-2.644,-2.4168,-2.1574,-1.9332,0.0,0.0,-1.2786,-1.2385,-1.2345,-1.2452,-1.2663,-1.2971,0.0,0.0,0.0,0.0,0.0,0.0,0.0,0.0,0.0,0.0,0.0,0.0,0.0,0.0,0.0,0.0,-1.871,-1.6702,-1.5252,-1.5045,-1.4941,-1.4941,-1.7324,-1.8512,-1.85,-1.9694,-2.0294,-2.0388,-1.9693,-1.9484,-1.9533,0.0,0.0,0.0,-1.943,-1.9292,-1.9158,-1.8798,-1.8517,-1.8263,-1.7903,-1.7689,-1.7582,0.0,0.0,0.0,0.0,0.0,-0.9045,-0.9724,-0.9029,-0.8538,-0.8918,-0.802,-0.7034,-0.6308,-0.6108,-0.5815,-0.5243,0.0,0.0,0.0,0.0,0.0,0.0,0.0,0.0,0.0,0.0,0.0,-0.58,0.0,0.0,0.0,0.0,0.0,0.0,0.0,0.0,0.0,0.0,0.0,0.0,0.0,0.0,0.0,0.0,0.0,0.0,0.0,0.0,0.0,0.0,0.0,0.0,0.0,0.0,0.0,0.0,-2.0508,-2.2164,-2.3981,-2.509,-2.5625,-2.5157,-2.3088,-2.0494,0.0,0.0,-1.3881,-1.2572,-1.2305,-1.2305,-1.2305,-1.2478,-1.2677,0.0,0.0,-1.344,0.0,0.0,0.0,0.0,0.0,0.0,0.0,0.0,0.0,0.0,0.0,0.0,0.0,-2.0753,-1.9052,-1.6889,-1.6709,-1.6689,-1.6689,-1.8384,-1.9242,-1.9169,-1.984,-2.0187,-2.0094,-1.9599,-1.943,-1.943,0.0,0.0,0.0,-1.943,-1.943,-1.9377,-1.8811,-1.8571,-1.8424,-1.7916,-1.7662,-1.7582,0.0,0.0,0.0,0.0,0.0,0.0,0.0,-0.8758,-0.8356,-0.823,-0.7346,-0.6542,-0.607,-0.5637,-0.5399,-0.5392,0.0,0.0,0.0,0.0,0.0,0.0,0.0,0.0,0.0,0.0,-0.5542,-0.58,-0.58,-0.6758,0.0,0.0,0.0,0.0,0.0,0.0,0.0,0.0,0.0,0.0,0.0,0.0,0.0,0.0,0.0,0.0,0.0,0.0,0.0,0.0,0.0,0.0,0.0,0.0,0.0,0.0,-1.8183,-2.0508,-2.1697,-2.31,-2.4008,-2.3113,-2.1336,-1.9279,0.0,0.0,-1.336,-1.2492,-1.2305,-1.2305,-1.2305,-1.2305,-1.2398,-1.273,-1.2999,0.0,0.0,0.0,0.0,0.0,0.0,0.0,0.0,0.0,0.0,0.0,0.0,0.0,0.0,-2.171,-2.0631,-1.8524,-1.8448,-1.8448,-1.8448,-2.0195,-2.0962,-2.0681,-2.0374,-2.008,-1.9786,-1.9506,-1.943,0.0,0.0,0.0,0.0,-1.943,-1.943,-1.939,-1.9038,-1.8744,-1.845,-1.8102,-1.7849,-1.7582,0.0,0.0,0.0,0.0,0.0,0.0,0.0,-0.8798,-0.8563,-0.8244,-0.7913,-0.734,-0.6381,-0.6063,-0.5786,-0.5418,0.0,0.0,0.0,0.0,0.0,0.0,0.0,0.0,0.0,0.0,-0.6541,-0.5919,-0.7622,-0.8666,-0.9089,-0.9732,0.0,0.0,0.0,0.0,0.0,0.0,0.0,0.0,0.0,0.0,0.0,0.0,0.0,0.0,0.0,0.0,0.0,0.0,0.0,0.0,0.0,0.0,0.0,-1.3025,0.0,0.0,-1.8918,-1.9786,-2.0227,-1.9947,-1.8624,-1.7061,-1.5805,-1.4271,-1.2878,-1.2181,-1.1837,-1.177,-1.1971,-1.2047,-1.2275,-1.2946,-1.3146,0.0,0.0,0.0,0.0,0.0,0.0,0.0,0.0,0.0,0.0,0.0,0.0,0.0,0.0,0.0,-2.121,-2.0272,-2.0259,-2.0169,-1.9976,-2.0552,-2.0668,-2.0374,-2.008,-1.9893,-1.9786,-1.9506,0.0,0.0,0.0,0.0,0.0,-1.9145,-1.9185,-1.935,-1.8597,-1.8397,-1.8424,-1.7916,-1.7662,-1.7582,0.0,0.0,0.0,0.0,0.0,0.0,0.0,-0.8804,-0.8614,-0.8138,-0.8057,-0.7691,-0.683,-0.636,-0.6037,-0.5793,0.0,0.0,0.0,0.0,0.0,0.0,0.0,0.0,0.0,-0.6363,-0.671,-0.6582,-0.8255,-0.9396,-1.0035,-1.0735,-1.1292,-1.1708,-1.1343,0.0,0.0,0.0,0.0,0.0,0.0,0.0,-1.1102,0.0,0.0,0.0,0.0,0.0,0.0,0.0,0.0,0.0,0.0,0.0,0.0,0.0,-1.2866,-1.4466,0.0,-1.6927,-1.7355,-1.7462,-1.646,0.0,0.0,-1.344,-1.2315,-1.1797,-1.1557,-1.1442,-1.1663,-1.1797,-1.2087,-1.2612,-1.2893,0.0,0.0,0.0,0.0,0.0,0.0,0.0,0.0,0.0,0.0,0.0,0.0,0.0,0.0,0.0,-2.1296,-2.1122,-2.1002,-2.0855,-2.0681,-2.0561,-2.0361,-2.0067,-1.988,-1.9746,-1.9626,-1.9511,0.0,0.0,0.0,0.0,0.0,-1.9172,-1.9132,-1.9132,-1.8477,-1.8263,-1.8277,-1.7903,-1.7689,-1.7595,0.0,0.0,0.0,0.0,0.0,0.0,0.0,0.0,-0.8604,-0.8034,-0.7858,-0.7639,-0.7288,-0.6554,-0.6139,-0.6278,0.0,0.0,0.0,0.0,0.0,0.0,0.0,0.0,-0.5576,-0.5665,-0.6298,-0.7474,-0.8005,-0.9299,-1.1253,-1.1563,-1.1959,-1.2345,-1.1708,-1.1289,-1.0955,-1.0955,-1.0841,-1.0613,-1.0881,-1.0827,0.0,0.0,0.0,0.0,0.0,0.0,0.0,0.0,0.0,0.0,0.0,0.0,0.0,0.0,0.0,0.0,0.0,-1.4456,0.0,0.0,0.0,0.0,0.0,-1.2612,0.0,-1.145,-1.1349,-1.1362,-1.1442,-1.1677,-1.1926,-1.2074,0.0,0.0,0.0,0.0,0.0,0.0,0.0,0.0,0.0,0.0,0.0,0.0,0.0,0.0,0.0,0.0,-2.1109,-2.1109,-2.0802,-2.0641,-2.0641,-2.0374,-2.008,-1.9773,-1.9773,-1.9626,-1.943,-1.943,0.0,0.0,0.0,0.0,0.0,-1.935,-1.9118,-1.8865,-1.8544,-1.8263,-1.7995,-1.7995,-1.7849,-1.7622,0.0,0.0,0.0,0.0,0.0,0.0,0.0,0.0,0.0,0.0,-0.8552,-0.8096,-0.6883,-0.672,-0.6247,0.0,0.0,0.0,0.0,0.0,0.0,0.0,0.0,0.0,-0.5453,-0.629,-0.6955,-0.7351,-0.9663,-1.1204,-1.1916,-1.3193,-1.3526,-1.2973,-1.2371,-1.1557,-1.0693,-1.0693,-1.0653,-1.06,-1.0667,-1.0653,0.0,0.0,0.0,0.0,-1.0667,-1.0881,0.0,0.0,0.0,0.0,0.0,0.0,0.0,0.0,-1.0801,-1.0894,-1.131,0.0,-1.2371,-1.2401,-1.2215,-1.2001,0.0,-1.1557,-1.1182,-1.1102,0.0,-1.1035,-1.1931,-1.1784,-1.2051,0.0,0.0,0.0,0.0,0.0,0.0,0.0,0.0,0.0,0.0,0.0,0.0,0.0,0.0,0.0,0.0,0.0,-2.1109,-2.1109,-2.0601,-2.0334,-2.0334,-2.0267,-1.9973,-1.9466,-1.9466,-1.9439,-1.943,-1.943,0.0,0.0,0.0,0.0,-1.8998,-1.8544,-1.845,-1.8544,-1.8009,-1.7903,-1.7995,-1.7995,-1.7849,-1.7622,0.0,0.0,0.0,0.0,0.0,0.0,0.0,0.0,0.0,0.0,0.0,0.0,0.0,0.0,0.0,0.0,0.0,0.0,0.0,0.0,0.0,0.0,0.0,-0.5719,-0.598,-0.6784,-0.7717,-0.8811,-1.0815,-1.2229,-1.305,-1.4182,-1.4255,-1.332,-1.2308,-1.1396,-1.0586,-1.0586,-1.0586,-1.0586,-1.0586,0.0,0.0,0.0,0.0,0.0,-1.0586,-1.0774,0.0,-1.0995,-1.0995,-1.0995,0.0,0.0,0.0,0.0,-1.0586,-1.0586,-1.0586,-1.0982,-1.1429,-1.1597,-1.153,-1.1429,-1.1597,0.0,0.0,0.0,0.0,0.0,0.0,0.0,0.0,0.0,0.0,0.0,0.0,0.0,0.0,0.0,0.0,0.0,0.0,0.0,0.0,0.0,0.0,0.0,0.0,0.0,-2.0842,-2.0708,-2.0401,-2.0167,-2.0167,-1.9973,-1.9679,-1.943,-1.943,-1.943,-1.9359,-1.9225,0.0,0.0,0.0,0.0,-1.8704,-1.8384,-1.8263,-1.825,-1.7929,-1.7809,-1.7849,-1.7942,-1.7849,-1.7622,0.0,0.0,0.0,0.0,0.0,0.0,0.0,0.0,0.0,0.0,0.0,0.0,0.0,0.0,0.0,0.0,0.0,0.0,0.0,0.0,0.0,0.0,0.0,-0.595,-0.6805,-0.7259,-0.8537,-1.0659,-1.168,-1.2829,-1.4095,-1.4776,-1.4549,-1.348,-1.2081,-1.1142,-1.0586,-1.0586,-1.0586,-1.0586,-1.0586,0.0,0.0,0.0,0.0,0.0,0.0,0.0,0.0,-1.0929,-1.0929,-1.0929,-1.0929,0.0,0.0,0.0,0.0,0.0,-1.064,-1.1089,-1.157,-1.1685,-1.1583,-1.1543,-1.1739,0.0,0.0,0.0,0.0,0.0,0.0,0.0,0.0,0.0,0.0,0.0,0.0,0.0,0.0,0.0,0.0,0.0,0.0,0.0,0.0,0.0,0.0,0.0,0.0,0.0,0.0,-2.0241,-2.0187,-2.0174,-2.0174,-1.9679,-1.947,-1.943,-1.943,-1.943,-1.9417,-1.9065,-1.8918,0.0,0.0,0.0,-1.8424,-1.837,-1.821,-1.7916,-1.7916,-1.7809,-1.7622,-1.7876,-1.7849,-1.7622,0.0,0.0,0.0,0.0,0.0,0.0,0.0,0.0,0.0,0.0,0.0,0.0,0.0,0.0,0.0,0.0,0.0,0.0,0.0,0.0,0.0,-0.5392,-0.5419,-0.6045,-0.7338,-0.7922,-0.9125,-1.0934,-1.2528,-1.3583,-1.4108,-1.519,-1.483,-1.324,-1.2238,-1.1377,-1.0586,-1.0586,-1.0586,-1.0586,-1.0586,0.0,0.0,0.0,0.0,0.0,0.0,0.0,0.0,-1.0653,-1.0653,-1.0653,-1.0653,0.0,0.0,0.0,0.0,0.0,-1.0894,-1.153,-1.1944,-1.1028,-1.1323,-1.1712,-1.1236,0.0,0.0,0.0,0.0,0.0,0.0,0.0,0.0,0.0,0.0,0.0,0.0,0.0,0.0,0.0,0.0,0.0,0.0,0.0,0.0,0.0,0.0,0.0,0.0,0.0,0.0,-2.0167,-2.0,-1.9867,-1.9867,-1.9773,-1.9613,-1.943,-1.943,-1.943,-1.9417,-1.9065,-1.8918,0.0,0.0,-1.8062,-1.8035,-1.7836,-1.7689,-1.7649,-1.7649,-1.7622,-1.7622,-1.7876,-1.7849,-1.7595,0.0,0.0,0.0,0.0,0.0,0.0,0.0,0.0,0.0,0.0,0.0,0.0,0.0,0.0,0.0,0.0,0.0,0.0,0.0,0.0,0.0,-0.5425,-0.6431,-0.7331,-0.796,-0.873,-1.0132,-1.2209,-1.3633,-1.4509,-1.479,-1.4652,-1.3919,-1.2679,-1.1784,-1.1122,-1.0586,-1.0586,-1.0586,-1.0586,0.0,0.0,0.0,0.0,0.0,0.0,0.0,0.0,0.0,0.0,-1.0586,-1.0586,-1.0586,0.0,0.0,0.0,0.0,0.0,-1.076,-1.1289,-1.1663,-1.0969,-1.1739,-1.2438,-1.1837,-1.1797,0.0,0.0,0.0,0.0,0.0,0.0,0.0,0.0,0.0,0.0,0.0,0.0,0.0,0.0,0.0,0.0,0.0,0.0,0.0,0.0,0.0,0.0,0.0,0.0,0.0,0.0,-1.9546,-1.9492,-1.9332,-1.9479,-1.9506,-1.943,-1.943,-1.943,-1.9359,-1.8891,-1.8691,-1.8651,0.0,-1.7796,-1.7782,-1.7649,-1.7582,-1.7582,-1.7582,-1.7582,-1.7595,-1.7742,-1.7702,-1.7582,0.0,0.0,0.0,0.0,0.0,0.0,0.0,0.0,0.0,0.0,0.0,0.0,0.0,0.0,0.0,0.0,0.0,0.0,0.0,0.0,-0.64,-0.5716,-0.7365,-0.8446,-0.8686,-0.9621,-1.1209,-1.3414,-1.4499,-1.5129,-1.5271,-1.4119,-1.312,-1.2265,-1.145,-1.0902,-1.0586,-1.0586,-1.0586,-1.0586,0.0,0.0,0.0,0.0,0.0,0.0,0.0,0.0,0.0,0.0,0.0,0.0,0.0,0.0,0.0,-1.0586,-1.0586,-1.06,-1.068,-1.1035,-1.1322,-1.1062,0.0,-1.2826,-1.2572,-1.2518,0.0,0.0,0.0,0.0,0.0,0.0,0.0,0.0,0.0,0.0,0.0,0.0,0.0,0.0,0.0,0.0,0.0,0.0,0.0,0.0,0.0,0.0,0.0,0.0,0.0,0.0,-1.9052,-1.9052,-1.8824,-1.9118,-1.9292,-1.943,-1.943,-1.939,-1.9252,-1.8731,-1.845,-1.8357,-1.7822,-1.7582,-1.7582,-1.7582,-1.7582,-1.7582,-1.7582,-1.7582,-1.7582,-1.7582,-1.7582,-1.7582,0.0,0.0,0.0,0.0,0.0,0.0,0.0,0.0,0.0,0.0,0.0,0.0,0.0,0.0,0.0,0.0,0.0,0.0,0.0,0.0,-0.6687,-0.6621,-0.7521,-0.8531,-0.9601,-1.0766,-1.2263,-1.4028,-1.47,-1.5022,-1.5022,-1.4068,-1.312,-1.2278,-1.1663,-1.1089,-1.0586,-1.0586,-1.0586,-1.0586,-1.0586,0.0,0.0,0.0,0.0,0.0,0.0,0.0,0.0,0.0,0.0,0.0,0.0,0.0,-1.0586,-1.0586,-1.0586,-1.0653,-1.0889,-1.1182,-1.1322,-1.1062,-1.1511,-1.2171,-1.2959,-1.3146,0.0,-1.462,0.0,0.0,0.0,0.0,0.0,0.0,0.0,0.0,0.0,0.0,0.0,0.0,0.0,0.0,0.0,0.0,0.0,0.0,0.0,0.0,0.0,0.0,0.0,0.0,0.0,-1.8544,-1.8517,-1.8811,-1.9092,-1.943,-1.943,-1.9225,-1.8945,-1.8637,-1.8343,-1.8009,-1.7729,-1.7582,-1.7582,-1.7582,-1.7582,-1.7582,-1.7582,-1.7582,-1.7582,-1.7582,-1.7582,-1.7582,0.0,0.0,0.0,0.0,0.0,0.0,0.0,0.0,0.0,0.0,0.0,0.0,0.0,0.0,0.0,0.0,0.0,0.0,0.0,-0.6685,-0.7274,-0.6719,-0.8745,-0.9884,-0.9944,-1.0761,-1.1964,-1.3547,-1.4135,-1.4322,-1.4122,-1.3414,-1.2744,-1.2011,-1.1423,-1.1035,-1.0854,-1.0667,-1.0693,-1.0841,-1.0667,-1.0586,0.0,0.0,0.0,0.0,0.0,0.0,0.0,0.0,-1.0466,-1.0314,0.0,-1.0586,-1.0586,-1.0586,-1.0586,-1.0613,-1.072,-1.1062,-1.1322,-1.1062,-1.1436,0.0,0.0,-1.3494,-1.4255,-1.507,-1.5578,0.0,0.0,0.0,0.0,0.0,0.0,0.0,0.0,0.0,0.0,0.0,0.0,0.0,0.0,0.0,0.0,0.0,0.0,0.0,0.0,0.0,0.0,0.0,0.0,-1.8397,-1.8223,-1.8504,-1.8718,-1.8824,-1.9199,-1.9212,-1.8918,-1.8624,-1.833,-1.7969,-1.7716,-1.7582,-1.7582,-1.7582,-1.7582,-1.7582,-1.7582,-1.7582,-1.7582,-1.7582,-1.7582,-1.7582,0.0,0.0,0.0,0.0,0.0,0.0,0.0,0.0,0.0,0.0,0.0,0.0,0.0,0.0,0.0,0.0,0.0,0.0,-0.5774,-0.7177,-0.7859,-0.7535,-0.9693,-1.0718,-1.0393,-1.0785,-1.1675,-1.3066,-1.3507,-1.3507,-1.3174,-1.2799,-1.2382,-1.1886,-1.1356,-1.1129,-1.1102,-1.076,-1.0707,-1.0868,-1.0667,-1.0586,0.0,0.0,0.0,0.0,0.0,0.0,0.0,0.0,-1.0207,0.0,0.0,0.0,0.0,-1.0586,-1.0519,-1.0452,-1.0452,-1.0715,-1.0982,-1.0889,0.0,0.0,-1.3012,-1.3868,-1.4816,-1.5872,-1.642,0.0,0.0,0.0,0.0,0.0,0.0,0.0,0.0,0.0,0.0,0.0,0.0,0.0,0.0,0.0,0.0,0.0,0.0,0.0,0.0,0.0,0.0,0.0,0.0,0.0,-1.7903,-1.8196,-1.8343,-1.8357,-1.8851,-1.8931,-1.8582,-1.8437,-1.8183,-1.7836,-1.7675,-1.7582,-1.7582,-1.7582,-1.7582,-1.7582,-1.7582,-1.7528,-1.7462,-1.7555,-1.7462,-1.7328,0.0,0.0,0.0,0.0,0.0,0.0,0.0,0.0,0.0,0.0,0.0,0.0,0.0,0.0,0.0,0.0,0.0,0.0,-0.6654,-0.7502,-0.8388,-0.9268,-1.0142,-1.072,-1.0982,-1.0995,-1.1591,-1.277,-1.277,-1.2623,-1.2305,-1.2305,-1.2144,-1.1886,-1.1557,-1.1389,-1.1349,-1.0841,-1.0586,-1.06,-1.06,-1.06,-1.0559,0.0,0.0,0.0,0.0,0.0,0.0,0.0,-0.9873,-1.0083,0.0,0.0,0.0,-1.0586,-1.0354,-1.0083,-1.0083,-1.0127,-1.0194,0.0,0.0,0.0,-1.3761,-1.4322,-1.511,-1.7154,0.0,0.0,0.0,0.0,0.0,0.0,0.0,0.0,0.0,0.0,0.0,0.0,0.0,0.0,0.0,0.0,0.0,0.0,0.0,0.0,0.0,0.0,0.0,0.0,0.0,0.0,-1.7569,-1.7876,-1.7982,-1.7995,-1.8343,-1.833,-1.7995,-1.7995,-1.7876,-1.7582,-1.7582,-1.7582,-1.7582,-1.7582,-1.7582,-1.7582,-1.7582,-1.746,-1.7233,-1.7527,-1.7208,-1.6794,0.0,0.0,0.0,0.0,0.0,0.0,0.0,0.0,0.0,0.0,0.0,0.0,0.0,0.0,0.0,0.0,0.0,0.0,-0.6309,-0.7157,-0.8038,-0.8912,-0.9772,-1.0381,-1.072,-1.072,-1.1095,-1.1824,-1.1824,-1.1877,-1.1997,-1.2211,-1.2037,-1.1557,-1.169,-1.1516,-1.1102,-1.0747,-1.0707,-1.0894,-1.0894,-1.0774,-1.0586,0.0,0.0,0.0,0.0,0.0,0.0,0.0,0.0,0.0,0.0,0.0,0.0,-1.0533,-1.0354,-1.0167,-1.0399,-1.0581,0.0,-1.139,0.0,0.0,0.0,-1.4923,0.0,0.0,0.0,0.0,0.0,0.0,0.0,0.0,0.0,0.0,0.0,0.0,0.0,0.0,0.0,0.0,0.0,0.0,0.0,0.0,0.0,0.0,0.0,0.0,0.0,0.0,0.0,0.0,-1.6967,-1.7261,-1.7422,-1.7422,-1.6678,-1.6921,-1.7995,-1.7995,-1.7876,-1.7582,-1.7582,-1.7582,-1.7582,-1.7582,-1.7582,-1.7582,-1.7582,-1.746,-1.7206,-1.73,-1.7034,-1.6727,0.0,0.0,0.0,0.0,0.0,0.0,0.0,0.0,0.0,0.0,0.0,0.0,0.0,0.0,0.0,0.0,0.0,0.0,0.0,-0.7216,-0.808,-0.8959,-0.9842,-1.0381,-1.0586,-1.0586,-1.076,-1.1089,-1.1089,-1.1203,-1.1404,-1.1997,-1.2051,-1.161,-1.1904,-1.1819,-1.1303,-1.0814,-1.0693,-1.0868,-1.0942,-1.0854,-1.0586,0.0,0.0,0.0,0.0,0.0,0.0,0.0,0.0,0.0,0.0,0.0,0.0,-1.0224,-1.0007,-0.9804,-1.0157,-1.0546,0.0,-1.1725,0.0,0.0,0.0,0.0,0.0,0.0,0.0,0.0,0.0,0.0,0.0,0.0,0.0,0.0,0.0,0.0,0.0,0.0,0.0,0.0,0.0,0.0,0.0,0.0,0.0,0.0,0.0,0.0,0.0,0.0,0.0,0.0,-1.67,-1.6418,-1.6241,-1.6241,-1.4983,-1.4937,-1.596,-1.6004,-1.6283,-1.6764,-1.7239,-1.7475,-1.7569,-1.7514,-1.7475,-1.7569,-1.7462,-1.7286,-1.7018,-1.7018,-1.6714,-1.6393,0.0,0.0,0.0,0.0,0.0,0.0,0.0,0.0,0.0,0.0,0.0,0.0,0.0,0.0,0.0,0.0,0.0,0.0,0.0,0.0,-0.8334,-0.9201,-1.0129,-1.0586,-1.0586,-1.0586,-1.0586,-1.0586,-1.0586,-1.0586,-1.0613,-1.173,-1.2078,-1.1806,-1.2104,-1.2064,-1.1739,-1.0935,-1.0586,-1.0613,-1.0875,-1.0854,-1.0559,-1.0287,0.0,0.0,0.0,0.0,0.0,0.0,0.0,0.0,0.0,-0.9886,-1.0033,-0.9793,-0.9499,-0.9284,-0.9673,0.0,0.0,0.0,0.0,0.0,0.0,0.0,0.0,0.0,0.0,0.0,0.0,0.0,0.0,0.0,0.0,0.0,0.0,0.0,0.0,0.0,0.0,0.0,0.0,0.0,0.0,0.0,0.0,0.0,0.0,0.0,0.0,0.0,0.0,0.0,-1.662,-1.5519,-1.4865,0.0,-1.3416,-1.271,-1.2617,-1.2862,-1.3846,-1.5382,-1.6536,-1.7223,-1.7515,-1.7313,-1.7353,-1.7515,-1.73,-1.7005,-1.666,-1.666,-1.6313,-1.5864,0.0,0.0,0.0,0.0,0.0,0.0,0.0,0.0,0.0,0.0,0.0,0.0,0.0,0.0,0.0,0.0,0.0,0.0,0.0,0.0,-0.7787,-0.8877,-0.9982,-1.0586,-1.0586,-1.0586,-1.0586,-1.0586,-1.0586,-1.0586,-1.0613,-1.1564,-1.1591,-1.0908,-1.1658,-1.1578,-1.0868,-1.0667,-1.0586,-1.0613,-1.0875,-1.0854,-1.0613,-1.0742,-1.0381,0.0,0.0,0.0,0.0,0.0,0.0,0.0,-0.9953,-0.9913,-0.9806,-0.998,-0.9617,-0.9377,0.0,-1.0492,0.0,0.0,0.0,0.0,0.0,0.0,0.0,0.0,0.0,0.0,0.0,0.0,0.0,0.0,0.0,0.0,0.0,0.0,0.0,0.0,0.0,0.0,0.0,0.0,0.0,0.0,0.0,0.0,0.0,0.0,0.0,0.0,0.0,-1.5971,-1.5971,-1.5989,-1.5455,0.0,-1.3228,-1.2135,-1.1216,-1.2339,-1.3626,-1.4966,-1.5212,-1.6075,-1.7286,-1.7233,-1.7233,-1.7286,-1.7233,-1.6884,-1.6366,-1.6366,-1.6139,-1.5798,0.0,0.0,0.0,0.0,0.0,0.0,0.0,0.0,0.0,0.0,0.0,0.0,0.0,0.0,0.0,0.0,0.0,0.0,0.0,0.0,-0.8074,-0.9606,-1.0241,-1.0586,-1.0586,-1.0586,-1.0586,-1.0586,-1.0586,-1.0667,-1.0814,-1.1663,-1.1873,-1.1444,-1.1913,-1.1779,-1.1189,-1.0774,-1.0586,-1.0613,-1.0875,-1.0854,-1.0613,-1.076,-1.0421,-0.9846,-0.9566,0.0,0.0,0.0,0.0,0.0,0.0,0.0,-0.9713,-0.986,-0.9686,-0.9552,0.0,0.0,0.0,0.0,0.0,0.0,0.0,0.0,0.0,0.0,0.0,0.0,0.0,0.0,0.0,0.0,0.0,0.0,0.0,0.0,0.0,0.0,0.0,0.0,0.0,0.0,0.0,0.0,0.0,0.0,0.0,0.0,0.0,0.0,-1.5784,-1.5784,-1.5784,-1.539,-1.4473,-1.3144,-1.1924,-1.0685,-0.9486,-1.1075,-1.2128,-1.2739,-1.3355,-1.4562,-1.6037,-1.5897,-1.6289,-1.6978,-1.6831,-1.6589,-1.6308,-1.6112,-1.5965,-1.5784,0.0,0.0,0.0,0.0,0.0,0.0,0.0,0.0,0.0,0.0,0.0,0.0,0.0,0.0,0.0,0.0,0.0,0.0,0.0,0.0,0.0,-1.021,-1.0496,-1.0586,-1.0586,-1.0586,-1.0586,-1.0586,-1.0586,-1.0814,-1.1236,-1.1904,-1.2225,-1.2225,-1.2225,-1.2037,-1.1698,-1.0921,-1.0586,-1.0613,-1.0854,-1.0801,-1.0586,-1.0586,-1.0381,-1.0017,-0.9537,-0.9364,-0.9364,-0.9364,0.0,0.0,0.0,0.0,-0.9715,-0.9715,-0.9635,-0.9552,0.0,0.0,0.0,0.0,0.0,0.0,0.0,0.0,0.0,0.0,0.0,0.0,0.0,0.0,0.0,0.0,0.0,0.0,0.0,0.0,0.0,0.0,0.0,0.0,0.0,0.0,0.0,0.0,0.0,0.0,0.0,0.0,-1.5685,-1.5685,-1.5725,-1.561,-1.5408,-1.4387,-1.3102,-1.156,-1.0288,-0.9065,-0.8045,-0.9552,-1.0263,-1.0423,-1.1725,-1.3247,-1.4717,-1.4652,-1.5443,-1.6607,-1.6366,-1.6246,-1.6166,-1.5925,-1.5784,-1.5784,0.0,0.0,0.0,0.0,0.0,0.0,0.0,0.0,0.0,0.0,0.0,0.0,0.0,0.0,0.0,0.0,0.0,0.0,-0.7908,0.0,0.0,-0.9039,-1.0032,-1.0586,-1.0586,-1.0586,-1.0586,-1.0586,-1.0586,-1.1136,-1.2118,-1.2033,-1.1966,-1.1966,-1.1966,-1.1623,-1.1089,-1.0747,-1.0586,-1.06,-1.064,-1.0626,-1.0586,-1.0586,-1.0381,-1.007,-1.0003,-0.9963,-0.9963,-0.9963,-1.0167,0.0,0.0,0.0,-0.9715,-0.9715,-0.9325,-0.9031,0.0,0.0,0.0,0.0,0.0,0.0,0.0,0.0,0.0,0.0,0.0,0.0,0.0,0.0,0.0,0.0,0.0,0.0,0.0,0.0,0.0,0.0,0.0,0.0,0.0,0.0,0.0,0.0,0.0,0.0,0.0,-1.5129,-1.5129,-1.5129,-1.5324,-1.4875,-1.3731,-1.3862,-1.2668,-1.0239,-0.8924,-0.8187,-0.7988,-0.8229,-0.8977,-1.0134,-1.1404,-1.2899,-1.4455,-1.5575,-1.6139,-1.6326,-1.6286,-1.6112,-1.5838,-1.5798,-1.5784,-1.5784,0.0,0.0,0.0,0.0,0.0,0.0,0.0,0.0,0.0,0.0,0.0,0.0,0.0,0.0,0.0,-0.8629,-0.8117,-0.7897,-0.8099,-0.8993,-0.9528,-0.951,-1.005,-1.0425,-1.0586,-1.0586,-1.0586,-1.0586,-1.0586,0.0,0.0,-1.2301,-1.2757,-1.332,-1.2679,-1.2261,-1.1953,-1.1002,-1.0586,-1.0586,-1.0586,-1.0492,-1.0314,-1.0314,-1.002,-0.9617,-0.982,-0.9766,-0.9617,-0.982,-0.9967,-1.0131,-1.0261,0.0,0.0,0.0,-0.974,0.0,-0.9659,0.0,0.0,0.0,0.0,0.0,0.0,0.0,0.0,0.0,0.0,0.0,0.0,0.0,0.0,0.0,0.0,0.0,0.0,0.0,0.0,0.0,0.0,0.0,0.0,0.0,0.0,0.0,0.0,0.0,-1.5008,-1.5008,-1.4694,-1.3993,-1.4105,-1.3561,-1.2341,-1.2497,-1.1674,-0.989,-0.8537,-0.7907,-0.7988,-0.7988,-0.8336,-0.8973,-1.0288,-1.1658,-1.3062,-1.4388,-1.4933,-1.503,-1.573,-1.5495,-1.4758,-1.4758,-1.4758,-1.4758,0.0,0.0,0.0,0.0,0.0,0.0,0.0,0.0,0.0,0.0,0.0,0.0,0.0,0.0,0.0,0.0,-0.8339,-0.8024,-0.8109,-0.9176,-0.9798,-0.9767,-1.0058,-1.0327,-1.0586,-1.0586,-1.0586,-1.0586,0.0,0.0,-1.1913,-1.2355,-1.3199,0.0,-1.3467,-1.2891,0.0,0.0,0.0,-1.0693,-1.0533,-1.0314,-1.0083,-1.0083,-0.9817,-0.9471,-0.9793,-0.9766,-0.9564,-0.974,-0.9846,-0.9943,-0.998,-1.0007,0.0,0.0,0.0,0.0,0.0,0.0,0.0,0.0,0.0,0.0,0.0,0.0,0.0,0.0,0.0,0.0,0.0,0.0,0.0,0.0,0.0,0.0,0.0,0.0,0.0,0.0,0.0,0.0,0.0,0.0,0.0,0.0,0.0,0.0,-1.478,-1.478,-1.4236,-1.301,-1.3025,-1.2383,-1.0908,-1.0646,-1.0063,-0.9227,-0.8268,-0.7868,-0.7934,-0.7975,-0.7988,-0.8088,-0.941,-1.0534,-1.1512,-1.2861,-1.3392,-1.3488,-1.4424,-1.422,-1.3392,-1.3392,-1.3584,-1.392,0.0,0.0,0.0,0.0,0.0,0.0,0.0,0.0,0.0,0.0,0.0,0.0,-0.8804,-0.8804,-0.8898,-0.9164,-0.8911,-0.8509,-0.7958,-0.9284,-0.9723,-0.8918,-0.9963,0.0,-1.0586,-1.0586,-1.0586,0.0,0.0,0.0,-1.1899,-1.194,-1.2545,-1.3653,-1.3921,-1.308,-1.1503,0.0,0.0,0.0,0.0,0.0,-1.0083,-1.0083,-1.007,0.0,0.0,-1.0533,-1.0479,-1.018,-1.0274,-1.0452,-0.9903,-0.9729,-0.9646,0.0,0.0,0.0,0.0,0.0,0.0,0.0,0.0,0.0,0.0,0.0,0.0,0.0,0.0,0.0,0.0,0.0,0.0,0.0,0.0,0.0,0.0,0.0,0.0,0.0,0.0,0.0,0.0,0.0,0.0,0.0,0.0,0.0,-1.4135,-1.4135,-1.36,-1.2369,-1.2647,-1.1661,-0.9255,-0.8258,-0.7785,-0.7705,-0.7794,-0.7814,-0.7828,-0.7921,-0.7988,-0.8088,-0.941,-1.0051,-1.019,-1.1463,-1.1999,-1.1999,-1.2096,-1.2047,-1.1999,-1.1999,-1.2813,-1.392,0.0,0.0,0.0,0.0,0.0,0.0,0.0,0.0,0.0,0.0,0.0,0.0,0.0,-0.8898,-0.8898,-0.9191,-0.8951,-0.8712,-0.8481,-0.8959,-0.9015,-0.8433,-0.9449,-0.9862,-0.9581,-1.0241,-1.0586,0.0,0.0,-1.0854,-1.1316,-1.1725,-1.1891,-1.1957,-1.2452,-1.2412,-1.1944,-1.1337,0.0,0.0,0.0,0.0,0.0,0.0,0.0,0.0,0.0,0.0,0.0,-1.0087,-1.018,-1.0207,-0.9836,-0.9715,-0.9619,-0.9297,-0.9138,0.0,0.0,0.0,0.0,0.0,0.0,0.0,0.0,0.0,0.0,0.0,0.0,0.0,0.0,0.0,0.0,0.0,0.0,0.0,0.0,0.0,0.0,0.0,0.0,0.0,0.0,0.0,0.0,0.0,0.0,0.0,-1.2559,-1.2046,-1.1129,-0.9849,-1.0054,-0.9343,-0.7575,-0.7354,-0.726,-0.726,-0.7455,-0.7584,-0.7678,-0.7733,-0.776,-0.776,-0.8333,-0.9112,-1.0092,-1.1365,-1.1414,-1.0779,-1.156,-1.1414,-1.0779,-1.1609,-1.2183,-1.2716,0.0,0.0,0.0,0.0,0.0,0.0,0.0,0.0,0.0,-0.8804,0.0,0.0,0.0,0.0,-0.8898,-0.9191,-0.9124,-0.8949,-0.8629,-0.8714,-0.8546,-0.7909,-0.8681,-0.9108,-0.9091,-0.9687,0.0,0.0,0.0,0.0,0.0,-1.1283,-1.131,-1.1009,-1.1337,-1.1578,0.0,0.0,0.0,-1.0559,0.0,0.0,-0.9983,0.0,0.0,0.0,0.0,0.0,0.0,0.0,0.0,-1.0017,-0.9659,-0.9472,-0.9352,-0.9124,0.0,0.0,-0.8858,0.0,0.0,0.0,0.0,0.0,0.0,0.0,0.0,0.0,0.0,0.0,0.0,0.0,0.0,0.0,0.0,0.0,0.0,0.0,0.0,0.0,0.0,0.0,0.0,0.0,0.0,0.0,0.0,0.0,-1.2194,-1.1653,-1.0593,-0.8973,-0.8321,-0.7586,-0.6702,-0.6892,-0.6977,-0.7024,-0.7224,-0.7373,-0.7522,-0.7577,-0.7597,-0.7604,-0.7699,-0.8304,-0.9323,-1.0213,-1.0092,-0.941,-1.0239,-1.0092,-0.941,-1.0288,-1.0877,-1.1414,0.0,0.0,0.0,0.0,0.0,0.0,0.0,0.0,-0.8804,-0.8804,0.0,0.0,0.0,0.0,0.0,-0.9204,-0.9455,-0.9208,-0.8281,-0.8545,-0.8304,-0.7329,-0.7745,-0.8377,-0.9224,0.0,0.0,0.0,0.0,0.0,0.0,0.0,-1.0747,-1.0969,-1.072,-1.0586,-1.064,0.0,-1.1377,-1.0546,0.0,-1.0064,-1.0573,0.0,0.0,0.0,-1.1276,-1.1209,0.0,0.0,0.0,0.0,0.0,0.0,0.0,0.0,0.0,0.0,0.0,0.0,0.0,0.0,0.0,0.0,0.0,0.0,0.0,0.0,0.0,0.0,0.0,0.0,0.0,0.0,0.0,0.0,0.0,0.0,0.0,0.0,0.0,0.0,0.0,0.0,0.0,0.0,0.0,-1.3147,-1.3147,-1.3055,-1.2037,-0.9928,-0.7786,-0.6695,-0.6688,-0.6695,-0.677,-0.6876,-0.7018,-0.721,-0.7405,-0.7509,-0.7584,-0.7584,-0.759,-0.7672,-0.7807,-0.7914,-0.7982,-0.7982,-0.7982,-0.7988,-0.7988,-0.8038,-0.8874,-1.0002,0.0,0.0,0.0,0.0,0.0,0.0,0.0,-0.8804,-0.8804,0.0,0.0,0.0,-0.9071,-0.8727,-0.8792,-0.9495,-0.8504,-0.7977,-0.8317,-0.7855,-0.748,-0.7319,-0.7501,-0.7808,-0.8121,0.0,0.0,0.0,0.0,0.0,0.0,0.0,0.0,0.0,-1.0626,-1.0479,-1.0274,-1.076,0.0,0.0,-1.0154,-1.0087,0.0,0.0,0.0,0.0,0.0,-1.039,-1.0341,0.0,-1.0083,-0.999,0.0,0.0,0.0,0.0,0.0,0.0,-0.8871,0.0,0.0,0.0,0.0,0.0,0.0,0.0,0.0,0.0,0.0,0.0,0.0,0.0,0.0,0.0,0.0,0.0,0.0,0.0,0.0,0.0,0.0,0.0,0.0,0.0,0.0,0.0,-1.1891,-1.1462,-1.1462,-1.0089,-0.9047,-0.8555,-0.7251,-0.6525,-0.6422,-0.6593,-0.6668,-0.66,-0.6749,-0.6905,-0.7054,-0.7095,-0.7125,-0.7227,-0.7387,-0.7455,-0.7502,-0.7658,-0.778,-0.7875,-0.7875,-0.7894,-0.8137,-0.9072,-0.9706,-1.0149,0.0,0.0,0.0,0.0,0.0,0.0,0.0,-0.8911,-0.8911,0.0,0.0,0.0,-0.9178,-0.8829,-0.8753,-0.9284,-0.8539,-0.7879,-0.7582,-0.7522,-0.7317,-0.6955,-0.6746,-0.7162,-0.8332,0.0,0.0,0.0,0.0,0.0,0.0,0.0,0.0,0.0,0.0,0.0,0.0,0.0,0.0,0.0,-1.006,0.0,0.0,-1.0198,-1.0194,0.0,0.0,0.0,-1.0621,-1.0381,-1.0221,0.0,0.0,0.0,0.0,0.0,0.0,0.0,0.0,0.0,0.0,0.0,0.0,0.0,0.0,-0.8804,0.0,0.0,0.0,0.0,0.0,0.0,0.0,0.0,0.0,0.0,0.0,0.0,0.0,0.0,0.0,0.0,0.0,0.0,0.0,0.0,-1.1227,-1.0924,-1.0655,-0.8739,-0.7744,-0.793,-0.6861,-0.6281,-0.63,-0.647,-0.6545,-0.6511,-0.6559,-0.6681,-0.6831,-0.6831,-0.6869,-0.7011,-0.7149,-0.7224,-0.7285,-0.7373,-0.7529,-0.7726,-0.7787,-0.7868,-0.7999,-0.8844,-0.9164,-0.9262,0.0,0.0,0.0,0.0,0.0,0.0,0.0,-0.9018,-0.9098,0.0,-0.8818,-0.8843,-0.9131,-0.8765,-0.855,-0.8707,-0.8811,-0.8206,-0.6678,-0.7365,-0.7523,-0.6773,-0.6059,-0.6826,-0.9236,-0.8248,0.0,0.0,0.0,0.0,0.0,0.0,0.0,0.0,0.0,0.0,0.0,0.0,0.0,-1.01,-0.9833,-1.0194,0.0,0.0,-1.0808,0.0,-1.1216,-1.1242,-1.1249,-1.076,-1.0399,0.0,0.0,0.0,0.0,0.0,-0.8977,0.0,0.0,0.0,0.0,0.0,0.0,0.0,-0.8818,-0.8831,-0.8818,0.0,0.0,0.0,0.0,0.0,0.0,0.0,0.0,0.0,0.0,0.0,0.0,0.0,0.0,0.0,0.0,0.0,-1.0767,-1.0184,-1.0754,-1.0858,-1.0241,-0.85,-0.7558,-0.7749,-0.6633,-0.6112,-0.6272,-0.6293,-0.6361,-0.6491,-0.6491,-0.6525,-0.6675,-0.6675,-0.6756,-0.6862,-0.6876,-0.6957,-0.7071,-0.7092,-0.7312,-0.759,-0.7712,-0.778,-0.7828,-0.7914,-0.7975,-0.7988,-0.8804,0.0,0.0,0.0,0.0,0.0,0.0,0.0,-0.9045,-0.9459,-0.8915,-0.8568,-0.8831,-0.7562,-0.7097,-0.8068,-0.693,-0.6588,-0.7606,-0.7223,-0.7483,-0.8676,-0.7947,-0.8064,-0.9268,-0.9061,-0.9157,0.0,0.0,0.0,0.0,0.0,0.0,0.0,0.0,0.0,0.0,0.0,0.0,-1.0114,-1.006,0.0,-1.0261,-0.9967,-1.0074,-1.0341,-1.0114,-1.0327,-1.0747,0.0,-1.0399,-1.007,0.0,0.0,0.0,0.0,0.0,0.0,0.0,0.0,0.0,0.0,0.0,0.0,-0.8911,-0.8964,-0.8894,0.0,0.0,0.0,0.0,0.0,0.0,0.0,0.0,0.0,0.0,0.0,0.0,0.0,0.0,0.0,0.0,0.0,-0.8655,-0.8624,-0.9059,-0.9265,-0.9133,-0.8097,-0.7477,-0.7394,-0.6656,-0.6173,-0.6078,-0.6238,-0.6313,-0.634,-0.634,-0.6416,-0.6559,-0.6559,-0.66,-0.6749,-0.6836,-0.6903,-0.6937,-0.7051,-0.7251,-0.7467,-0.7448,-0.7604,-0.7814,-0.7841,-0.7887,-0.7988,-0.8804,0.0,0.0,0.0,0.0,0.0,0.0,0.0,-0.9512,-0.9659,-0.8991,-0.8575,-0.876,-0.7312,-0.6926,-0.8495,-0.7447,-0.7055,-0.7934,-0.7989,-0.8388,-0.9268,-0.8452,-0.8613,-0.9919,-0.9524,-0.93,0.0,0.0,0.0,0.0,0.0,0.0,0.0,0.0,0.0,0.0,0.0,-1.0506,-1.0314,-1.002,0.0,-1.0087,-0.9793,-0.986,-1.0083,-1.0157,-1.0345,-1.055,-1.0232,-1.0219,0.0,0.0,-0.8807,-0.8768,0.0,-0.8352,-0.8551,0.0,0.0,0.0,-0.9071,0.0,0.0,0.0,-0.8991,-0.8883,0.0,0.0,0.0,0.0,0.0,0.0,0.0,0.0,0.0,0.0,0.0,0.0,0.0,0.0,0.0,0.0,0.0,-0.7808,-0.7954,-0.7496,-0.739,-0.7831,-0.7028,-0.6551,-0.6544,-0.6172,-0.5962,-0.5993,-0.6105,-0.6186,-0.63,-0.63,-0.6334,-0.6409,-0.6409,-0.6484,-0.6593,-0.6749,-0.6858,-0.6896,-0.7038,-0.7139,-0.7265,-0.7339,-0.7461,-0.7604,-0.7678,-0.7753,-0.7821,-0.8752,0.0,0.0,0.0,0.0,0.0,0.0,0.0,-0.9654,-0.9309,-0.8622,-0.8248,-0.8403,-0.7116,-0.6865,-0.8536,-0.7899,-0.7558,-0.7815,0.0,-0.8803,-0.8995,-0.8356,-0.8645,-1.0021,-0.9404,-0.9043,-0.9043,0.0,0.0,0.0,0.0,0.0,0.0,0.0,0.0,0.0,0.0,0.0,-1.0385,0.0,-0.9913,-1.0087,-0.9793,-0.986,-1.0123,-1.0291,-1.0294,-1.0186,-0.9753,0.0,-0.9837,-0.8321,-0.8302,0.0,0.0,0.0,0.0,0.0,0.0,0.0,0.0,0.0,-0.8595,0.0,0.0,0.0,-0.8496,0.0,0.0,0.0,0.0,0.0,0.0,0.0,0.0,0.0,0.0,0.0,0.0,0.0,0.0,0.0,0.0,-0.7012,-0.7115,-0.6107,-0.5771,-0.6529,-0.5931,-0.5596,-0.5711,-0.5657,-0.5745,-0.5946,-0.5979,-0.6105,-0.63,-0.63,-0.63,-0.63,-0.63,-0.6361,-0.6484,-0.662,-0.677,-0.6856,-0.7024,-0.7098,-0.7105,-0.7278,-0.7346,-0.7433,-0.7509,-0.7577,-0.7597,-0.854,-0.8804,0.0,0.0,0.0,0.0,0.0,0.0,-0.8378,-0.7808,-0.7097,-0.6772,-0.7066,0.0,0.0,0.0,0.0,0.0,-0.7127,0.0,-0.7069,-0.784,-0.7951,-0.8026,-0.8037,-0.8111,-0.8161,-0.8161,0.0,0.0,0.0,0.0,0.0,0.0,-1.0154,0.0,0.0,0.0,-1.002,0.0,-0.9993,-1.0057,0.0,-0.9793,-0.986,-1.0032,-0.9598,-0.9273,-0.9044,0.0,-0.8861,-0.8377,0.0,-0.814,0.0,0.0,0.0,0.0,0.0,0.0,0.0,0.0,-0.7504,0.0,0.0,0.0,-0.7025,-0.6101,0.0,0.0,0.0,0.0,0.0,0.0,0.0,0.0,0.0,0.0,0.0,0.0,0.0,0.0,0.0,0.0,0.0,-0.5027,-0.5019,-0.5078,-0.5297,-0.5377,-0.5426,-0.5446,-0.565,-0.5793,-0.5827,-0.5925,-0.6105,-0.63,-0.63,-0.63,-0.63,-0.63,-0.6306,-0.634,-0.658,-0.6709,-0.6749,-0.6984,-0.7098,-0.7098,-0.7112,-0.7251,-0.7419,-0.7439,-0.7482,-0.7597,-0.7969,-0.8156,0.0,0.0,0.0,0.0,0.0,0.0,-0.785,-0.6979,-0.7144,0.0,0.0,0.0,0.0,0.0,0.0,-0.8333,0.0,0.0,-0.8239,0.0,0.0,0.0,-0.7879,-0.7938,-0.7762,-0.7242,-0.8118,0.0,0.0,0.0,0.0,0.0,-0.986,0.0,-0.9604,0.0,0.0,0.0,0.0,0.0,0.0,-1.0047,-0.981,-0.9575,-0.915,-0.8711,-0.8281,0.0,-0.7892,0.0,0.0,0.0,0.0,0.0,0.0,0.0,0.0,0.0,0.0,0.0,0.0,0.0,0.0,0.0,-0.6739,0.0,0.0,0.0,0.0,0.0,0.0,0.0,0.0,0.0,0.0,0.0,0.0,0.0,0.0,0.0,0.0,0.0,0.0,0.0,0.0,-0.4948,-0.509,-0.5277,-0.5392,-0.5392,-0.5515,-0.563,-0.58,-0.5867,-0.6017,-0.63,-0.63,-0.63,-0.63,-0.63,-0.63,-0.6313,-0.6518,-0.662,-0.6715,-0.6889,-0.697,-0.697,-0.697,-0.7065,-0.7238,-0.7238,-0.7278,-0.7287,-0.6956,0.0,0.0,0.0,0.0,0.0,0.0,0.0,0.0,0.0,0.0,0.0,-0.8433,-0.8679,0.0,0.0,0.0,-0.965,0.0,0.0,-0.8174,0.0,0.0,0.0,0.0,0.0,-0.6981,-0.6334,0.0,0.0,0.0,0.0,0.0,0.0,0.0,-0.9593,-0.9244,0.0,0.0,-1.002,-1.0358,-1.0362,-1.0243,-1.0221,-0.9837,-0.9244,-0.8751,-0.8165,-0.7535,-0.6915,-0.6948,0.0,-0.6079,0.0,0.0,0.0,0.0,0.0,-0.5696,0.0,0.0,0.0,0.0,0.0,0.0,0.0,0.0,0.0,0.0,0.0,0.0,0.0,0.0,0.0,0.0,0.0,0.0,0.0,0.0,0.0,0.0,0.0,0.0,0.0,0.0,0.0,-0.4728,0.0,-0.5029,-0.5176,-0.531,-0.5392,-0.5392,-0.5521,-0.5739,-0.5779,-0.5935,-0.6238,-0.6279,-0.63,-0.63,-0.63,-0.63,-0.6313,-0.6497,-0.6573,-0.6654,-0.6851,-0.6862,-0.6829,-0.6869,-0.695,-0.7038,-0.7038,-0.7065,-0.7098,-0.5429,-0.6145,0.0,0.0,0.0,0.0,0.0,0.0,0.0,0.0,0.0,0.0,0.0,0.0,0.0,0.0,0.0,-0.8006,-0.7869,0.0,-0.5391,0.0,0.0,-0.5389,0.0,0.0,0.0,0.0,0.0,0.0,0.0,0.0,0.0,0.0,0.0,-0.975,-0.9231,-0.9566,-0.9729,-0.9726,-1.0007,-0.9805,-0.9428,0.0,-1.0034,-0.9204,-0.8345,0.0,0.0,-0.6719,-0.617,0.0,0.0,0.0,0.0,0.0,0.0,0.0,0.0,0.0,0.0,-0.5178,0.0,0.0,0.0,0.0,-0.4882,0.0,0.0,0.0,0.0,0.0,0.0,-0.4491,0.0,0.0,0.0,0.0,0.0,0.0,0.0,0.0,0.0,0.0,0.0,-0.4498,-0.4505,0.0,-0.4881,-0.4901,-0.5067,-0.5385,-0.5392,-0.5474,-0.5596,-0.5732,-0.5881,-0.6,-0.6193,-0.63,-0.63,-0.63,-0.63,-0.6313,-0.6566,-0.6614,-0.6545,-0.6803,-0.6844,-0.6722,-0.6829,-0.6889,-0.6896,-0.6896,-0.6977,-0.7098,0.0,0.0,0.0,0.0,0.0,0.0,0.0,-0.5514,0.0,0.0,0.0,0.0,0.0,0.0,-1.2254,0.0,0.0,-1.0338,-0.9115,-0.818,0.0,0.0,0.0,-0.6916,0.0,0.0,0.0,0.0,0.0,0.0,0.0,0.0,0.0,0.0,0.0,-0.848,0.0,0.0,0.0,0.0,0.0,-0.98,-1.0142,0.0,0.0,-0.7535,-0.7242,-0.6597,0.0,-0.5848,-0.5657,-0.5458,-0.5749,-0.5545,-0.5196,-0.5117,-0.5096,0.0,0.0,0.0,-0.5237,-0.5009,0.0,0.0,0.0,0.0,0.0,0.0,0.0,0.0,0.0,0.0,-0.4491,-0.4491,-0.4491,0.0,0.0,0.0,0.0,0.0,0.0,0.0,0.0,0.0,0.0,-0.4491,-0.4586,-0.466,0.0,-0.4921,-0.5069,-0.5203,-0.5344,-0.5467,-0.5589,-0.5637,-0.5786,-0.5993,-0.6084,-0.6159,-0.63,-0.63,-0.63,-0.6306,-0.6409,-0.647,-0.6518,-0.6586,-0.6654,-0.6709,-0.6756,-0.6837,-0.6896,-0.6991,-0.7058,-0.7098,-0.5054,0.0,0.0,0.0,0.0,0.0,0.0,0.0,0.0,0.0,-0.7399,0.0,-1.0653,0.0,-1.3404,0.0,-1.2569,-1.131,-0.9787,-0.859,0.0,-0.6486,-0.7225,0.0,0.0,0.0,0.0,0.0,0.0,-0.574,0.0,0.0,0.0,0.0,0.0,0.0,0.0,0.0,-0.8969,0.0,0.0,-0.9268,0.0,0.0,-0.7859,-0.7111,0.0,-0.6137,-0.5392,-0.5392,-0.5392,-0.5392,-0.5392,-0.5324,-0.5209,-0.5209,-0.5209,-0.5196,-0.5101,-0.5248,0.0,-0.5121,-0.5148,0.0,-0.4995,0.0,0.0,0.0,0.0,0.0,0.0,0.0,0.0,-0.4559,-0.4525,-0.4511,0.0,-0.4573,0.0,0.0,0.0,0.0,0.0,0.0,-0.4491,-0.4491,-0.4634,-0.4714,0.0,0.0,-0.5123,-0.5209,-0.5344,-0.544,-0.5542,-0.5562,-0.5684,-0.5874,-0.5946,-0.6084,-0.6179,-0.6272,-0.63,-0.6306,-0.6354,-0.6402,-0.6443,-0.6491,-0.6538,-0.6552,-0.6661,-0.6763,-0.6865,-0.697,-0.7051,-0.7098,0.0,0.0,0.0,0.0,-0.5061,0.0,0.0,0.0,-0.5874,0.0,-0.6497,-0.785,-1.0572,-1.1167,-1.2237,-1.4287,-1.2524,0.0,-0.9757,-0.762,0.0,0.0,-0.5721,-0.5672,-0.5412,0.0,0.0,0.0,0.0,0.0,0.0,0.0,0.0,0.0,-0.7188,0.0,-0.6835,-0.732,-0.7909,-0.8581,-0.9005,-0.8194,-0.6752,-0.6654,0.0,-0.7827,-0.6948,-0.6104,-0.5392,-0.5392,-0.5392,-0.5392,-0.5392,-0.5392,-0.5392,-0.5392,-0.5392,-0.5392,-0.5392,-0.5392,-0.5392,-0.5392,0.0,0.0,0.0,0.0,-0.5069,0.0,0.0,0.0,0.0,0.0,0.0,-0.4667,-0.4593,-0.4552,-0.468,0.0,0.0,0.0,0.0,0.0,0.0,-0.4511,-0.4511,-0.4511,-0.4641,0.0,0.0,0.0,0.0,-0.5378,-0.5392,-0.5392,-0.5392,-0.5542,-0.5583,-0.5596,-0.5874,-0.5979,-0.6,-0.6179,-0.6293,-0.6306,-0.6443,-0.6422,-0.6313,-0.645,-0.6422,-0.634,-0.658,-0.6702,-0.6729,-0.6842,-0.6977,-0.7098,-0.4653,-0.4721,-0.4889,0.0,-0.5085,-0.5108,0.0,0.0,0.0,0.0,-0.7799,-0.9409,-1.1395,-1.2346,-1.3159,-1.3826,-1.2226,0.0,0.0,0.0,0.0,-0.618,-0.7468,-0.738,-0.5569,-0.6317,0.0,-0.5337,0.0,0.0,-0.5392,0.0,0.0,0.0,0.0,0.0,-0.5524,-0.7012,-0.7768,-0.79,-0.7526,-0.7502,0.0,0.0,-0.6268,-0.6915,-0.6046,-0.5591,-0.5392,-0.5392,-0.5392,-0.5392,-0.5392,-0.5392,-0.5392,-0.5392,-0.5392,-0.5392,-0.5392,-0.5392,-0.5392,-0.5392,-0.5392,-0.5385,0.0,0.0,0.0,0.0,0.0,0.0,0.0,0.0,0.0,0.0,-0.466,0.0,0.0,0.0,0.0,0.0,0.0,0.0,0.0,0.0,-0.4802,-0.4802,-0.4735,0.0,0.0,0.0,0.0,-0.5182,-0.5337,-0.5392,-0.5392,-0.5433,-0.5515,-0.5589,-0.5664,-0.582,-0.5993,-0.6071,-0.6152,-0.63,-0.634,-0.6334,-0.6306,-0.634,-0.6395,-0.6463,-0.6545,-0.6668,-0.6849,-0.6991,-0.7065,-0.7098,-0.4796,0.0,0.0,-0.5406,0.0,0.0,-0.5772,0.0,0.0,-0.7451,-0.8107,0.0,-1.1194,-1.1568,-1.1925,-1.2528,-1.1134,0.0,0.0,0.0,0.0,-0.6345,-0.7191,-0.6991,-0.5528,-0.6056,0.0,-0.5169,0.0,0.0,-0.5392,0.0,0.0,0.0,0.0,-0.5461,0.0,-0.6519,-0.6962,-0.6702,-0.6709,0.0,0.0,-0.5789,-0.5723,-0.6071,-0.5591,-0.5392,-0.5392,-0.5392,-0.5392,-0.5392,-0.5392,-0.5392,-0.5392,-0.5392,-0.5392,-0.5392,-0.5392,-0.5392,-0.5392,-0.5392,-0.5392,-0.5392,-0.5392,-0.5344,-0.5257,0.0,0.0,0.0,0.0,0.0,0.0,0.0,0.0,0.0,0.0,0.0,0.0,0.0,0.0,0.0,0.0,0.0,0.0,0.0,0.0,0.0,0.0,0.0,0.0,-0.5223,-0.544,-0.5528,-0.5399,-0.559,-0.5596,-0.5528,-0.5623,-0.5739,-0.584,-0.5932,-0.6078,-0.6166,-0.6272,-0.63,-0.63,-0.63,-0.6347,-0.6429,-0.6559,-0.6715,-0.6903,-0.7045,-0.7098,-0.7098,0.0,0.0,0.0,0.0,0.0,0.0,0.0,-0.6383,0.0,-0.813,0.0,-0.8253,-1.0407,-0.9903,-0.983,-1.0781,0.0,-0.8794,-0.8255,-0.7127,-0.645,-0.6306,-0.5962,-0.5671,-0.5433,-0.5385,0.0,0.0,0.0,0.0,0.0,0.0,0.0,0.0,0.0,0.0,0.0,-0.5911,-0.5877,0.0,-0.6228,-0.6071,-0.5392,-0.5392,-0.5392,-0.5392,-0.5392,-0.5392,-0.5392,-0.5392,-0.5392,-0.5392,-0.5392,-0.5392,-0.5392,-0.5392,-0.5392,-0.5392,-0.5392,-0.5392,-0.5392,-0.5392,-0.5392,-0.5392,-0.5392,-0.5257,-0.5203,-0.5365,-0.5155,-0.5053,0.0,0.0,0.0,0.0,0.0,0.0,0.0,0.0,0.0,0.0,0.0,0.0,0.0,0.0,0.0,0.0,0.0,0.0,0.0,0.0,0.0,0.0,-0.561,0.0,-0.5487,0.0,-0.5806,-0.5515,-0.5677,-0.5732,-0.5657,-0.5895,-0.5986,-0.6064,-0.6238,-0.63,-0.63,-0.63,-0.63,-0.6327,-0.6417,-0.6525,-0.6662,-0.6637,-0.665,-0.6694,0.0,0.0,0.0,0.0,0.0,-0.6539,-0.6701,-0.6869,-0.7132,-0.7534,-0.7586,0.0,-0.9561,-0.9412,-0.9281,-0.957,-0.9113,0.0,0.0,0.0,0.0,-0.6306,-0.5962,-0.5725,-0.5555,-0.5298,-0.5209,0.0,0.0,0.0,0.0,0.0,0.0,0.0,0.0,0.0,-0.5096,-0.5255,0.0,-0.5182,-0.5501,-0.5524,-0.5392,-0.5392,-0.5392,-0.5392,-0.5392,-0.5392,-0.5392,-0.5392,-0.5392,-0.5392,-0.5392,-0.5392,-0.5392,-0.5392,-0.5392,-0.5392,-0.5392,-0.5392,-0.5392,-0.5392,-0.5392,-0.5392,-0.5392,-0.5371,-0.5365,-0.5392,-0.5351,-0.533,-0.5385,0.0,0.0,0.0,0.0,0.0,0.0,0.0,0.0,0.0,0.0,0.0,0.0,0.0,0.0,0.0,0.0,0.0,0.0,0.0,0.0,0.0,0.0,0.0,0.0,0.0,-0.5813,-0.6136,-0.5815,-0.5739,-0.5912,-0.5874,-0.5983,-0.6259,-0.6286,-0.63,-0.63,-0.63,-0.63,-0.621,-0.5519,-0.5251,-0.5162,-0.4489,-0.4194,-0.4505,0.0,0.0,0.0,0.0,0.0,0.0,0.0,-0.7217,0.0,-0.8005,-0.7603,-0.7692,-0.8783,-0.8391,-0.8056,-0.8061,-0.7823,-0.7397,-0.6736,-0.641,-0.6213,-0.6146,-0.5854,0.0,-0.5508,-0.525,-0.5137,-0.5243,0.0,0.0,0.0,0.0,0.0,0.0,0.0,-0.525,0.0,0.0,0.0,-0.5257,-0.5365,-0.5392,-0.5392,-0.5392,-0.5392,-0.5392,-0.5392,-0.5392,-0.5392,-0.5392,-0.5392,-0.5392,-0.5392,-0.5392,-0.5392,-0.5392,-0.5392,-0.5392,-0.5392,-0.5392,-0.5392,-0.5392,-0.5392,-0.5392,-0.5392,-0.5392,-0.5392,-0.5392,-0.5392,-0.5259,-0.4755,-0.5002,0.0,0.0,0.0,0.0,0.0,0.0,0.0,0.0,0.0,0.0,0.0,0.0,0.0,0.0,0.0,0.0,0.0,0.0,0.0,0.0,0.0,0.0,0.0,0.0,0.0,-0.6061,-0.5881,-0.5847,-0.5915,-0.5915,-0.6003,-0.6146,-0.6265,-0.5983,-0.5434,-0.4885,-0.4639,-0.4591,-0.4279,-0.4093,-0.4022,-0.3707,-0.3616,-0.3749,0.0,-0.6736,0.0,0.0,-0.7051,0.0,0.0,-0.7398,-0.7643,-0.8351,-0.7578,-0.7225,-0.8033,-0.7476,-0.7004,-0.6896,-0.6756,-0.66,-0.6518,-0.6193,-0.5979,-0.5946,-0.5732,-0.5549,-0.5399,-0.5209,-0.5117,0.0,0.0,0.0,0.0,0.0,0.0,0.0,0.0,0.0,0.0,0.0,-0.5392,-0.5392,-0.5392,-0.5392,-0.5392,-0.5392,-0.5392,-0.5392,-0.5392,-0.5392,-0.5392,-0.5392,-0.5392,-0.5392,-0.5392,-0.5392,-0.5392,-0.5392,-0.5392,-0.5392,-0.5392,-0.5392,-0.5392,-0.5392,-0.5392,-0.5392,-0.5392,-0.5392,-0.5392,-0.5392,-0.5226,-0.4888,-0.4151,-0.445,0.0,0.0,0.0,0.0,0.0,0.0,0.0,0.0,0.0,0.0,0.0,0.0,0.0,0.0,0.0,0.0,0.0,0.0,0.0,0.0,0.0,-0.5718,-0.5732,0.0,-0.6143,0.0,-0.5979,-0.5983,-0.5901,-0.5767,-0.5707,-0.5701,-0.5662,-0.5157,-0.4297,-0.3456,-0.3097,-0.308,-0.3025,-0.2986,-0.2953,-0.2881,-0.2814,-0.2814,0.0,0.0,0.0,0.0,0.0,0.0,0.0,-0.7278,-0.7412,-0.7528,-0.7262,-0.7122,-0.7204,-0.7057,-0.6903,-0.6889,-0.6661,-0.6525,-0.6511,-0.6193,-0.5932,-0.5827,-0.5671,-0.5549,-0.5399,-0.5209,-0.5203,0.0,0.0,0.0,0.0,0.0,0.0,0.0,0.0,0.0,0.0,-0.5392,-0.5392,-0.5392,-0.5392,-0.5392,-0.5392,-0.5392,-0.5392,-0.5392,-0.5392,-0.5392,-0.5392,-0.5392,-0.5392,-0.5392,-0.5392,-0.5392,-0.5392,-0.5392,-0.5392,-0.5392,-0.5392,-0.5392,-0.5392,-0.5392,-0.5392,-0.5392,-0.5392,-0.5392,-0.5392,-0.5392,-0.4722,-0.4118,-0.4018,-0.3413,-0.318,0.0,0.0,0.0,0.0,0.0,0.0,0.0,0.0,0.0,0.0,0.0,0.0,0.0,0.0,0.0,0.0,0.0,0.0,-0.5392,0.0,-0.5692,-0.6231,-0.5962,0.0,-0.6614,-0.6175,-0.6098,-0.6213,-0.513,-0.4725,-0.4748,-0.3822,-0.3355,-0.3246,-0.3157,-0.3113,-0.3014,-0.2125,-0.1773,-0.1651,-0.0668,-0.0359,-0.0359,0.0,0.0,0.0,0.0,0.0,0.0,0.0,-0.7251,-0.7231,-0.7231,-0.7132,-0.7098,-0.7098,-0.697,-0.6849,-0.6803,-0.6593,-0.6396,-0.622,-0.601,-0.5827,-0.5684,-0.5569,-0.546,-0.5399,-0.533,-0.533,0.0,0.0,0.0,0.0,0.0,0.0,0.0,0.0,-0.5392,-0.5392,-0.5392,-0.5392,-0.5392,-0.5392,-0.5392,-0.5392,-0.5392,-0.5392,-0.5392,-0.5392,-0.5392,-0.5392,-0.5392,-0.5392,-0.5392,-0.5392,-0.5392,-0.5392,-0.5392,-0.5392,-0.5392,-0.5392,-0.5392,-0.5392,-0.5392,-0.5392,-0.5392,-0.5392,-0.5392,-0.5392,-0.5392,-0.4655,-0.368,-0.2576,-0.2542,-0.2643,0.0,0.0,0.0,0.0,0.0,0.0,0.0,0.0,0.0,0.0,0.0,0.0,0.0,0.0,0.0,0.0,0.0,0.0,-0.5392,0.0,-0.537,-0.505,-0.5021,-0.4839,-0.4534,-0.4331,-0.4294,-0.437,-0.3866,-0.3673,-0.3671,-0.2657,-0.2185,-0.216,-0.1504,-0.1247,-0.1208,-0.0781,-0.0657,-0.0577,-0.0179,0.0,0.0,-0.7719,0.0,-0.759,0.0,-0.7448,-0.7299,-0.736,-0.7238,-0.7098,-0.7098,-0.7098,-0.7078,-0.7038,-0.6903,-0.6803,-0.6647,-0.6538,-0.6302,-0.6006,-0.5888,-0.5739,-0.5596,-0.5481,0.0,-0.5392,-0.5392,-0.5392,-0.5392,-0.5392,0.0,0.0,0.0,0.0,0.0,-0.5392,-0.5392,-0.5392,-0.5392,-0.5392,-0.5392,-0.5392,-0.5392,-0.5392,-0.5392,-0.5392,-0.5392,-0.5392,-0.5392,-0.5392,-0.5392,-0.5392,-0.5392,-0.5392,-0.5392,-0.5392,-0.5392,-0.5392,-0.5392,-0.5392,-0.5392,-0.5392,-0.5392,-0.5392,-0.5326,-0.5054,-0.4987,-0.4921,-0.4655,-0.3846,-0.2809,-0.154,-0.1642,-0.1776,-0.1374,0.0,0.0,0.0,0.0,0.0,0.0,0.0,-0.2504,-0.1962,0.0,0.0,0.0,0.0,0.0,0.0,0.0,0.0,0.0,0.0,0.0,0.0,-0.444,-0.4038,-0.3083,-0.3083,-0.3083,-0.3083,-0.2813,-0.247,-0.2132,-0.1453,-0.1118,-0.1069,-0.0329,0.0,0.0,0.0,0.0,0.0,0.0,0.0,0.0,-0.7955,-0.7982,-0.7934,-0.7834,-0.7692,-0.7543,-0.7439,-0.7238,-0.7098,-0.7098,-0.7098,-0.7045,-0.6903,-0.6797,-0.6641,-0.6525,-0.6381,-0.6238,-0.6,-0.5888,-0.5739,0.0,0.0,-0.5392,-0.5392,-0.5392,-0.5392,-0.5392,0.0,0.0,-0.5392,0.0,-0.5392,-0.5392,-0.5392,-0.5392,-0.5392,-0.5392,-0.5392,-0.5392,-0.5392,-0.5392,-0.5392,-0.5392,-0.5392,-0.5392,-0.5392,-0.5392,-0.5392,-0.5392,-0.5392,-0.5392,-0.5392,-0.5392,-0.5392,-0.5392,-0.5392,-0.5392,-0.5392,-0.5392,-0.5392,-0.5392,-0.5392,-0.516,-0.4217,-0.4018,-0.378,-0.2909,-0.1975,-0.1341,-0.1307,-0.0605,-0.0303,-0.1173,0.0,0.0,0.0,0.0,0.0,0.0,-0.1603,-0.2001,-0.0217,0.0,0.0,0.0,0.0,0.0,0.0,0.0,0.0,-0.4216,-0.5133,0.0,-0.4512,-0.4517,-0.4038,-0.3083,-0.3083,-0.3083,-0.3083,-0.2074,-0.1032,-0.0041,-0.004,0.0,0.0,0.0,0.0,0.0,0.0,0.0,0.0,0.0,0.0,0.0,-0.7982,-0.7907,-0.7834,-0.7692,-0.7543,-0.7394,-0.7238,-0.7125,-0.7098,-0.7098,-0.7098,-0.7045,-0.6903,-0.679,-0.6641,0.0,-0.6247,-0.6037,0.0,-0.5739,-0.5589,-0.5474,-0.5419,-0.5392,-0.5392,-0.5392,-0.5392,-0.5392,0.0,0.0,0.0,-0.5392,-0.5392,-0.5392,-0.5392,-0.5392,-0.5392,-0.5392,-0.5392,-0.5392,-0.5392,-0.5392,-0.5392,-0.5392,-0.5392,-0.5392,-0.5392,-0.5392,-0.5392,-0.5392,-0.5392,-0.5392,-0.5392,-0.5392,-0.5392,-0.5392,-0.5392,-0.5392,-0.5392,-0.5392,-0.5392,-0.5392,-0.4921,-0.435,-0.4084,-0.3547,-0.2846,-0.1941,-0.1508,-0.1106,-0.0538,-0.0202,-0.0101,-0.037,0.0,0.0,0.0,0.0,0.0,0.0,0.0,-0.0642,0.0,-0.0468,0.0,0.0,0.0,0.0,0.0,0.0,0.0,0.0,-0.3551,0.0,-0.2336,-0.2452,-0.202,-0.0979,-0.0979,-0.0988,-0.0964,-0.0654,-0.0331,0.0,0.0,0.0,0.0,0.0,0.0,0.0,0.0,0.0,0.0,0.0,0.0,0.0,-0.7907,-0.7834,-0.7685,-0.7543,-0.7434,-0.7319,-0.7119,-0.7098,-0.7098,-0.7098,-0.7098,-0.7045,-0.6903,-0.679,0.0,-0.6525,-0.6254,-0.6023,-0.5813,-0.5718,-0.5576,-0.5405,-0.5392,-0.5392,-0.5392,0.0,0.0,-0.5392,-0.5392,-0.5392,-0.5392,-0.5392,-0.5392,-0.5392,-0.5392,-0.5392,-0.5392,-0.5392,-0.5392,-0.5392,-0.5392,-0.5392,-0.5392,-0.5392,-0.5392,-0.5392,-0.5392,-0.5392,-0.5392,-0.5392,-0.5392,-0.5392,-0.5392,-0.5392,-0.5392,-0.5392,-0.5392,-0.5392,-0.5392,-0.5392,-0.5326,-0.4954,-0.4417,-0.3813,-0.3143,-0.2312,-0.1508,-0.094,-0.0806,-0.0639,-0.0101,0.0,0.0,0.0,0.0,0.0,0.0,0.0,0.0,0.0,0.0,0.0,0.0,0.0,0.0,0.0,0.0,0.0,0.0,0.0,0.0,-0.23,-0.269,0.0,-0.1417,-0.1556,-0.1064,0.0,0.0,0.0,0.0,0.0,0.0,0.0,0.0,0.0,0.0,0.0,0.0,0.0,0.0,0.0,0.0,0.0,0.0,0.0,-0.7794,-0.7685,0.0,0.0,-0.7405,0.0,-0.7119,-0.7098,-0.7098,-0.7098,-0.7098,-0.7045,-0.6903,-0.679,-0.6641,-0.6525,0.0,0.0,0.0,-0.5779,-0.565,-0.5405,-0.5392,-0.5392,-0.5392,-0.5392,-0.5392,-0.5392,-0.5392,-0.5392,-0.5392,-0.5392,-0.5392,-0.5392,-0.5392,-0.5392,-0.5392,-0.5392,-0.5392,-0.5392,-0.5392,-0.5392,-0.5392,-0.5392,-0.5385,-0.5378,-0.5392,-0.5385,-0.5378,-0.5392,-0.5392,-0.5392,-0.5392,-0.5359,-0.5326,-0.5392,-0.5359,-0.5292,-0.5292,-0.5259,-0.4987,-0.4118,-0.3846,-0.3347,-0.1607,-0.0572,0.0,0.0,0.0,0.0,0.0,0.0,0.0,0.0,0.0,0.0,0.0,0.0,0.0,0.0,0.0,0.0,0.0,0.0,0.0,0.0,0.0,0.0,0.0,0.0,-0.1313,-0.149,-0.2273,-0.2292,-0.1489,-0.1489,-0.0993,0.0,0.0,0.0,0.0,0.0,0.0,0.0,0.0,0.0,0.0,0.0,0.0,0.0,0.0,0.0,0.0,0.0,0.0,0.0,0.0,0.0,-0.746,-0.7426,-0.7272,-0.7139,-0.7098,-0.7098,-0.7098,-0.7098,-0.7098,-0.7045,-0.6903,-0.679,-0.6641,-0.6525,-0.6125,-0.5881,-0.5806,-0.5624,-0.5467,-0.5399,-0.5392,-0.5392,-0.5392,-0.5392,-0.5392,-0.5392,-0.5392,-0.5392,-0.5392,-0.5392,-0.5392,-0.5392,-0.5392,-0.5392,-0.5392,-0.5392,-0.5392,-0.5392,-0.5392,-0.5392,-0.5392,-0.5392,-0.5324,-0.5203,-0.5351,-0.5284,-0.5203,-0.5358,-0.5392,-0.5392,-0.5392,-0.4921,-0.4483,-0.5193,-0.4888,-0.4317,-0.4317,-0.3846,-0.328,-0.308,-0.2476,-0.1642,-0.0572,-0.0135,0.0,0.0,0.0,0.0,0.0,0.0,0.0,0.0,0.0,0.0,0.0,0.0,0.0,0.0,0.0,0.0,0.0,0.0,0.0,0.0,0.0,0.0,0.0,-0.0183,-0.0332,-0.0364,-0.0597,-0.0574,-0.0392,-0.0392,-0.0238,0.0,0.0,0.0,0.0,0.0,0.0,0.0,0.0,0.0,0.0,0.0,0.0,0.0,0.0,0.0,0.0,0.0,0.0,0.0,-0.7495,-0.7373,-0.7265,-0.7265,-0.7197,-0.7098,-0.7098,-0.7098,-0.7098,-0.7098,-0.7098,-0.7065,-0.6991,-0.6831,-0.6668,-0.6586,-0.6227,-0.5949,-0.5813,-0.565,-0.5535,-0.5399,-0.5392,-0.5392,-0.5392,-0.5392,-0.5392,-0.5392,-0.4954,-0.4987,-0.5392,-0.5392,-0.5392,-0.5392,-0.5392,-0.5392,-0.5392,-0.5392,-0.5392,-0.5392,-0.5392,-0.516,-0.4755,-0.4755,-0.4443,-0.4029,-0.4125,-0.4109,-0.4029,-0.413,-0.4151,-0.4151,-0.4151,-0.3813,-0.3513,-0.4018,-0.3813,-0.3413,-0.3413,-0.3047,-0.2609,-0.2175,-0.1374,-0.0572,-0.0101,0.0,0.0,0.0,0.0,0.0,0.0,0.0,0.0,0.0,0.0,0.0,0.0,0.0,0.0,0.0,0.0,0.0,0.0,0.0,0.0,0.0,0.0,0.0,0.0,0.0,0.0,0.0,0.0,0.0,0.0,0.0,0.0,0.0,0.0,0.0,0.0,0.0,0.0,0.0,0.0,0.0,0.0,0.0,0.0,0.0,0.0,0.0,0.0,0.0,0.0,0.0,-0.6827,-0.6687,-0.6561,-0.6561,-0.6561,-0.6561,-0.6561,-0.6561,-0.6561,-0.6561,-0.6561,-0.6543,-0.6549,-0.6336,-0.6179,-0.6176,-0.5961,-0.5822,-0.5784,-0.5616,-0.5408,-0.5206,-0.5054,-0.4987,-0.4987,-0.4987,-0.4987,-0.4987,-0.4184,-0.4217,-0.4987,-0.4987,-0.4987,-0.4987,-0.4987,-0.4987,-0.4987,-0.4987,-0.4987,-0.4987,-0.4987,-0.4517,-0.3813,-0.3813,-0.3338,-0.2662,-0.2706,-0.2702,-0.2662,-0.2706,-0.2709,-0.2709,-0.2709,-0.2609,-0.2476,-0.2476,-0.2412,-0.2312,-0.2442,-0.2379,-0.2111,-0.1307,-0.0538,0.0,0.0,0.0,0.0,0.0,0.0,0.0,0.0,0.0,0.0,0.0,0.0,0.0,0.0,0.0,0.0,0.0,0.0,0.0,0.0,0.0,0.0,0.0,0.0,0.0,0.0,0.0,0.0,0.0,0.0,0.0,0.0,0.0,0.0,0.0,0.0,0.0,0.0,0.0,0.0,0.0,0.0,0.0,0.0,0.0,0.0,0.0,0.0,0.0,0.0,0.0,0.0,0.0041,-0.417,-0.4158,-0.415,-0.415,-0.415,-0.415,-0.415,-0.415,-0.415,-0.415,-0.415,-0.4094,-0.3994,-0.395,-0.3833,-0.3683,-0.3608,-0.4204,-0.5712,-0.4832,-0.4255,-0.4217,-0.3513,-0.3113,-0.3113,-0.3113,-0.3113,-0.3113,-0.298,-0.298,-0.3113,-0.3113,-0.3113,-0.3113,-0.3113,-0.3113,-0.3113,-0.3113,-0.3113,-0.3113,-0.3113,-0.3047,-0.2909,-0.2909,-0.2741,-0.2533,-0.2656,-0.2638,-0.2533,-0.2656,-0.2709,-0.2709,-0.2709,-0.2142,-0.1507,-0.1507,-0.1007,-0.0572,-0.1307,-0.0974,-0.037,-0.0236,-0.0101,0.0,0.0,0.0,0.0,0.0,0.0,0.0,0.0,0.0,0.0,0.0,0.0,0.0,0.0,0.0,0.0,0.0,0.0,0.0,0.0,0.0,0.0,0.0,0.0,0.0,0.0,0.0,0.0,0.0,0.0,0.0,0.0,0.0,0.0,0.0,0.0,0.0,0.0,0.0,0.0,0.0,0.0,0.0,0.0,0.0,0.0,0.0,0.0,0.0,0.0,0.0,0.0,0.0129,-0.3616,-0.3585,-0.3615,-0.3606,-0.3581,-0.3601,-0.3601,-0.3601,-0.3587,-0.3588,-0.3581,-0.3557,-0.3528,-0.3399,-0.3302,-0.323,-0.3073,-0.334,-0.4188,-0.3719,-0.3384,-0.3318,-0.2909,-0.2709,-0.2709,-0.2209,-0.2209,-0.2709,-0.2209,-0.2209,-0.2709,-0.2709,-0.2709,-0.2709,-0.2709,-0.2709,-0.2709,-0.2709,-0.2709,-0.2709,-0.2709,-0.2409,-0.1941,-0.1941,-0.163,-0.1156,-0.1237,-0.1199,-0.1156,-0.1237,-0.1242,-0.1242,-0.1242,-0.094,-0.0605,-0.0605,-0.0303,-0.0101,-0.0504,-0.0303,0.0,0.0,0.0,0.0,0.0,0.0,0.0,0.0,0.0,0.0,0.0,0.0,0.0,0.0,0.0,0.0,0.0,0.0,0.0,0.0,0.0,0.0216,0.08,0.0933,0.1186,0.1719,0.1283,0.095,0.0982,0.0343,0.0,0.0,0.0,0.0,0.0,0.0,0.0,0.0,0.0,0.0,0.0,0.0,0.0,0.0,0.0,0.0354,0.097,0.0905,0.1231,0.181,0.1695,0.1704,0.1753,0.1681,0.1719,0.1872,-0.2769,-0.2782,-0.2766,-0.2764,-0.2779,-0.2752,-0.2752,-0.2782,-0.2758,-0.2754,-0.2745,-0.2779,-0.2748,-0.2632,-0.2521,-0.2532,-0.2333,-0.2241,-0.2228,-0.2223,-0.2256,-0.2372,-0.2183,-0.2078,-0.2078,-0.1374,-0.1341,-0.2078,-0.1341,-0.1374,-0.2078,-0.2078,-0.2078,-0.2078,-0.2078,-0.2078,-0.2078,-0.2078,-0.2078,-0.2078,-0.2078,-0.1642,-0.1007,-0.1007,-0.0572,0.0,0.0,0.0,0.0,0.0,0.0,0.0,0.0,0.0,0.0,0.0,0.0,0.0,0.0,0.0,0.0,0.0,0.0,0.0,0.0,0.0,0.0,0.0,0.0,0.0,0.0,0.0,0.0,0.0,0.0,0.0,0.0,0.0,0.0,0.0,0.0216,0.0701,0.1565,0.197,0.2497,0.332,0.2649,0.2217,0.2222,0.1355,0.07,0.0438,0.013,0.0,0.0,0.0,0.0,0.0,0.0,0.0,0.0,0.0269,0.0404,0.0449,0.0718,0.1341,0.2126,0.2057,0.2542,0.3316,0.3179,0.3157,0.3235,0.3154,0.3183,0.3347,-0.0269,-0.0269,-0.0269,-0.0269,-0.0269,-0.0269,-0.0269,-0.0264,-0.0261,-0.0261,-0.026,-0.0256,-0.0246,-0.0249,-0.0247,-0.0237,-0.0235,-0.0233,-0.0227,-0.0227,-0.0553,-0.1361,-0.0614,-0.0202,-0.0202,-0.0135,-0.0135,-0.0202,-0.0135,-0.0135,-0.0202,-0.0202,-0.0202,-0.0202,-0.0202,-0.0202,-0.0202,-0.0202,-0.0202,-0.0202,-0.0202,-0.0169,-0.0101,-0.0101,-0.0067,0.0,0.0,0.0,0.0,0.0,0.0,0.0,0.0,0.0,0.0,0.0,0.0,0.0,0.0,0.0,0.0,0.0,0.0,0.0,0.0,0.0,0.0,0.0,0.0,0.0,0.0,0.0,0.0,0.0,0.0,0.0,0.0,0.0,0.0,0.0,0.0865,0.1572,0.1762,0.2621,0.3289,0.3557,0.3495,0.3486,0.3469,0.3383,0.2808,0.1696,0.0603,0.0,0.0,0.0,0.0,0.0,0.0,0.0,0.0045,0.1165,0.1657,0.1746,0.2858,0.3269,0.321,0.3243,0.3206,0.3136,0.3112,0.31,0.3099,0.3119,0.3099,0.3257,0.0,0.0,0.0,0.0,0.0,0.0,0.0,0.0,0.0,0.0,0.0,0.0,0.0,0.0,0.0,0.0,0.0,0.0,0.0,0.0,-0.0146,-0.0492,-0.0171,0.0,0.0,0.0,0.0,0.0,0.0,0.0,0.0,0.0,0.0,0.0,0.0,0.0,0.0,0.0,0.0,0.0,0.0,0.0,0.0,0.0,0.0,0.0,0.0,0.0,0.0,0.0,0.0,0.0,0.0,0.0,0.0,0.0,0.0,0.0,0.0,0.0,0.0,0.0,0.0,0.0,0.0,0.0,0.0,0.0,0.0,0.0,0.0,0.0,0.0,0.0,0.0,0.0,0.0,0.0,0.0,0.0,0.1009,0.1987,0.2667,0.3861,0.4887,0.5577,0.5082,0.4696,0.4727,0.4016,0.3393,0.2948,0.2463,0.1885,0.1107,0.1857,0.2217,0.2236,0.2236,0.2236,0.2236,0.2725,0.2903,0.2948,0.3393,0.3926,0.4407,0.435,0.4661,0.521,0.5108,0.5154,0.521,0.5108,0.5141,0.527,0.0,0.0,0.0,0.0,0.0,0.0,0.0,0.0,0.0,0.0,0.0,0.0,0.0,0.0,0.0,0.0,0.0,0.0,0.0,0.0,0.0,0.0,0.0,0.0,0.0,0.0,0.0,0.0,0.0,0.0,0.0,0.0,0.0,0.0,0.0,0.0,0.0,0.0,0.0,0.0,0.0,0.0,0.0,0.0,0.0,0.0,0.0,0.0,0.0,0.0,0.0,0.0,0.0,0.0,0.0,0.0,0.0,0.0,0.0,0.0,0.0,0.0,0.0,0.0,0.0,0.0,0.0,0.0,0.0,0.0,0.0,0.0,0.0,0.0,0.0,0.0,0.0,0.0,0.0,0.0,0.1041,0.2176,0.3265,0.4549,0.5766,0.6857,0.6336,0.5935,0.5935,0.5132,0.455,0.4194,0.4505,0.415,0.295,0.3393,0.3616,0.3616,0.3616,0.3616,0.3616,0.3972,0.415,0.4194,0.4519,0.5019,0.5596,0.548,0.5804,0.6436,0.634,0.6361,0.6436,0.6334,0.6361,0.6429,0.0,0.0,0.0,0.0,0.0,0.0,0.0,0.0,0.0,0.0,0.0,0.0,0.0,0.0,0.0,0.0,0.0,0.0,0.0,0.0,0.0,0.0,0.0,0.0,0.0,0.0,0.0,0.0,0.0,0.0,0.0,0.0,0.0,0.0,0.0,0.0,0.0,0.0,0.0,0.0,0.0,0.0,0.0,0.0,0.0,0.0,0.0,0.0,0.0,0.0,0.0,0.0,0.0,0.0,0.0,0.0,0.0,0.0,0.0,0.0,0.0,0.0,0.0,0.0,0.0,0.0,0.0,0.0,0.0,0.0,0.0036,0.0,0.0,0.0,0.0,0.0,0.0,0.0,0.0,0.0,0.0952,0.2115,0.3459,0.4497,0.567,0.6997,0.7098,0.7098,0.7098,0.7098,0.6561,0.5447,0.6517,0.6561,0.5403,0.4239,0.3616,0.3616,0.3616,0.3616,0.366,0.4865,0.5403,0.5487,0.6467,0.6844,0.6688,0.6539,0.6429,0.63,0.63,0.63,0.63,0.63,0.63,0.63,0.0,0.0,0.0,0.0,0.0,0.0,0.0,0.0,0.0,0.0,0.0,0.0,0.0,0.0,0.0,0.0,0.0,0.0,0.0,0.0,0.0,0.0,0.0,0.0,0.0,0.0,0.0,0.0,0.0,0.0,0.0,0.0,0.0,0.0,0.0,0.0,0.0,0.0,0.0,0.0,0.0,0.0,0.0,0.0,0.0,0.0,0.0,0.0,0.0,0.0,0.0,0.0,0.0,0.0,0.0,0.0,0.0,0.0,0.0,0.0,0.0,0.0,0.0,0.0,0.0,0.0,0.0206,0.0976,0.0529,0.0431,0.1892,0.0971,0.0263,0.0995,0.0499,0.0,0.0,0.0,0.0,0.0,0.1017,0.2237,0.3462,0.4651,0.5808,0.7003,0.7098,0.7098,0.7098,0.7098,0.6959,0.6605,0.6915,0.6915,0.6605,0.6245,0.6068,0.6068,0.6068,0.6068,0.6068,0.6428,0.6605,0.6605,0.6919,0.6889,0.6695,0.6654,0.6525,0.63,0.63,0.63,0.63,0.63,0.63,0.63,0.0,0.0,0.0,0.0,0.0,0.0,0.0,0.0,0.0,0.0,0.0,0.0,0.0,0.0,0.0,0.0,0.0,0.0,0.0,0.0,0.0,0.0,0.0,0.0,0.0,0.0,0.0,0.0,0.0,0.0,0.0,0.0,0.0,0.0,0.0,0.0,0.0,0.0,0.0,0.0,0.0,0.0,0.0,0.0,0.0,0.0,0.0,0.0,0.0,0.0,0.0,0.0,0.0,0.0,0.0,0.0,0.0,0.0,0.0,0.0,0.0101,0.0511,0.0308,0.0103,0.0547,0.0626,0.0922,0.1977,0.1673,0.1627,0.2854,0.2067,0.1423,0.207,0.1644,0.1106,0.0689,0.0614,0.0457,0.0043,0.1084,0.2281,0.3463,0.4696,0.5891,0.7003,0.7098,0.7098,0.7098,0.7098,0.7098,0.7098,0.7098,0.7098,0.7098,0.7098,0.7098,0.7098,0.7098,0.7098,0.7098,0.7098,0.7098,0.7092,0.697,0.6865,0.6695,0.6573,0.6463,0.63,0.63,0.6532,0.6834,0.6454,0.6795,0.7442,0.0,0.0,0.0,0.0,0.0,0.0,0.0,0.0,0.0,0.0,0.0,0.0,0.0,0.0,0.0,0.0,0.0,0.0,0.0,0.0,0.0,0.0,0.0,0.0,0.0,0.0,0.0,0.0,0.0,0.0,0.0,0.0,0.0,0.0,0.0,0.0,0.0,0.0,0.0,0.0,0.0,0.0,0.0,0.0,0.0,0.0,0.0,0.0,0.0,0.0,0.0,0.0,0.0,0.0,0.0,0.0101,0.0101,0.0135,0.0202,0.0236,0.051,0.1458,0.0984,0.0529,0.1509,0.1748,0.2033,0.3016,0.3182,0.3154,0.3355,0.3239,0.3122,0.3239,0.3168,0.2805,0.1908,0.1784,0.14,0.0435,0.1284,0.2415,0.366,0.4865,0.598,0.701,0.7098,0.7098,0.7098,0.7098,0.7098,0.7098,0.7098,0.7098,0.7098,0.7098,0.7098,0.7098,0.7098,0.7098,0.7098,0.7098,0.7098,0.7078,0.6844,0.6715,0.6675,0.6515,0.6461,0.6454,0.6532,0.7134,0.7817,0.6911,0.7748,0.9188,0.0,0.0,0.0,0.0,0.0,0.0,0.0,0.0,0.0,0.0,0.0,0.0,0.0,0.0,0.0,0.0,0.0,0.0,0.0,0.0,0.0,0.0,0.0,0.0,0.0,0.0,0.0,0.0,0.0,0.0,0.0,0.0,0.0,0.0,0.0,0.0,0.0,0.0,0.0,0.0,0.0,0.0,0.0,0.0,0.0,0.0,0.0,0.0,0.0,0.0,0.0,0.0,0.0,0.0,0.0135,0.0806,0.1006,0.1173,0.191,0.218,0.2322,0.2545,0.2521,0.2476,0.2713,0.2762,0.3092,0.4129,0.3672,0.3633,0.53,0.4219,0.3355,0.4215,0.373,0.3197,0.3026,0.3095,0.3077,0.2831,0.3072,0.3705,0.491,0.6068,0.6827,0.7098,0.7098,0.7098,0.7098,0.7098,0.7098,0.7098,0.7098,0.7098,0.7098,0.7098,0.7098,0.7098,0.7098,0.7098,0.7098,0.7098,0.7098,0.7085,0.691,0.681,0.6764,0.7373,0.7563,0.7557,0.8351,0.877,0.896,0.8732,0.8922,0.9263,0.0,0.0,0.0,0.0,0.0,0.0,0.0,0.0,0.0,0.0,0.0,0.0,0.0,0.0,0.0,0.0,0.0,0.0,0.0,0.0,0.0188,0.0594,0.0623,0.0832,0.1285,0.13,0.0863,0.0,0.0,0.0,0.0,0.0,0.0,0.0,0.0,0.0,0.0,0.0,0.0,0.0,0.0,0.0,0.0,0.0,0.0269,0.0605,0.0605,0.0906,0.1276,0.1276,0.1276,0.1276,0.1276,0.1276,0.1376,0.1843,0.1975,0.2075,0.2576,0.2802,0.3008,0.3542,0.3771,0.3867,0.3856,0.3878,0.4152,0.524,0.5023,0.4969,0.6093,0.5395,0.4823,0.5471,0.5137,0.4666,0.4273,0.4252,0.4142,0.365,0.4105,0.491,0.6113,0.6738,0.7098,0.7098,0.7098,0.7098,0.7098,0.7098,0.7098,0.7098,0.7098,0.7098,0.7098,0.7098,0.7098,0.7098,0.7098,0.7098,0.7098,0.7098,0.7058,0.7027,0.7388,0.7428,0.7377,0.8265,0.8596,0.858,0.9112,0.9593,0.997,0.948,0.9593,1.0061,0.0,0.0,0.0,0.0,0.0,0.0,0.0,0.0,0.0,0.0,0.0,0.0,0.0,0.0,0.0,0.0,0.0,0.0079,0.0275,0.0268,0.0674,0.1539,0.1566,0.1936,0.2687,0.2711,0.1965,0.0456,0.0445,0.0473,0.0471,0.0471,0.0471,0.0471,0.0471,0.0471,0.0471,0.0471,0.0471,0.0471,0.0471,0.0471,0.0471,0.0471,0.0906,0.154,0.154,0.2041,0.2709,0.2709,0.2709,0.2709,0.2709,0.2709,0.2746,0.2894,0.2958,0.295,0.3183,0.3311,0.3604,0.4529,0.4873,0.4968,0.4968,0.4969,0.5234,0.6099,0.63,0.6306,0.6334,0.6334,0.6381,0.6525,0.6532,0.6305,0.5507,0.5421,0.5116,0.4319,0.5087,0.6068,0.7003,0.7098,0.7098,0.7098,0.7098,0.7098,0.7098,0.7098,0.7098,0.7098,0.7098,0.7187,0.7401,0.7401,0.7489,0.7709,0.7709,0.7577,0.7401,0.7621,0.7621,0.751,0.8205,0.842,0.8308,0.9191,0.9556,0.9556,0.9744,1.0308,1.0981,1.0121,1.0346,1.1131,0.0,0.0,0.0,0.0,0.0,0.0,0.0,0.0,0.0,0.0,0.0,0.0,0.0,0.0,0.0,0.0,0.0,0.0392,0.1333,0.1379,0.1772,0.2628,0.2682,0.2688,0.2687,0.2697,0.2592,0.2339,0.233,0.2333,0.2345,0.2345,0.2345,0.2345,0.2345,0.2345,0.2345,0.2345,0.2345,0.2345,0.2345,0.2345,0.2345,0.2345,0.2412,0.2509,0.2509,0.2576,0.2709,0.2709,0.2709,0.2709,0.2709,0.2709,0.2857,0.3753,0.392,0.4059,0.5102,0.5396,0.5483,0.5734,0.596,0.6073,0.6073,0.6086,0.6138,0.6261,0.63,0.6334,0.6463,0.6484,0.6532,0.6647,0.6783,0.6793,0.6662,0.6766,0.6763,0.6643,0.6782,0.6915,0.7098,0.7098,0.7098,0.7098,0.7098,0.7098,0.7098,0.7098,0.7098,0.7098,0.7098,0.7621,0.8632,0.8667,0.9148,1.013,1.013,0.9618,0.8667,0.9662,0.9981,0.9769,0.9712,0.9537,0.936,1.0247,1.0596,1.0671,1.1539,1.1959,1.207,1.1922,1.1959,1.2107,0.2013,0.2013,0.2013,0.2013,0.2013,0.2013,0.2013,0.1997,0.203,0.203,0.2012,0.1993,0.2012,0.1906,0.1807,0.1724,0.172,0.1916,0.2423,0.2438,0.2828,0.3768,0.3679,0.3835,0.4295,0.4261,0.4191,0.4191,0.3203,0.271,0.2709,0.2709,0.2709,0.2709,0.2709,0.2709,0.2709,0.2709,0.2709,0.2709,0.2709,0.2709,0.2709,0.2709,0.3013,0.348,0.4018,0.4217,0.4217,0.4217,0.4217,0.4217,0.4217,0.4217,0.4295,0.4726,0.4891,0.4996,0.5539,0.58,0.5905,0.5973,0.6146,0.63,0.63,0.63,0.632,0.6402,0.6416,0.6463,0.6573,0.66,0.6647,0.6803,0.6842,0.6916,0.6991,0.7058,0.7098,0.7098,0.7098,0.7098,0.7098,0.7098,0.7098,0.7098,0.7098,0.7098,0.7098,0.7753,0.8105,0.8105,0.8703,0.9314,0.9836,0.9836,1.0096,1.0616,1.1252,1.0888,0.9624,1.0136,1.0158,0.9817,1.0314,1.0417,1.0302,1.1254,1.1663,1.1687,1.212,1.2305,1.2305,1.2305,1.2305,1.2278]}]]